[[{"header":{"parameterUnit":"m.s-1","parameterCategory":1,"la1":30.6,"la2":28.766,"lo1":-90.7593,"lo2":-88.6598,"dy":0.0162,"dx":0.0183,"nx":116,"ny":114,"refTime":"2024-04-30T06:00:00:Z","depth":0,"parameterNumber":2,"parameterNumberName":"U-component_of_WINDS"},"data":[0.0,0.0,0.0,0.0,0.0,0.0,0.0,0.0,0.0,0.0,0.0,0.0,0.0,0.0,0.0,0.0,0.0,0.0,0.0,0.0,0.0,0.0,0.0,0.0,0.0,0.0,0.0,0.0,0.0,0.0,0.0,0.0,0.0,0.0,0.0,0.0,0.0,0.0,0.0,0.0,0.0,0.0,0.0,0.0,0.0,0.0,0.0,0.0,0.0,0.0,0.0,0.0,0.0,0.0,0.0,0.0,0.0,0.0,0.0,0.0,0.0,0.0,0.0,0.0,0.0,0.0,0.0,0.0,0.0,0.0,0.0,0.0,0.0,0.0,0.0,0.0,0.0,0.0,0.0,0.0,0.0,0.0,0.0,0.0,0.0,0.0,0.0,0.0,0.0,0.0,0.0,0.0,0.0,0.0,0.0,0.0,0.0,0.0,0.0,0.0,0.0,0.0,0.0,0.0,0.0,0.0,0.0,0.0,0.0,0.0,0.0,0.0,0.0,0.0,0.0,0.0,0.0,0.0,0.0,0.0,0.0,0.0,0.0,0.0,0.0,0.0,0.0,0.0,0.0,0.0,0.0,0.0,0.0,0.0,0.0,0.0,0.0,0.0,0.0,0.0,0.0,0.0,0.0,0.0,0.0,0.0,0.0,0.0,0.0,0.0,0.0,0.0,0.0,0.0,0.0,0.0,0.0,0.0,0.0,0.0,0.0,0.0,0.0,0.0,0.0,0.0,0.0,0.0,0.0,0.0,0.0,0.0,0.0,0.0,0.0,0.0,0.0,0.0,0.0,0.0,0.0,0.0,0.0,0.0,0.0,0.0,0.0,0.0,0.0,0.0,0.0,0.0,0.0,0.0,0.0,0.0,0.0,0.0,0.0,0.0,0.0,0.0,0.0,0.0,0.0,0.0,0.0,0.0,0.0,0.0,0.0,0.0,0.0,0.0,0.0,0.0,0.0,0.0,0.0,0.0,0.0,0.0,0.0,0.0,0.0,0.0,0.0,0.0,0.0,0.0,0.0,0.0,0.0,0.0,0.0,0.0,0.0,0.0,0.0,0.0,0.0,0.0,0.0,0.0,0.0,0.0,0.0,0.0,0.0,0.0,0.0,0.0,0.0,0.0,0.0,0.0,0.0,0.0,0.0,0.0,0.0,0.0,0.0,0.0,0.0,0.0,0.0,0.0,0.0,0.0,0.0,0.0,0.0,0.0,0.0,0.0,0.0,0.0,0.0,0.0,0.0,0.0,0.0,0.0,0.0,0.0,0.0,0.0,0.0,0.0,0.0,0.0,0.0,0.0,0.0,0.0,0.0,0.0,0.0,0.0,0.0,0.0,0.0,0.0,0.0,0.0,0.0,0.0,0.0,0.0,0.0,0.0,0.0,0.0,0.0,0.0,0.0,0.0,0.0,0.0,0.0,0.0,0.0,0.0,0.0,0.0,0.0,0.0,0.0,0.0,0.0,0.0,0.0,0.0,0.0,0.0,0.0,0.0,0.0,0.0,0.0,0.0,0.0,0.0,0.0,0.0,0.0,0.0,0.0,0.0,0.0,0.0,0.0,0.0,0.0,0.0,0.0,0.0,0.0,0.0,0.0,0.0,0.0,0.0,0.0,0.0,0.0,0.0,0.0,0.0,0.0,0.0,0.0,0.0,0.0,0.0,0.0,0.0,0.0,0.0,0.0,0.0,0.0,0.0,0.0,0.0,0.0,0.0,0.0,0.0,0.0,0.0,0.0,0.0,0.0,0.0,0.0,0.0,0.0,0.0,0.0,0.0,0.0,0.0,0.0,0.0,0.0,0.0,0.0,0.0,0.0,0.0,0.0,0.0,0.0,0.0,0.0,0.0,0.0,0.0,0.0,0.0,0.0,0.0,0.0,0.0,0.0,0.0,0.0,0.0,0.0,0.0,0.0,0.0,0.0,0.0,0.0,0.0,0.0,0.0,0.0,0.0,0.0,0.0,0.0,0.0,0.0,0.0,0.0,0.0,0.0,0.0,0.0,0.0,0.0,0.0,0.0,0.0,0.0,0.0,0.0,0.0,0.0,0.0,0.0,0.0,0.0,0.0,0.0,0.0,0.0,0.0,0.0,0.0,0.0,0.0,0.0,0.0,0.0,0.0,0.0,0.0,0.0,0.0,0.0,0.0,0.0,0.0,0.0,0.0,0.0,0.0,0.0,0.0,0.0,0.0,0.0,0.0,0.0,0.0,0.0,0.0,0.0,0.0,0.0,0.0,0.0,0.0,0.0,0.0,0.0,0.0,0.0,0.0,0.0,0.0,0.0,0.0,0.0,0.0,0.0,0.0,0.0,0.0,0.0,0.0,0.0,0.0,0.0,0.0,0.0,0.0,0.0,0.0,0.0,0.0,0.0,0.0,0.0,0.0,0.0,0.0,0.0,0.0,0.0,0.0,0.0,0.0,0.0,0.0,0.0,0.0,0.0,0.0,0.0,0.0,0.0,0.0,0.0,0.0,0.0,0.0,0.0,0.0,0.0,0.0,0.0,0.0,0.0,0.0,0.0,0.0,0.0,0.0,0.0,0.0,0.0,0.0,0.0,0.0,0.0,0.0,0.0,0.0,0.0,0.0,0.0,0.0,0.0,0.0,0.0,0.0,0.0,0.0,0.0,0.0,0.0,0.0,0.0,0.0,0.0,0.0,0.0,0.0,0.0,0.0,0.0,0.0,0.0,0.0,0.0,0.0,0.0,0.0,0.0,0.0,0.0,0.0,0.0,0.0,0.0,0.0,0.0,0.0,0.0,0.0,0.0,0.0,0.0,0.0,0.0,0.0,0.0,0.0,0.0,0.0,0.0,0.0,0.0,0.0,0.0,0.0,0.0,0.0,0.0,0.0,0.0,0.0,0.0,0.0,0.0,0.0,0.0,0.0,0.0,0.0,0.0,0.0,0.0,0.0,0.0,0.0,0.0,0.0,0.0,0.0,0.0,0.0,0.0,0.0,0.0,0.0,0.0,0.0,0.0,0.0,0.0,0.0,0.0,0.0,0.0,0.0,0.0,0.0,0.0,0.0,0.0,0.0,0.0,0.0,0.0,0.0,0.0,0.0,0.0,0.0,0.0,0.0,0.0,0.0,0.0,0.0,0.0,0.0,0.0,0.0,0.0,0.0,0.0,0.0,0.0,0.0,0.0,0.0,0.0,0.0,0.0,0.0,0.0,0.0,0.0,0.0,0.0,0.0,0.0,0.0,0.0,0.0,0.0,0.0,0.0,0.0,0.0,0.0,0.0,0.0,0.0,0.0,0.0,0.0,0.0,0.0,0.0,0.0,0.0,0.0,0.0,0.0,0.0,0.0,0.0,0.0,0.0,0.0,0.0,0.0,0.0,0.0,0.0,0.0,0.0,0.0,0.0,0.0,0.0,0.0,0.0,0.0,0.0,0.0,0.0,0.0,0.0,0.0,0.0,0.0,0.0,0.0,0.0,0.0,0.0,0.0,0.0,0.0,0.0,0.0,0.0,0.0,0.0,0.0,0.0,0.0,0.0,0.0,0.0,0.0,0.0,0.0,0.0,0.0,0.0,0.0,0.0,0.0,0.0,0.0,0.0,0.0,0.0,0.0,0.0,0.0,0.0,0.0,0.0,0.0,0.0,0.0,0.0,0.0,0.0,0.0,0.0,0.0,0.0,0.0,0.0,0.0,0.0,0.0,0.0,0.0,0.0,0.0,0.0,0.0,0.0,0.0,0.0,0.0,0.0,0.0,0.0,0.0,0.0,0.0,0.0,0.0,0.0,0.0,0.0,0.0,0.0,0.0,0.0,0.0,0.0,0.0,0.0,0.0,0.0,0.0,0.0,0.0,0.0,0.0,0.0,0.0,0.0,0.0,0.0,0.0,0.0,0.0,0.0,0.0,0.0,0.0,0.0,0.0,0.0,0.0,0.0,0.0,0.0,0.0,0.0,0.0,0.0,0.0,0.0,0.0,0.0,0.0,0.0,0.0,0.0,0.0,0.0,0.0,0.0,0.0,0.0,0.0,0.0,0.0,0.0,0.0,0.0,0.0,0.0,0.0,0.0,0.0,0.0,0.0,0.0,0.0,0.0,0.0,0.0,0.0,0.0,0.0,0.0,0.0,0.0,0.0,0.0,0.0,0.0,0.0,0.0,0.0,0.0,0.0,0.0,0.0,0.0,0.0,0.0,0.0,0.0,0.0,0.0,0.0,0.0,0.0,0.0,0.0,0.0,0.0,0.0,0.0,0.0,0.0,0.0,0.0,0.0,0.0,0.0,0.0,0.0,0.0,0.0,0.0,0.0,0.0,0.0,0.0,0.0,0.0,0.0,0.0,0.0,0.0,0.0,0.0,0.0,0.0,0.0,0.0,0.0,0.0,0.0,0.0,0.0,0.0,0.0,0.0,0.0,0.0,0.0,0.0,0.0,0.0,0.0,0.0,0.0,0.0,0.0,0.0,0.0,0.0,0.0,0.0,0.0,0.0,0.0,0.0,0.0,0.0,0.0,0.0,0.0,0.0,0.0,0.0,0.0,0.0,0.0,0.0,0.0,0.0,0.0,0.0,0.0,0.0,0.0,0.0,0.0,0.0,0.0,0.0,0.0,0.0,0.0,0.0,0.0,0.0,0.0,0.0,0.0,0.0,0.0,0.0,0.0,0.0,0.0,0.0,0.0,0.0,0.0,0.0,0.0,0.0,0.0,0.0,0.0,0.0,0.0,0.0,0.0,0.0,0.0,0.0,0.0,0.0,0.0,0.0,0.0,0.0,0.0,0.0,0.0,0.0,0.0,0.0,0.0,0.0,0.0,0.0,0.0,0.0,0.0,0.0,0.0,0.0,0.0,0.0,0.0,0.0,0.0,0.0,0.0,0.0,0.0,0.0,0.0,0.0,0.0,0.0,0.0,0.0,0.0,0.0,0.0,0.0,0.0,0.0,0.0,0.0,0.0,0.0,0.0,0.0,0.0,0.0,0.0,0.0,0.0,0.0,0.0,0.0,0.0,0.0,0.0,0.0,0.0,0.0,0.0,0.0,0.0,0.0,0.0,0.0,0.0,0.0,0.0,0.0,0.0,0.0,0.0,0.0,0.0,0.0,0.0,0.0,0.0,0.0,0.0,0.0,0.0,0.0,0.0,0.0,0.0,0.0,0.0,0.0,0.0,0.0,0.0,0.0,0.0,0.0,0.0,0.0,0.0,0.0,0.0,0.0,0.0,0.0,0.0,0.0,0.0,0.0,0.0,0.0,0.0,0.0,0.0,0.0,0.0,0.0,0.0,0.0,0.0,0.0,0.0,0.0,0.0,0.0,0.0,0.0,0.0,0.0,0.0,0.0,0.0,0.0,0.0,0.0,0.0,0.0,0.0,0.0,0.0,0.0,0.0,0.0,0.0,0.0,0.0,0.0,0.0,0.0,0.0,0.0,0.0,0.0,0.0,0.0,0.0,0.0,0.0,0.0,0.0,0.0,0.0,0.0,0.0,0.0,0.0,0.0,0.0,0.0,0.0,0.0,0.0,0.0,0.0,0.0,0.0,0.0,0.0,0.0,0.0,0.0,0.0,0.0,0.0,0.0,0.0,0.0,0.0,0.0,0.0,0.0,0.0,0.0,0.0,0.0,0.0,0.0,0.0,0.0,0.0,0.0,0.0,0.0,0.0,0.0,0.0,0.0,0.0,0.0,0.0,0.0,0.0,0.0,0.0,0.0,0.0,0.0,0.0,0.0,0.0,0.0,0.0,0.0,0.0,0.0,0.0,0.0,0.0,0.0,0.0,0.0,0.0,0.0,0.0,0.0,0.0,0.0,0.0,0.0,0.0,0.0,0.0,0.0,0.0,0.0,0.0,0.0,0.0,0.0,0.0,0.0,0.0,0.0,0.0,0.0,0.0,0.0,0.0,0.0,0.0,0.0,0.0,0.0,0.0,0.0,0.0,0.0,0.0,0.0,0.0,0.0,0.0,0.0,0.0,0.0,0.0,0.0,0.0,0.0,0.0,0.0,0.0,0.0,0.0,0.0,0.0,0.0,0.0,0.0,0.0,0.0,0.0,0.0,0.0,0.0,0.0,0.0,0.0,0.0,0.0,0.0,0.0,0.0,0.0,0.0,0.0,0.0,0.0,0.0,0.0,0.0,-2.1178,0.0,0.0,0.0,0.0,0.0,0.0,0.0,0.0,0.0,0.0,0.0,0.0,0.0,0.0,0.0,0.0,0.0,0.0,0.0,0.0,0.0,0.0,0.0,0.0,-1.8235,-1.8124,-1.7738,-1.8058,-1.8313,-1.8313,0.0,0.0,0.0,0.0,0.0,-1.9394,-1.9394,-1.9563,-1.9805,-1.9805,-2.0358,-2.1466,-2.1309,-2.1079,-2.073,0.0,0.0,0.0,0.0,0.0,0.0,0.0,0.0,0.0,0.0,0.0,0.0,0.0,0.0,0.0,0.0,0.0,0.0,0.0,0.0,0.0,0.0,0.0,0.0,0.0,0.0,0.0,0.0,0.0,0.0,0.0,0.0,0.0,0.0,0.0,0.0,0.0,0.0,0.0,0.0,0.0,0.0,0.0,0.0,0.0,0.0,0.0,0.0,0.0,0.0,0.0,0.0,0.0,0.0,0.0,0.0,0.0,0.0,0.0,0.0,0.0,0.0,0.0,0.0,0.0,0.0,0.0,0.0,0.0,0.0,0.0,-2.1402,0.0,0.0,0.0,0.0,0.0,0.0,0.0,0.0,0.0,0.0,0.0,0.0,0.0,0.0,0.0,0.0,0.0,0.0,0.0,0.0,0.0,-1.9191,-1.8475,-1.9034,-1.9213,-1.8647,-1.9141,-1.9503,-1.9503,-1.9449,0.0,0.0,-1.9695,-1.9761,-1.9866,-1.9866,-2.0134,-2.0672,-2.1065,-2.1982,-2.3457,-2.3388,-2.2995,-2.2216,-2.134,0.0,0.0,0.0,0.0,0.0,0.0,0.0,0.0,0.0,0.0,0.0,0.0,0.0,0.0,0.0,0.0,0.0,0.0,0.0,0.0,0.0,0.0,0.0,0.0,0.0,0.0,0.0,0.0,0.0,0.0,0.0,0.0,0.0,0.0,0.0,0.0,0.0,0.0,0.0,0.0,0.0,0.0,0.0,0.0,0.0,0.0,0.0,0.0,0.0,0.0,0.0,0.0,0.0,0.0,0.0,0.0,0.0,0.0,0.0,0.0,0.0,0.0,0.0,-2.2959,-2.3054,-2.2939,-2.318,-2.3314,-2.3366,-2.3415,-2.2853,-2.1915,0.0,0.0,0.0,0.0,0.0,0.0,0.0,0.0,0.0,0.0,0.0,0.0,0.0,0.0,0.0,0.0,0.0,0.0,0.0,0.0,-1.9913,-1.9223,-1.9251,-1.9306,-1.9263,-1.941,-1.9503,-1.9503,-1.9557,-1.9882,-2.0505,-2.0539,-2.0808,-2.1411,-2.1414,-2.1417,-2.1458,-2.3325,-2.4999,-2.648,-2.7066,-2.6924,-2.6026,-2.3003,-2.2234,-2.3054,0.0,0.0,0.0,0.0,0.0,0.0,0.0,0.0,0.0,0.0,0.0,0.0,0.0,0.0,0.0,0.0,0.0,0.0,0.0,0.0,0.0,0.0,0.0,0.0,0.0,0.0,0.0,0.0,0.0,0.0,0.0,0.0,0.0,0.0,0.0,0.0,0.0,0.0,0.0,0.0,0.0,-1.9251,-1.9487,0.0,0.0,0.0,0.0,0.0,0.0,0.0,0.0,0.0,0.0,0.0,0.0,0.0,0.0,-2.2537,-2.339,-2.3419,-2.2681,-2.4157,-2.4553,-2.3951,-2.4645,-2.5065,-2.5173,-2.515,0.0,-2.2775,-2.1993,0.0,0.0,0.0,0.0,0.0,0.0,0.0,0.0,0.0,0.0,0.0,0.0,0.0,0.0,0.0,0.0,0.0,0.0,0.0,0.0,0.0,-2.0767,-2.1184,-2.0784,-2.2299,-2.276,-2.1503,-2.2198,-2.2294,-2.1334,-2.1301,-2.1466,-2.1768,-2.1768,-2.2564,-2.4182,-2.6286,-2.8102,-2.9593,-2.9839,-2.9568,-2.8772,-2.7257,-2.5459,-2.3446,-2.2663,0.0,0.0,0.0,0.0,0.0,0.0,0.0,0.0,0.0,0.0,0.0,0.0,0.0,0.0,0.0,0.0,0.0,0.0,0.0,0.0,0.0,0.0,0.0,0.0,0.0,0.0,0.0,0.0,0.0,0.0,0.0,0.0,0.0,0.0,0.0,0.0,0.0,0.0,0.0,-1.95,-1.9811,-1.9582,-1.9915,-2.0174,0.0,0.0,0.0,0.0,0.0,0.0,0.0,0.0,0.0,-2.4149,-2.4149,-2.4369,-2.4819,-2.5702,-2.5921,-2.5576,-2.6369,-2.6304,-2.5541,-2.6434,-2.6583,-2.6226,-2.6216,-2.5796,-2.5033,-2.3713,-2.314,-2.3096,0.0,0.0,0.0,0.0,0.0,-2.1861,0.0,0.0,0.0,0.0,0.0,0.0,0.0,0.0,0.0,0.0,0.0,0.0,-2.136,-2.2732,-2.362,-2.3487,-2.5143,-2.5574,-2.4116,-2.4183,-2.3619,-2.2129,-2.1897,-2.1797,-2.1797,-2.2526,-2.4282,-2.7031,-2.9303,-3.1219,-3.2762,-3.2826,-3.2484,-3.1803,-3.1517,-2.9026,-2.4915,-2.4132,-2.3288,-2.2378,0.0,0.0,0.0,0.0,0.0,0.0,0.0,0.0,0.0,0.0,0.0,0.0,0.0,0.0,0.0,0.0,0.0,0.0,0.0,0.0,0.0,0.0,0.0,0.0,0.0,0.0,0.0,0.0,0.0,0.0,0.0,0.0,0.0,0.0,0.0,0.0,0.0,-2.0346,-2.0556,-1.9958,-2.0738,-2.1198,0.0,0.0,0.0,0.0,0.0,0.0,-2.5877,-2.538,-2.5351,-2.5946,-2.5985,-2.6233,-2.6836,-2.7478,-2.7823,-2.7823,-2.7873,-2.7557,-2.695,-2.7623,-2.7611,-2.7039,-2.6862,-2.6862,-2.6947,-2.5068,-2.4282,-2.4239,-2.3616,-2.3611,-2.3952,-2.3534,-2.3218,-2.3018,0.0,0.0,0.0,0.0,0.0,0.0,0.0,0.0,0.0,0.0,0.0,-2.1986,-2.3457,-2.49,-2.6389,-2.7926,-2.6932,-2.6435,-2.7035,-2.3851,-2.2228,-2.2824,-2.2162,-2.1797,-2.1797,-2.4547,-2.7065,-2.9251,-3.2166,-3.4319,-3.5777,-3.6506,-3.634,-3.5482,-3.479,-3.2406,-2.8731,-2.5877,-2.4987,-2.5346,-2.2541,0.0,0.0,0.0,0.0,0.0,0.0,0.0,0.0,0.0,0.0,0.0,0.0,0.0,0.0,0.0,0.0,0.0,0.0,0.0,0.0,0.0,0.0,0.0,0.0,0.0,0.0,0.0,0.0,0.0,0.0,0.0,0.0,0.0,0.0,0.0,0.0,0.0,0.0,-2.0812,-2.2126,0.0,0.0,0.0,0.0,-2.479,-2.578,-2.6682,-2.7459,-2.7643,-2.7736,-2.7775,-2.7775,-2.7775,-2.7813,-2.789,-2.789,-2.789,-2.789,-2.7901,-2.7824,-2.7802,-2.7791,-2.7715,-2.695,-2.7084,-2.7672,-2.5278,-2.4282,-2.4287,-2.4316,-2.3852,-2.3256,-2.4039,-2.3794,-2.3076,0.0,0.0,0.0,-2.1246,-2.1309,-2.1309,-2.1309,-2.1309,-2.134,-2.1309,-2.1857,-2.2802,-2.4276,-2.629,-2.8119,-2.9615,-2.9715,-2.9218,-2.8097,-2.5872,-2.4348,-2.3653,-2.2891,-2.3156,-2.4613,-2.7031,-2.9582,-3.2232,-3.5181,-3.7135,-3.8129,-3.8361,-3.8129,-3.7298,-3.7084,-3.5679,-3.3288,-2.9305,-2.6929,-2.5717,-2.365,-2.2573,0.0,0.0,0.0,0.0,0.0,0.0,0.0,0.0,0.0,0.0,0.0,0.0,0.0,0.0,0.0,0.0,0.0,0.0,0.0,0.0,0.0,0.0,0.0,0.0,0.0,0.0,0.0,0.0,0.0,0.0,0.0,0.0,0.0,0.0,0.0,0.0,0.0,-2.3256,-2.5039,0.0,-2.492,-2.5543,-2.6389,-2.7286,-2.7879,-2.856,-2.9367,-2.949,-2.9759,-3.0314,-3.0352,-3.0352,-3.0352,-3.0352,-3.0044,-2.9506,-2.9506,-2.9236,-2.8698,-2.9225,-2.9187,-2.861,-2.8335,-2.8384,-2.851,-2.6682,-2.5935,-2.5917,-2.5418,-2.5038,-2.4801,-2.5116,-2.5035,-2.4755,0.0,-2.0893,0.0,-2.1246,-2.1309,-2.1309,-2.1309,-2.134,-2.1371,-2.1309,-2.2312,-2.3751,-2.5721,-2.8003,-3.0162,-3.2199,-3.1669,-3.0642,-2.9185,-2.6833,-2.4911,-2.3686,-2.3884,-2.4812,-2.6535,-2.9648,-3.2332,-3.4518,-3.7235,-3.8825,-3.9288,-3.9288,-3.9023,-3.856,-3.8328,-3.7665,-3.6539,-3.2991,-3.0037,-2.7602,-2.536,-2.4507,-2.4344,0.0,0.0,0.0,0.0,0.0,0.0,0.0,0.0,0.0,0.0,0.0,0.0,0.0,0.0,0.0,0.0,0.0,0.0,0.0,0.0,0.0,0.0,0.0,0.0,0.0,0.0,0.0,0.0,0.0,0.0,0.0,0.0,0.0,0.0,0.0,-2.5968,-2.5764,-2.7622,-2.8535,-2.7475,-2.7838,-2.8556,-2.9527,-2.9845,-3.0386,-3.1229,-3.1268,-3.1526,-3.2119,-3.2146,-3.2134,-3.2134,-3.1852,-3.1429,-3.0852,-3.0533,-3.0121,-2.9544,-3.016,-3.0083,-2.9506,-2.8929,-2.8852,-2.8989,-2.7404,-2.6773,-2.6767,-2.5999,-2.5707,-2.5658,-2.5707,-2.571,-2.5707,0.0,-2.1055,-2.1309,-2.1309,-2.1309,-2.1309,-2.1309,-2.1466,-2.1528,-2.1309,-2.2737,-2.4832,-2.7794,-3.0061,-3.257,-3.5711,-3.263,-3.051,-3.051,-2.6402,-2.3686,-2.3023,-2.5077,-2.6634,-2.7499,-3.2365,-3.528,-3.6075,-3.8228,-3.9288,-3.9288,-3.9288,-3.9288,-3.9255,-3.856,-3.8228,-3.8162,-3.6671,-3.4405,-3.1407,-2.7712,-2.7052,-2.7844,0.0,0.0,0.0,0.0,0.0,0.0,0.0,0.0,0.0,0.0,0.0,0.0,0.0,0.0,0.0,0.0,0.0,0.0,0.0,0.0,0.0,0.0,0.0,0.0,0.0,0.0,0.0,0.0,0.0,0.0,0.0,0.0,0.0,-2.6696,-2.6831,-2.7224,-2.816,-2.9779,-3.0213,-2.8671,-2.938,-3.0364,-3.146,-3.1673,-3.2148,-3.3103,-3.3141,-3.3103,-3.3103,-3.308,-3.3056,-3.3017,-3.2223,-3.1737,-3.1698,-3.0852,-3.0429,-3.039,-3.0379,-3.0379,-3.0263,-2.8659,-2.839,-2.894,-2.7382,-2.6721,-2.6629,-2.5991,-2.5701,-2.5589,-2.5662,-2.571,-2.571,-2.0728,-2.1055,-2.1309,-2.1309,-2.1309,-2.1309,-2.1309,-2.134,-2.134,-2.1309,-2.3193,-2.5389,-2.7859,-3.0648,-3.3082,-3.5048,-3.2332,-3.051,-3.051,-2.5938,-2.3818,-2.5243,-2.6369,-2.8555,-3.1934,-3.3889,-3.5777,-3.7599,-3.8725,-3.9288,-3.9288,-3.9288,-3.9288,-3.9255,-3.9056,-3.899,-3.8924,-3.7996,-3.7135,-3.5993,-3.1748,-2.9666,-2.8781,0.0,0.0,0.0,0.0,0.0,0.0,0.0,0.0,0.0,0.0,0.0,0.0,0.0,0.0,0.0,0.0,0.0,0.0,0.0,0.0,0.0,0.0,0.0,0.0,0.0,0.0,0.0,0.0,0.0,0.0,0.0,-2.7228,-2.8013,-2.7616,-2.9724,-3.1414,-3.1768,-3.3784,-3.4801,-3.3907,-3.4109,-3.4546,-3.4977,-3.5192,-3.5726,-3.6728,-3.6149,-3.5789,-3.5765,-3.5186,-3.4557,-3.394,-3.3708,-3.2964,-3.1769,-3.1476,-3.1003,-3.0386,-3.039,-3.0044,-2.9467,-2.966,-2.9159,-2.8209,-2.7807,-2.7228,-2.6612,-2.6607,-2.619,-2.5601,-2.5673,-2.5681,-2.5715,-2.0665,-2.0831,-2.0985,-2.1245,-2.1309,-2.1309,-2.1309,-2.1309,-2.134,-2.1309,-2.3617,-2.6016,-2.7892,-3.0285,-3.2221,-3.3425,-3.0841,-2.892,-2.829,-2.5475,-2.4812,-2.7031,-2.8986,-3.1338,-3.4187,-3.6174,-3.7665,-3.8659,-3.9388,-3.9587,-3.9288,-3.9288,-3.9288,-3.9288,-3.9288,-3.9288,-3.9255,-3.8825,-3.8659,-3.8394,-3.5497,-3.3644,-3.2332,-2.9476,-2.8351,-2.8058,-2.627,-2.6071,-2.6336,-2.4315,0.0,0.0,0.0,0.0,0.0,0.0,0.0,0.0,0.0,0.0,0.0,0.0,0.0,0.0,0.0,0.0,0.0,0.0,0.0,0.0,0.0,0.0,0.0,0.0,-2.9308,-3.0612,-3.0974,-3.246,-3.3804,-3.4652,-3.6035,-3.6756,-3.6445,-3.6524,-3.6671,-3.6822,-3.7048,-3.743,-3.808,-3.7706,-3.7255,-3.6856,-3.6381,-3.5712,-3.4863,-3.4465,-3.3643,-3.2293,-3.1934,-3.1306,-3.0458,-3.0425,-3.0133,0.0,-2.9775,-2.9121,-2.7901,-2.7952,-2.721,0.0,0.0,0.0,0.0,0.0,-2.5685,-2.5683,-2.0505,-2.0575,-2.0596,-2.1212,-2.1309,-2.1309,-2.1309,-2.134,-2.1371,-2.1309,-2.3911,-2.6241,-2.7558,-2.9149,-3.0417,-3.1163,-2.8655,-2.6501,-2.5209,-2.5276,-2.6402,-2.8793,-3.21,-3.4352,-3.5247,-3.856,-3.9951,-3.9288,-3.9951,-3.9918,-3.9288,-3.9408,-3.9388,-3.9388,-3.9487,-3.952,-3.952,-3.9421,-3.9388,-3.9322,-3.8626,-3.7831,-3.6738,-3.3292,-3.2332,-3.2531,-3.041,-2.8953,-2.786,-2.6899,0.0,0.0,0.0,0.0,0.0,0.0,0.0,0.0,0.0,0.0,0.0,0.0,0.0,0.0,0.0,0.0,0.0,0.0,0.0,0.0,0.0,0.0,0.0,0.0,-3.1983,-3.3956,-3.5713,-3.5429,-3.5578,-3.6919,-3.7168,-3.7253,-3.7393,-3.7521,-3.7612,-3.7679,-3.7924,-3.8108,-3.8281,0.0,0.0,0.0,0.0,-3.652,-3.5747,-3.4901,-3.4002,-3.3153,-3.242,-3.157,-3.0644,-3.0574,-3.0436,-3.0243,-2.9528,-2.8747,-2.7901,-2.8005,-2.7016,-2.5466,-2.5568,-2.5566,-2.5546,-2.5626,-2.5685,0.0,-2.007,-2.0733,-2.1147,-2.1276,-2.1309,-2.1309,-2.1309,-2.1309,-2.1309,-2.1309,-2.3419,-2.5056,-2.5353,-2.7301,-2.8702,-2.8834,-2.6829,-2.5408,-2.511,-2.6203,-2.8395,-3.1702,-3.3657,-3.5578,-3.7533,-3.8825,-3.9421,-3.9288,-3.9421,-3.9421,-3.9288,-3.9885,-4.015,-4.0183,-4.0746,-4.1011,-4.0978,-4.0415,-4.015,-4.0083,-3.9355,-3.8295,-3.6903,-3.4982,-3.3988,-3.3359,-3.1769,-3.1769,-3.2133,-2.9648,-2.8986,-2.882,-2.6336,-2.4646,0.0,0.0,0.0,0.0,0.0,0.0,0.0,0.0,0.0,0.0,0.0,0.0,0.0,0.0,0.0,0.0,0.0,0.0,0.0,-3.263,-3.5046,-3.7332,-3.9166,-3.9937,-3.9788,-3.8342,-3.878,-3.9203,-3.9331,-3.9375,-3.9461,-3.9585,-3.9643,-3.9771,-4.0015,-3.9427,0.0,-3.8992,-3.7638,-3.6814,-3.6659,-3.5847,-3.4997,-3.4146,0.0,0.0,-3.1563,-3.1532,-3.0749,-2.9466,-2.9935,-2.928,-2.7932,-2.8593,-2.7903,-2.6356,-2.5708,-2.5517,-2.5589,-2.5605,-2.5668,-2.5687,-1.9849,-2.0249,-2.067,-2.1213,-2.1309,-2.1309,-2.1309,-2.1309,-2.1309,-2.1309,-2.303,-2.4274,-2.4241,-2.5697,-2.6495,-2.6132,-2.4811,-2.4481,-2.5574,-2.7694,-3.0377,-3.3657,-3.5578,-3.7235,-3.8725,-3.9785,-4.0183,-3.9818,-4.0183,-4.0348,-4.0348,-4.0382,-4.058,-4.0912,-4.0912,-4.0912,-4.0845,-4.0117,-3.9818,-3.9785,-3.9475,-3.8825,-3.8096,-3.7367,-3.6638,-3.5876,-3.475,-3.4352,-3.3988,-3.1802,-3.0808,-3.0145,-2.7992,-2.6303,-2.4878,0.0,0.0,0.0,0.0,0.0,0.0,0.0,0.0,0.0,0.0,0.0,0.0,0.0,0.0,-2.8576,-2.9848,0.0,-3.3429,-3.5784,-3.7727,-3.9463,-4.0979,-4.1717,-4.1632,-4.0414,-4.0688,-4.0835,-4.0571,-4.0555,-4.0388,-4.0017,-4.008,-4.0139,-4.0283,-4.0031,-3.975,-3.9419,-3.862,-3.7986,-3.756,-3.6709,-3.5897,-3.5046,-3.4571,-3.3671,-3.2434,-3.1988,-3.1321,-3.05,-3.0469,-2.9725,-2.851,-2.8055,-2.7113,-2.5956,-2.5532,-2.5452,-2.5566,-2.5593,-2.5613,-2.5632,-1.969,-1.9691,-2.0034,-2.1023,-2.1246,-2.1309,-2.1309,-2.1309,-2.1309,-2.1309,-2.2606,-2.3456,-2.3358,-2.4116,-2.4348,-2.3619,-2.3288,-2.4116,-2.6468,-2.9218,-3.21,-3.5181,-3.7301,-3.8692,-3.9309,-4.0547,-4.0945,-4.0382,-4.1077,-4.1409,-4.1409,-4.0978,-4.111,-4.1607,-4.121,-4.1011,-4.0945,-4.005,-3.9785,-3.9885,-3.9454,-3.9408,-3.9454,-3.9189,-3.8725,-3.8129,-3.7367,-3.5976,-3.4319,-3.3259,-3.1735,-3.0112,-2.9118,-2.7793,-2.6303,-2.4679,-2.3686,0.0,0.0,0.0,0.0,0.0,0.0,0.0,0.0,-2.7692,-2.8405,-2.9369,-3.0225,-3.1362,-3.3387,-3.4627,-3.615,-3.8569,-4.0,-4.1166,-4.2238,-4.2649,-4.271,-4.2359,-4.2247,-4.1954,-4.1253,-4.12,-4.0858,-3.9965,-4.0,-4.008,-4.012,-4.03,-4.0162,-3.9523,-3.9457,-3.9122,-3.8414,-3.7588,-3.6748,-3.5936,-3.5201,-3.435,-3.3344,-3.2627,-3.2115,-3.1767,-3.0886,-3.0083,-2.9319,-2.7565,-2.6428,-2.5764,-2.5418,-2.5481,-2.5687,-2.559,-2.5585,-2.5605,-1.9654,-1.9702,-1.9924,-2.0697,-2.1087,-2.1309,-2.1309,-2.1309,-2.1309,-2.1309,-2.2021,-2.2346,-2.1727,-2.2409,-2.2667,-2.2096,-2.3156,-2.5077,-2.7959,-3.0245,-3.3094,-3.6704,-3.8328,-3.9189,-3.9288,-4.0083,-4.0448,-4.0382,-4.1077,-4.1409,-4.1442,-4.2005,-4.2336,-4.2435,-4.2999,-4.3264,-4.3164,-4.1773,-4.1541,-4.2005,-4.005,-3.9653,-4.0117,-3.8825,-3.8295,-3.8129,-3.7367,-3.5313,-3.2994,-3.3491,-3.1835,-2.9615,-3.0112,-2.9284,-2.7727,-2.5607,-2.4448,-2.3783,-2.3354,-2.4115,-2.5481,-2.7334,-2.7887,-2.8742,0.0,-3.2184,-3.2652,-3.4115,-3.5079,-3.5685,-3.6006,-3.7538,-3.9079,-4.0127,-4.154,-4.2828,-4.3676,-4.4168,-4.4183,-4.3403,-4.2772,-4.2086,-4.1275,-4.12,-4.0858,-3.9965,-3.9911,-3.9958,-4.0062,-4.012,-4.0156,-4.0202,-3.9638,-3.9273,-3.9196,-3.844,-3.7638,-3.6748,-3.6671,-3.5781,-3.4234,-3.4156,-3.3267,-3.1748,-3.0868,-3.0402,-3.0128,-2.8433,-2.7691,-2.7467,-2.589,-2.5784,-2.6391,-2.5677,-2.5517,-2.5601,-1.9325,-1.9545,-1.9797,-2.0115,-2.0429,-2.073,-2.099,-2.1023,-2.1087,-2.1277,-2.16,-2.1696,-2.1435,-2.1818,-2.2007,-2.1831,-2.2758,-2.4779,-2.8196,-3.041,-3.3259,-3.6936,-3.8493,-3.9288,-3.9288,-3.9984,-4.0382,-4.0382,-4.068,-4.1011,-4.1409,-4.1309,-4.1508,-4.1872,-4.1773,-4.174,-4.1674,-4.0613,-4.0348,-4.0547,-3.9653,-3.9222,-3.9023,-3.7963,-3.6506,-3.4949,-3.4651,-3.3458,0.0,-3.0974,-3.0112,-2.9417,-2.9284,-2.8555,-2.7433,-2.5607,-2.4878,-2.468,-2.4849,-2.6342,-2.8102,-2.9254,-3.0939,-3.2616,-3.3937,-3.4579,-3.5257,-3.6363,-3.7255,-3.8113,-3.9118,-3.9948,-4.0926,0.0,-4.3019,-4.37,-4.4411,-4.4297,-4.3793,-4.2961,-4.2593,-4.2071,-4.1275,-4.12,-4.0858,-3.9965,-3.9889,-3.9705,-3.9295,-3.9814,-3.9929,-3.9488,-3.9742,-3.9884,-3.9884,-3.9196,-3.8672,-3.8286,-3.7332,-3.6516,-3.5781,-3.4311,-3.2725,-3.1101,-3.0685,-3.024,-2.9718,-2.8954,-2.8356,-2.7845,-2.7093,-2.7044,-2.7246,-2.6455,-2.6498,-2.6942,-1.9101,-1.9325,-1.9545,-1.9545,-1.9732,-2.0085,-2.0563,-2.0728,-2.0893,-2.1119,-2.1277,-2.1402,-2.137,-2.1587,-2.1708,-2.1768,-2.246,-2.4216,-2.7263,-2.9682,-3.2564,-3.6042,-3.7798,-3.8858,-3.9309,-3.9984,-4.0382,-4.0382,-4.058,-4.0912,-4.1409,-4.111,-4.1143,-4.1409,-4.111,-4.0978,-4.0912,-3.9984,-3.9818,-4.0083,-3.9322,-3.8659,-3.803,-3.6473,-3.4319,-3.21,-3.21,-3.1106,-2.9615,-2.8257,-2.786,-2.7893,-2.7827,-2.7429,-2.6766,-2.574,-2.5513,-2.5815,-2.6467,-2.8369,-3.044,-3.1524,-3.3865,-3.5971,-3.6399,-3.7113,-3.7898,-3.8719,-3.9361,-4.0078,-4.1127,-4.1346,-4.1794,-4.3015,-4.3421,-4.3729,-4.4218,-4.3756,-4.2943,-4.1844,-4.1503,-4.1162,-4.0555,-4.0934,-4.0858,-3.9965,-3.9889,-3.9646,-3.9039,-3.9696,-3.9794,-3.9185,-3.987,-4.0248,-4.0248,-3.9807,-3.9469,-3.9238,-3.7848,-3.7088,-3.6779,-3.4494,-3.2687,-3.1294,-3.1236,-3.0762,-2.9989,-2.9669,-2.934,-2.8916,-2.8461,-2.8401,-2.8527,-2.7933,-2.7855,-2.7929,-1.9101,-1.9101,-1.9101,-1.9101,-1.9139,-1.9369,-2.012,-2.053,-2.0794,-2.0827,-2.1087,-2.134,-2.137,-2.1587,-2.1678,-2.1708,-2.2429,-2.3553,-2.511,-2.7893,-3.0808,-3.3756,-3.6009,-3.7831,-3.9255,-3.9984,-4.0382,-4.0382,-4.1044,-4.1409,-4.1442,-4.2137,-4.2071,-4.1442,-4.2137,-4.2469,-4.2369,-4.0945,-4.1143,-4.217,-3.9388,-3.8228,-3.7831,-3.4187,-3.1901,-3.0576,-3.0576,-2.8323,-2.5408,-2.6071,-2.5342,-2.4414,-2.5839,-2.627,-2.6236,-2.6203,-2.6624,-2.7284,-2.8103,-2.9941,-3.2192,-3.4508,-3.6292,-3.7898,-3.9432,-4.0396,-4.1181,-4.1966,-4.218,-4.1966,-4.1217,-4.1228,-4.1346,-4.1461,-4.2145,-4.2662,-4.276,-4.2596,-4.1844,-4.0154,-3.9304,-3.8795,0.0,-4.0252,-4.0858,-3.9965,-3.9889,-3.9889,-3.9851,-3.9911,-3.9911,-3.9873,-4.004,-4.012,-4.012,-4.021,-3.9879,-3.9095,-3.8315,-3.7525,-3.6639,-3.5079,-3.3886,-3.3024,-3.3024,-3.2512,-3.1651,-3.0801,-3.0935,-3.1521,-2.983,-2.9627,-3.0332,-3.0287,-2.9301,-2.7997,-1.9101,-1.9101,-1.9101,-1.9101,-1.9101,-1.9176,-1.9406,-2.0015,-2.0496,-2.0761,-2.1087,0.0,0.0,0.0,0.0,0.0,-2.2029,-2.299,-2.4978,-2.6899,-2.9085,-3.1504,-3.422,-3.6108,-3.7069,-3.8295,-3.9189,-3.9653,-3.9885,-3.9984,-3.9984,-4.0249,-4.0216,-4.0017,-4.0249,-4.0382,-4.0348,-3.9852,-3.9653,-3.9487,-3.7533,-3.6141,-3.4916,-3.1735,-2.9317,-2.7528,0.0,-2.5408,-2.4249,-2.352,-2.3288,-2.3354,-2.3851,-2.4017,-2.4281,-2.5447,-2.6691,-2.815,-3.0385,-3.2721,-3.5013,-3.704,-3.8754,-4.0182,-4.1252,-4.168,-4.168,-4.086,-4.0363,-3.9689,-3.8438,-3.8259,-3.876,-4.019,-4.1038,-4.1872,-4.2884,-4.2956,-4.1995,-3.9397,-3.9835,0.0,0.0,0.0,0.0,-3.9851,-4.0442,-4.0517,-3.9927,-4.0972,-4.1313,-4.0783,-4.0789,-4.0832,-4.0832,-4.0387,-4.0043,-3.9775,-3.8443,-3.6863,-3.5008,-3.4506,-3.382,-3.3102,-3.3102,-3.2937,-3.2607,-3.1697,-3.1841,-3.2486,-3.1295,-3.1014,-3.1245,-3.1272,-3.054,-2.9511,0.0,-1.9101,-1.9101,-1.9101,-1.9101,0.0,0.0,0.0,0.0,0.0,0.0,0.0,0.0,0.0,0.0,0.0,0.0,-2.2394,-2.3818,-2.5276,-2.6965,-2.8887,-3.1272,-3.3027,-3.4021,-3.4982,-3.5678,-3.6141,-3.6406,-3.6539,-3.6539,-3.7069,-3.7168,-3.6936,-3.7466,-3.7698,-3.7698,-3.7433,-3.7036,-3.6473,-3.475,-3.316,-3.157,-2.8887,-2.6866,0.0,-2.3752,-2.3222,-2.3056,-2.2096,-2.2096,-2.2559,-2.2824,-2.3619,-2.4747,-2.6049,-2.7981,-3.0279,-3.2896,-3.5222,-3.7352,-3.918,-4.0574,-4.1645,-4.218,-4.1859,-4.1074,-3.9828,-3.8685,-3.7542,-3.6139,-3.5634,-3.6085,-3.8036,-3.8627,-3.954,-4.1696,-4.1921,-4.1268,-3.9603,-4.0185,-4.0214,0.0,0.0,0.0,-3.9851,-4.0972,-4.1275,-4.0404,-4.1389,-4.1882,-4.1654,-4.0783,-4.0593,-4.12,-4.0131,-3.9451,-3.9204,-3.8188,-3.6642,-3.4609,-3.4609,-3.4199,-3.3523,-3.3832,-3.3804,-3.3506,-3.2943,-3.3164,-3.3848,-3.2952,-3.2594,-3.2594,-3.2582,-3.1864,-3.0737,0.0,0.0,-1.9101,0.0,0.0,0.0,0.0,0.0,0.0,0.0,0.0,0.0,0.0,0.0,0.0,0.0,0.0,0.0,-2.1797,-2.3156,-2.458,-2.5971,-2.7462,-2.892,-3.0311,-3.041,-3.0435,-3.051,-3.1196,-3.1527,-3.156,-3.2994,-3.3259,-3.263,-3.4054,-3.4684,-3.4618,-3.3922,-3.3591,-3.3392,-3.1205,-2.9516,-2.8025,-2.5839,-2.4547,-2.3752,-2.2327,-2.1797,-2.1797,-2.1831,-2.1897,-2.2096,-2.2791,-2.5011,-2.7441,-2.7943,-3.0411,-3.3471,-3.546,-3.7423,-3.9289,-4.0788,-4.168,-4.2216,-4.218,-4.0895,-3.9504,-3.8831,-3.7292,-3.5683,-3.4311,0.0,-3.3486,-3.5263,-3.5278,-3.6172,-3.9423,-3.977,-3.999,0.0,0.0,0.0,0.0,0.0,0.0,-4.0079,0.0,-4.2147,-4.1389,-4.1389,-4.173,-4.2488,-4.0176,-3.9721,-4.1313,-3.9683,-3.8439,-3.7661,-3.7622,-3.6816,-3.5339,-3.53,-3.4899,-3.4302,-3.5123,-3.5071,-3.4417,-3.4356,-3.4809,-3.5492,-3.4622,-3.4289,-3.4289,-3.4327,-3.3237,-3.166,0.0,0.0,0.0,0.0,0.0,0.0,0.0,0.0,0.0,0.0,0.0,0.0,0.0,0.0,0.0,0.0,0.0,0.0,-2.1797,-2.2659,-2.3354,-2.3719,-2.5673,-2.7197,-2.8092,-2.9152,-2.998,-3.051,-3.0709,-3.0808,-3.0808,-3.1172,-3.1239,-3.1073,-3.147,-3.1636,-3.1636,-3.1437,-3.104,-3.0377,-2.8754,-2.7561,-2.6535,-2.4315,-2.3354,-2.3056,-2.2129,-2.1797,-2.1864,-2.2427,-2.3354,-2.4282,-2.4481,-2.617,-2.8405,-2.9787,-3.229,-3.5035,-3.6921,-3.8978,-4.0753,-4.1752,-4.168,-4.1252,-4.0646,-3.8899,-3.697,-3.5645,-3.3705,-3.1966,-3.1052,-3.1217,0.0,-3.4491,-3.6282,0.0,-4.0386,-4.1903,0.0,-4.0877,0.0,-4.2337,-4.1313,-4.2337,0.0,0.0,-4.2754,-4.3284,-4.3057,-4.3625,-4.4042,-4.427,-4.3057,-4.264,-4.3057,-4.1389,-3.9857,-3.8419,-3.7773,-3.6977,-3.609,-3.5441,-3.5085,-3.5038,-3.5244,-3.5249,-3.5098,-3.4481,-3.4776,-3.5584,-3.5341,-3.52,-3.5252,-3.5894,-3.4648,-3.2545,0.0,0.0,0.0,0.0,0.0,0.0,0.0,0.0,0.0,0.0,0.0,0.0,0.0,0.0,0.0,0.0,0.0,0.0,0.0,-2.2165,-2.2396,-2.2427,-2.3619,-2.4448,-2.4879,-2.564,-2.6104,-2.6203,-2.6866,-2.6998,-2.67,-2.7363,-2.7661,-2.7661,-2.7992,-2.8158,-2.8158,-2.8158,-2.7727,0.0,0.0,-2.4911,-2.4116,-2.2891,-2.2427,-2.2361,-2.193,-2.2195,-2.2891,-2.3619,-2.4845,-2.6236,-2.7164,-2.8986,-3.1058,-3.258,-3.4753,-3.7047,-3.8636,-4.0324,-4.1716,-4.218,-4.1431,-4.036,-3.9611,-3.7077,-3.4467,-3.2988,-3.1081,-2.9512,-2.8825,-2.8778,-2.9745,0.0,0.0,0.0,-3.9239,-4.0929,-4.1882,0.0,-4.334,0.0,-4.2943,-4.3663,-4.4004,0.0,-4.3966,-4.408,-4.3701,-4.4118,-4.4383,-4.4383,-4.3208,-4.2412,-4.2033,-4.1503,-4.0366,-3.8681,-3.8205,-3.7394,-3.6292,-3.5798,-3.545,-3.5223,0.0,-3.5247,-3.5336,-3.52,-3.5489,-3.6113,-3.6378,-3.6315,-3.6177,-3.7011,-3.5944,-3.4083,0.0,0.0,0.0,0.0,0.0,0.0,0.0,0.0,0.0,0.0,-2.0285,-2.0695,0.0,0.0,0.0,0.0,0.0,0.0,0.0,0.0,-2.1738,-2.1797,-2.1797,-2.1797,-2.1797,-2.1797,-2.1466,-2.0865,-2.2129,-2.2427,-2.1831,-2.3089,-2.3719,-2.3752,-2.4381,-2.4679,-2.4679,-2.4679,-2.4282,-2.3653,-2.299,-2.2361,-2.1797,0.0,-2.1797,-2.1797,-2.1797,-2.2626,-2.3884,-2.5011,-2.6435,-2.8058,-3.0145,-3.2299,-3.4346,-3.5564,-3.7274,-3.9015,-4.0167,-4.1379,-4.2251,-4.2144,-4.086,-3.9361,-3.854,-3.5186,-3.1929,-3.065,-2.9107,-2.7877,-2.7477,-2.6947,-2.7561,-3.0677,0.0,-3.1365,-3.7486,-3.8921,-4.0448,-4.354,-4.4476,-4.4827,-4.4914,-4.4914,-4.4914,-4.4914,-4.4914,-4.4611,-4.3891,-4.3853,-4.3853,-4.3853,-4.2337,-4.1124,-4.023,-4.0896,-4.0404,-3.885,-3.8736,-3.794,-3.6538,-3.6386,-3.6008,-3.5394,0.0,0.0,-3.5653,-3.6209,-3.6599,-3.6887,-3.7551,-3.7485,-3.7189,-3.8007,-3.7276,-3.593,0.0,0.0,0.0,0.0,0.0,0.0,0.0,0.0,0.0,-1.9934,-1.9975,-1.998,0.0,0.0,0.0,0.0,0.0,0.0,0.0,0.0,0.0,-2.1797,-2.1797,-2.1797,-2.1797,-2.1797,-2.1731,-2.1599,-2.1864,-2.193,-2.1797,-2.2062,-2.2162,-2.2195,-2.2327,-2.2361,-2.2361,-2.2361,-2.2294,-2.2162,-2.2029,-2.1897,-2.1797,-2.1797,0.0,0.0,-2.1797,-2.1963,-2.2659,-2.5874,-2.8257,-3.0212,-3.1802,-3.3822,-3.5876,-3.7336,-3.858,-3.9675,-4.0481,-4.1473,-4.2144,-4.1466,-3.9646,-3.7612,-3.6185,-3.2326,-2.9052,-2.8793,-2.7492,-2.6608,-2.7211,-2.8258,-2.9728,-3.1691,-3.2306,-3.4117,-3.8572,-3.9516,-4.0782,0.0,-4.4242,-4.4584,-4.4852,-4.4914,0.0,0.0,0.0,-4.4838,-4.4687,-4.4687,-4.4687,-4.4687,-4.3777,-4.2867,-4.1996,-4.1465,-4.0707,-3.9683,-3.9001,-3.8567,-3.8264,-3.7523,-3.7126,-3.6994,0.0,0.0,-3.7201,-3.7336,-3.7374,-3.7465,-3.8503,-3.875,-3.8661,-3.9692,-3.9008,-3.7469,0.0,0.0,0.0,0.0,0.0,0.0,-1.9972,-2.0088,-2.032,-2.0988,-2.1269,-2.1099,-2.0473,-2.0474,-2.0429,0.0,0.0,0.0,0.0,0.0,0.0,-2.143,-2.1493,-2.1617,-2.1797,-2.1797,-2.1599,-2.1234,0.0,-2.1599,-2.1263,-2.1599,-2.1797,-2.1797,-2.1797,-2.1797,-2.1797,-2.1797,-2.1797,-2.1797,-2.1797,-2.1797,-2.1797,-2.1797,0.0,0.0,-2.1797,-2.2029,-2.2758,-2.5276,-2.733,-2.9417,-3.2796,-3.5114,-3.6804,-3.7897,-3.8937,-3.9882,-4.0595,-4.1534,-4.2109,-4.1288,-3.9004,-3.6435,-3.4472,-3.0683,-2.7388,-2.6652,-2.5888,-2.5506,-2.5973,-2.7006,-2.8355,-3.0008,-3.0288,-3.1981,-3.6834,-3.7838,-3.9289,-4.2622,-4.3834,-4.4438,-4.461,-4.4802,0.0,0.0,0.0,-4.4914,-4.4914,-4.4497,-4.427,-4.427,-4.3474,-4.264,-4.1806,-4.1389,-4.0783,-3.9889,-3.9532,-3.9115,-3.866,-3.818,-3.7785,-3.7409,-3.731,0.0,-3.7509,-3.7905,-3.8077,-3.8194,-3.9089,-3.9185,-3.8861,-3.9924,-3.9572,-3.8345,0.0,0.0,0.0,0.0,0.0,0.0,-2.064,-2.093,-2.1278,-2.2091,-2.2497,-2.2236,-2.1011,-2.0654,-2.0355,0.0,0.0,0.0,0.0,0.0,0.0,0.0,0.0,-2.1402,-2.1708,0.0,0.0,-2.0965,-2.1499,0.0,0.0,0.0,0.0,0.0,-2.1797,-2.1797,-2.1797,-2.1797,-2.1797,0.0,0.0,-2.1797,0.0,0.0,0.0,0.0,0.0,-2.2162,-2.2891,-2.4381,-2.574,-2.7561,-3.1901,-3.4584,-3.6307,-3.7036,-3.8231,-3.9468,-4.0353,-4.1305,-4.1914,-4.1034,-3.8362,-3.5328,-3.3116,-2.944,-2.6183,-2.5016,-2.4789,-2.4849,-2.5098,-2.5793,-2.6886,-2.8474,-2.8272,-2.9699,-3.4842,-3.606,-3.7845,-4.1511,-4.328,0.0,-4.4299,-4.4584,0.0,0.0,0.0,0.0,-4.4914,-4.4156,-4.3701,-4.3701,-4.2678,-4.1844,-4.12,-4.101,-4.0593,-3.9889,-3.9889,-3.957,-3.8963,-3.9028,-3.8742,-3.8163,-3.8266,0.0,0.0,-3.9037,-3.9233,-3.9207,-3.9762,-3.952,-3.8947,-3.9814,-3.9681,-3.9013,0.0,0.0,0.0,0.0,0.0,0.0,-2.0059,-2.064,-2.1452,-2.2656,-2.241,-2.2004,-2.1873,-2.1632,-2.0861,0.0,0.0,0.0,0.0,0.0,0.0,0.0,0.0,0.0,0.0,0.0,0.0,-2.1698,-2.1764,0.0,0.0,0.0,0.0,0.0,0.0,0.0,-2.1797,-2.1797,0.0,0.0,0.0,0.0,0.0,0.0,0.0,0.0,0.0,-2.1831,-2.2129,-2.3586,-2.4646,-2.5607,-2.7396,-3.0344,-3.3226,-3.3988,-3.5974,-3.8261,-3.9468,-4.0662,-4.1314,-4.0277,-3.7148,-3.3865,-3.2188,-2.8227,-2.4873,-2.473,-2.4694,-2.4932,-2.5756,-2.6548,-2.7666,-2.934,-2.96,-3.0785,-3.4226,-3.5996,-3.7972,-4.0781,0.0,0.0,-4.3912,-4.4242,0.0,0.0,0.0,0.0,0.0,-4.4156,-4.3701,-4.3701,-4.2147,-4.1275,-4.12,-4.0404,-3.9965,-3.9889,-3.9889,-3.9851,-3.9835,-4.0609,-4.0867,-4.0736,0.0,0.0,0.0,-4.177,-4.1356,-4.0628,-4.0858,-4.0413,-3.9626,-3.9797,-3.9802,-3.9634,0.0,0.0,0.0,0.0,0.0,0.0,-2.0465,-2.0843,-2.1452,-2.2714,-2.3049,-2.2846,-2.2062,-2.187,-2.1094,-1.9246,-1.9369,0.0,0.0,0.0,0.0,0.0,0.0,0.0,0.0,0.0,-2.1797,-2.1797,-2.1797,0.0,0.0,0.0,0.0,0.0,0.0,0.0,-2.1797,-2.1797,0.0,0.0,0.0,0.0,0.0,0.0,0.0,0.0,0.0,0.0,-2.1897,-2.246,-2.2857,-2.3222,-2.3785,-2.5574,-2.8125,-3.1504,-3.4097,-3.631,-3.8446,-4.0244,-4.1129,-3.9637,-3.7006,-3.3972,-3.1011,-2.7763,-2.5122,-2.4195,-2.4004,-2.4134,-2.4503,-2.5637,-2.6754,-2.7428,-2.7983,-2.9481,-3.2705,-3.3719,-3.5592,-3.9571,-4.1159,0.0,0.0,0.0,0.0,0.0,0.0,0.0,0.0,-4.4156,-4.3474,-4.2943,-4.1806,-4.0972,-4.0442,-4.0079,-3.9889,-3.9889,-3.9889,-4.0176,-4.0707,-4.0957,-4.1373,-4.1827,0.0,0.0,0.0,-4.2096,-4.1529,-4.0712,-4.0778,-4.0202,-3.9376,-3.9537,-3.9632,-3.9542,0.0,0.0,0.0,0.0,0.0,-1.9478,-2.0553,-2.0872,-2.1394,-2.2482,-2.3049,-2.3049,-2.2352,-2.1772,-2.0959,-1.9769,-1.9304,0.0,0.0,0.0,0.0,0.0,0.0,0.0,0.0,0.0,-2.1797,-2.1797,-2.1797,-2.1797,0.0,0.0,0.0,0.0,0.0,0.0,0.0,0.0,0.0,0.0,0.0,0.0,0.0,0.0,0.0,0.0,0.0,0.0,0.0,0.0,0.0,-2.1797,-2.1797,-2.2493,-2.4183,-2.8456,-3.1466,-3.3931,-3.6414,-3.8589,-3.973,-3.827,-3.59,-3.3095,-2.9804,-2.7014,-2.4801,-2.3708,-2.3539,-2.3634,-2.3907,-2.5111,-2.6153,-2.6417,-2.7368,-2.8949,-3.1473,-3.2451,-3.4262,-3.7884,0.0,0.0,0.0,0.0,0.0,0.0,0.0,0.0,0.0,-4.3681,-4.2948,-4.2412,-4.1616,-4.0783,-3.9889,-3.9889,-3.9889,-3.9889,-3.9889,-4.0214,-4.0836,-4.1222,-4.1704,-4.2295,0.0,0.0,0.0,-4.2731,-4.22,-4.1278,-4.1054,-4.0364,-3.9537,-3.9399,-3.9401,-3.9352,0.0,0.0,0.0,0.0,0.0,-1.9333,-2.0001,-2.0611,-2.1249,-2.1917,-2.2004,-2.2236,-2.283,-2.1249,-2.0349,-2.093,-1.9827,0.0,0.0,0.0,0.0,0.0,0.0,0.0,-2.0597,-2.1401,-2.1797,-2.1797,-2.1797,-2.1797,-2.1797,-2.1797,-2.1797,-2.1797,0.0,0.0,0.0,0.0,0.0,0.0,0.0,0.0,-2.1797,0.0,0.0,0.0,0.0,0.0,0.0,0.0,0.0,0.0,0.0,-2.1797,-2.2261,-2.4514,-2.7727,-3.1,-3.2983,-3.5179,-3.6672,-3.5928,-3.3352,-3.0545,-2.8649,-2.5775,-2.3494,-2.3494,-2.3494,-2.3766,-2.4622,-2.5434,-2.6272,-2.715,-2.8619,-2.9981,-3.0894,-3.3067,-3.4914,0.0,0.0,0.0,0.0,0.0,0.0,0.0,0.0,0.0,0.0,-4.2642,-4.2046,-4.2389,-4.1616,-4.0783,-3.9889,-3.9889,-3.9889,-3.9889,-3.9889,-3.9889,-3.9965,-4.1654,-4.227,0.0,0.0,0.0,0.0,-4.4317,-4.3858,-4.2922,-4.21,-4.1278,-4.0466,-3.9472,-3.9082,-3.9137,0.0,0.0,0.0,0.0,0.0,0.0,-1.9391,-1.9566,-1.9943,-2.0611,-2.0698,-2.093,-2.154,-2.0698,-2.0175,-2.0378,-1.9595,0.0,0.0,0.0,0.0,0.0,0.0,-2.0158,-2.0499,-2.1055,-2.1439,-2.1728,-2.2021,-2.2411,-2.2899,-2.2378,-2.2277,-2.2526,-2.1996,0.0,0.0,0.0,0.0,0.0,0.0,-2.1587,-2.1797,0.0,0.0,0.0,0.0,0.0,0.0,0.0,0.0,0.0,0.0,0.0,0.0,-2.2626,-2.5077,-2.8006,-2.9942,-3.172,-3.2827,-3.1845,-3.0453,-2.8711,-2.6533,-2.4989,-2.3894,-2.3364,-2.3424,-2.3634,-2.3907,-2.4692,-2.5673,-2.7029,-2.816,-2.9557,-3.1462,0.0,0.0,-3.716,-4.0021,0.0,0.0,0.0,0.0,0.0,0.0,0.0,0.0,-4.2962,-4.2343,-4.2083,-4.0919,-4.0176,-3.9889,-4.0517,-4.0783,-4.0783,-4.0783,-4.1086,-4.1616,-4.1579,0.0,0.0,0.0,0.0,0.0,-4.4177,-4.3327,-4.2069,-4.2366,-4.1287,-3.9611,-3.9891,-3.9602,-3.911,0.0,0.0,0.0,0.0,0.0,0.0,-1.9101,-1.9101,-1.9246,-1.9682,-1.9711,-2.0059,-2.0901,-2.0233,-1.9914,-2.0407,-1.9624,0.0,0.0,0.0,0.0,0.0,-1.9696,-1.9949,-2.0261,-2.0698,-2.1272,-2.2083,-2.229,-2.2777,-2.3515,-2.3067,-2.2694,-2.2411,-2.1955,-2.163,0.0,0.0,0.0,0.0,-2.1214,-2.1309,-2.1617,0.0,0.0,0.0,0.0,0.0,0.0,0.0,0.0,0.0,0.0,0.0,0.0,0.0,-2.3089,-2.4979,-2.706,-2.8682,-2.96,-2.8767,-2.7975,-2.6874,-2.4965,-2.4128,-2.3571,-2.3057,-2.3199,-2.3424,-2.3435,-2.442,-2.559,-2.6633,-2.799,-2.9557,-3.1426,0.0,0.0,-3.8246,0.0,0.0,0.0,0.0,0.0,0.0,0.0,0.0,0.0,0.0,-4.1927,-4.1585,-4.0679,-4.0125,-3.9889,-4.0783,-4.1177,-4.1131,-4.1411,-4.1652,-4.1817,-4.1978,0.0,0.0,0.0,0.0,0.0,-4.4177,-4.3304,-4.2092,-4.2612,-4.1497,-3.964,-4.0197,-3.9863,-3.9082,0.0,0.0,0.0,0.0,0.0,0.0,-1.9101,-1.9101,-1.9101,-1.9101,-1.9101,-1.9537,-2.0727,-1.9798,-1.9566,-2.0756,-1.9769,0.0,0.0,0.0,0.0,-1.9101,-1.9515,-1.9773,-1.9879,-2.0261,-2.1151,-2.2635,-2.2623,-2.303,-2.3787,-2.3787,-2.3105,-2.1831,-2.1799,-2.1424,-2.0794,-2.0761,-2.0761,-2.0794,-2.0794,-2.099,0.0,0.0,0.0,0.0,0.0,0.0,0.0,0.0,0.0,0.0,0.0,0.0,0.0,0.0,0.0,0.0,0.0,-2.5872,-2.6809,-2.6455,-2.578,-2.4966,-2.3893,-2.3116,0.0,-2.266,-2.2902,-2.3137,-2.3305,-2.4619,-2.585,-2.6333,-2.8278,-3.0007,0.0,-3.3284,0.0,0.0,0.0,0.0,0.0,0.0,0.0,0.0,0.0,0.0,0.0,0.0,-4.1009,-4.1005,-4.0766,-4.0365,-3.9867,-4.0722,-4.1131,-4.1014,-4.1744,-4.1695,-4.0954,-4.2561,0.0,0.0,0.0,0.0,0.0,-4.4192,-4.3618,-4.2723,-4.2835,-4.1832,-4.0308,-4.042,-3.99,-3.9082,0.0,0.0,0.0,0.0,0.0,0.0,0.0,0.0,0.0,0.0,-1.9101,-1.9217,-1.9508,-1.9275,-1.9217,0.0,0.0,0.0,0.0,0.0,0.0,-1.9101,-1.9213,-1.9325,-1.9435,-1.9803,-2.054,-2.1704,-2.2425,-2.3448,-2.4768,-2.4713,-2.4225,-2.3285,-2.2713,-2.1831,-2.0794,-2.0462,-2.0496,-2.0794,-2.0794,-2.099,0.0,0.0,0.0,0.0,-2.1797,-2.1797,0.0,0.0,0.0,0.0,0.0,0.0,0.0,0.0,-2.1797,-2.1897,-2.2427,0.0,-2.3054,-2.2981,-2.2815,-2.2612,0.0,-2.2271,-2.2303,-2.2303,-2.2581,-2.3224,-2.4638,-2.476,-2.5728,-2.9052,-3.0076,-3.0966,-3.2516,0.0,0.0,0.0,0.0,0.0,0.0,0.0,0.0,0.0,0.0,0.0,0.0,0.0,-4.1393,-4.1005,-4.0388,-3.9863,-3.9599,-4.039,-4.0915,-4.1154,-4.125,-4.148,-4.1845,-4.1569,0.0,0.0,0.0,0.0,-4.3155,-4.3155,-4.2642,-4.198,-4.3243,-4.1943,-3.9565,-4.0828,-4.0383,-3.9082,0.0,0.0,0.0,0.0,0.0,0.0,0.0,0.0,0.0,0.0,-1.9101,-1.9101,-1.9101,-1.9101,-1.9101,0.0,0.0,0.0,0.0,0.0,0.0,-1.9101,-1.9101,-1.9139,-1.9288,-1.9738,-2.0614,-2.1898,-2.3029,-2.419,-2.5319,-2.5304,-2.4572,-2.3249,-2.1923,-2.0901,-2.022,-2.005,-2.005,-2.0254,-2.0289,0.0,0.0,0.0,0.0,0.0,-2.1617,-2.1678,0.0,-2.1797,-2.1797,-2.1797,0.0,0.0,0.0,0.0,-2.1797,-2.1797,-2.1797,-2.2029,-2.2294,-2.2294,-2.2294,-2.2294,-2.2294,-2.2178,-2.2027,-2.2027,-2.2281,-2.2924,-2.4398,-2.4761,-2.5994,-2.9561,-3.0507,0.0,0.0,0.0,0.0,0.0,0.0,0.0,0.0,0.0,0.0,0.0,0.0,0.0,0.0,0.0,-4.0672,-4.0771,-3.9674,-3.9148,-3.9261,-4.0083,-4.052,-4.06,-4.1386,-4.1557,-4.1203,-4.1622,0.0,0.0,0.0,0.0,-4.288,-4.2828,-4.2537,-4.224,-4.3095,-4.1906,-3.9788,-4.0717,-4.0197,-3.9082,0.0,0.0,0.0,0.0,0.0,0.0,0.0,0.0,0.0,0.0,0.0,0.0,0.0,0.0,0.0,0.0,0.0,0.0,0.0,0.0,-1.9101,-1.9101,-1.9101,-1.9197,-1.9426,-1.9797,-2.0822,-2.2401,-2.3748,-2.4878,-2.5717,-2.5878,-2.4851,-2.2742,-2.0827,-1.9863,-1.9611,-1.969,-1.9654,-1.9611,-1.9726,0.0,0.0,0.0,0.0,0.0,0.0,0.0,0.0,-2.1797,-2.1797,-2.1797,-2.1797,0.0,0.0,0.0,0.0,0.0,-2.193,-2.2493,-2.299,-2.2791,-2.2891,-2.3023,-2.2924,-2.2493,-2.2129,-2.2129,-2.2304,-2.2858,-2.4115,-2.5115,0.0,0.0,0.0,0.0,0.0,0.0,0.0,0.0,0.0,0.0,0.0,0.0,0.0,0.0,0.0,0.0,0.0,0.0,0.0,-4.0492,-3.9115,-3.851,-3.8868,-3.9571,-3.9956,-3.9946,-4.1354,-4.1391,-4.0271,-4.1824,-4.1819,0.0,0.0,0.0,-4.2781,-4.2672,-4.2612,-4.2612,-4.276,-4.172,-4.0197,-4.0346,-3.9863,-3.9082,0.0,0.0,0.0,0.0,0.0,0.0,0.0,0.0,0.0,0.0,0.0,0.0,0.0,0.0,0.0,0.0,0.0,0.0,0.0,-1.9101,-1.9101,-1.9101,-1.9101,-1.9362,-1.9982,-1.9517,-2.0186,-2.209,-2.3343,-2.471,-2.613,-2.7203,-2.6209,-2.34,-2.1994,-2.0767,-1.969,-1.969,-1.969,-1.9726,-2.0015,0.0,0.0,0.0,0.0,0.0,0.0,0.0,0.0,-2.1797,-2.1797,-2.1797,-2.1797,0.0,0.0,0.0,0.0,0.0,-2.2559,-2.3255,-2.352,-2.2261,-2.2891,-2.3686,-2.3023,-2.3288,-2.3653,-2.3653,-2.3685,-2.434,-2.6389,-2.6922,-2.8207,0.0,0.0,0.0,0.0,0.0,0.0,0.0,0.0,0.0,0.0,0.0,0.0,0.0,0.0,0.0,0.0,0.0,0.0,-4.0528,-3.9552,-3.8791,-3.834,-3.8669,-3.9282,-4.0059,-3.9564,-3.997,-4.1169,-4.0665,-4.0422,0.0,0.0,-4.1072,-4.1787,-4.1757,-4.1757,-4.1832,-4.2537,-4.1349,-3.938,-4.0123,-3.9863,-3.9082,0.0,0.0,0.0,0.0,0.0,0.0,0.0,0.0,0.0,0.0,0.0,0.0,0.0,0.0,0.0,0.0,0.0,0.0,0.0,-1.9101,-1.9275,-1.9624,-1.9653,-1.9798,-2.0088,-2.0855,-2.1886,-2.311,-2.5286,-2.6651,-2.7284,-2.6564,-2.5116,-2.3041,-2.1365,-2.0288,-1.9647,-1.969,-1.969,-1.9654,0.0,0.0,0.0,0.0,0.0,0.0,0.0,0.0,0.0,0.0,-2.1526,-2.1556,-2.1738,0.0,0.0,0.0,0.0,0.0,-2.2195,-2.2824,-2.3156,-2.2062,-2.3222,-2.4414,-2.3653,-2.3752,-2.4116,-2.4514,-2.458,-2.5213,-2.7198,0.0,-2.9488,-3.3348,0.0,0.0,0.0,0.0,0.0,0.0,0.0,0.0,0.0,0.0,0.0,0.0,0.0,0.0,0.0,0.0,0.0,0.0,-3.9081,-3.8468,-3.8106,-3.8201,-3.8482,-3.8911,-3.898,-3.9195,-3.9593,-4.017,-4.0267,-3.9921,0.0,-4.0523,-4.1167,-4.0849,-4.0923,-4.1167,-4.1256,-4.0577,-3.9579,-3.9686,-3.9454,-3.9082,0.0,0.0,0.0,0.0,0.0,0.0,0.0,0.0,0.0,0.0,0.0,0.0,0.0,0.0,0.0,0.0,0.0,0.0,0.0,-1.9101,-1.9333,-1.9856,-2.003,-2.032,-2.0756,-2.2294,-2.358,-2.4546,-2.7056,-2.8343,-2.8485,-2.6147,-2.4298,-2.2802,-2.0976,-1.9952,-1.9647,-1.969,-1.9654,-1.9647,0.0,0.0,0.0,0.0,0.0,0.0,0.0,0.0,0.0,0.0,0.0,0.0,0.0,0.0,0.0,-2.1797,-2.1797,-2.1831,-2.1996,-2.246,-2.2758,-2.2195,-2.3454,-2.4779,-2.458,-2.4646,-2.5077,-2.6137,-2.6369,-2.6776,-2.8073,-2.924,0.0,-3.4763,0.0,0.0,0.0,0.0,0.0,0.0,0.0,0.0,0.0,0.0,0.0,0.0,0.0,0.0,0.0,0.0,0.0,0.0,-3.854,-3.8106,-3.8002,-3.8002,-3.8041,-3.8151,-3.8687,-3.8686,-3.829,-3.9581,-3.9792,-3.9243,-3.947,-3.9946,-4.0477,-4.0052,-4.0162,-4.0474,-4.0084,-3.9847,-3.9681,-3.9258,-3.9082,-3.9082,0.0,0.0,0.0,0.0,0.0,0.0,0.0,0.0,0.0,0.0,0.0,0.0,0.0,0.0,0.0,0.0,0.0,0.0,-1.9101,-1.9101,-1.913,-1.9159,-1.9769,-2.093,-2.2656,-2.3009,-2.4065,-2.5862,-2.7447,-2.8557,-2.9174,-2.736,-2.5405,-2.346,-2.2143,-2.0857,-1.969,-1.969,-1.969,-1.969,-1.969,0.0,0.0,0.0,0.0,0.0,0.0,0.0,0.0,0.0,0.0,0.0,0.0,0.0,-2.1797,-2.1797,-2.1797,-2.193,-2.2626,-2.2857,-2.2891,-2.2824,-2.3454,-2.4414,-2.574,-2.6568,-2.7628,-2.9715,-3.0145,-3.0028,-2.9888,-3.1662,-3.3949,-3.6415,0.0,0.0,0.0,0.0,0.0,0.0,0.0,0.0,0.0,0.0,0.0,0.0,0.0,0.0,0.0,0.0,0.0,0.0,0.0,-3.7969,-3.8002,-3.7969,-3.8223,-3.8796,-3.8151,-3.8259,-3.912,-3.8506,-3.828,-3.8474,-3.8506,-3.8944,-3.9674,-3.967,-3.967,-3.9674,-3.9634,-3.9323,-3.8877,-3.9036,-3.9082,-3.9082,0.0,0.0,0.0,0.0,0.0,0.0,0.0,0.0,0.0,0.0,0.0,-1.9101,-1.9101,0.0,0.0,0.0,0.0,0.0,-1.9101,-1.9101,-1.9304,-1.9711,-1.9972,-2.0814,-2.2323,-2.3589,-2.5179,-2.705,-2.8634,-2.8971,-2.8226,-2.6255,-2.4537,-2.2951,-2.1216,-2.0408,-2.0288,-1.9869,-1.9929,-2.0288,-1.9869,-1.969,0.0,0.0,0.0,0.0,0.0,0.0,0.0,0.0,-2.0663,-2.1023,-2.1214,-2.1526,-2.1797,-2.1797,-2.1797,-2.1864,-2.2129,-2.2559,-2.2891,-2.2891,-2.3785,-2.4944,-2.5971,-2.7462,-2.9118,-3.0841,-3.1934,-3.2508,-3.2374,0.0,-3.5531,0.0,0.0,0.0,0.0,0.0,0.0,0.0,0.0,0.0,0.0,0.0,0.0,0.0,0.0,0.0,0.0,0.0,0.0,0.0,0.0,-3.7899,-3.7792,-3.7792,-3.7864,-3.8078,-3.7828,-3.7864,-3.8223,-3.8438,-3.8546,-3.8654,-3.8829,-3.901,-3.9085,-3.8755,-3.8504,-3.8365,-3.8538,-3.8591,-3.859,-3.8833,-3.8921,-3.895,0.0,0.0,0.0,0.0,0.0,0.0,0.0,0.0,-1.9101,0.0,0.0,0.0,0.0,-1.9101,0.0,0.0,0.0,0.0,-1.9101,-1.9101,-1.9304,-1.9769,-2.0001,-2.0582,-2.1656,-2.3397,-2.5247,-2.7219,-2.8655,-2.8604,-2.723,-2.5226,-2.3939,-2.3191,-2.1216,-2.0707,-2.1276,-2.0378,-2.0288,-2.0647,-1.9959,-1.969,0.0,0.0,0.0,0.0,0.0,0.0,0.0,0.0,-2.0361,-2.0827,-2.1055,-2.1464,-2.1797,-2.1797,-2.1797,-2.1797,-2.1797,-2.2327,-2.2891,-2.2891,-2.4348,-2.6104,-2.7296,-2.8887,-3.0675,-3.2597,-3.3425,-3.3856,-3.4087,0.0,0.0,0.0,0.0,0.0,0.0,0.0,0.0,0.0,0.0,0.0,0.0,0.0,0.0,0.0,0.0,0.0,0.0,0.0,0.0,0.0,0.0,-3.7792,-3.7685,-3.7685,-3.7542,-3.7292,-3.7542,-3.7649,-3.7612,-3.8183,-3.8433,-3.8433,-3.8618,-3.8582,-3.8362,-3.8008,-3.7757,-3.7613,-3.7898,-3.8101,-3.8336,-3.859,-3.8683,-3.8713,0.0,0.0,0.0,0.0,0.0,0.0,0.0,0.0,-1.9101,-1.9101,-1.9101,0.0,0.0,0.0,0.0,0.0,0.0,0.0,-1.9101,-1.9101,-1.9101,-1.9101,-1.974,-2.0378,-2.0959,-2.2221,-2.4002,-2.6199,-2.713,-2.723,-2.6512,-2.4537,-2.3969,-2.4492,-2.2562,-2.2054,-2.2634,-2.1276,-2.0707,-2.0647,-1.9959,-1.969,-1.969,0.0,0.0,0.0,0.0,0.0,0.0,0.0,-2.022,-2.0794,-2.0794,-2.1245,-2.1797,-2.1797,-2.1797,-2.1797,-2.1797,-2.2327,-2.2891,-2.2924,-2.511,-2.786,-3.0046,-3.1064,-3.2497,-3.5413,-3.4849,-3.4054,-3.4783,-3.4097,0.0,0.0,0.0,0.0,0.0,0.0,0.0,0.0,0.0,0.0,0.0,0.0,0.0,0.0,0.0,0.0,0.0,0.0,0.0,0.0,0.0,0.0,-3.7685,-3.7685,-3.7327,-3.6575,-3.7292,-3.7577,-3.7577,-3.7577,-3.7577,-3.7577,-3.7577,-3.7577,-3.7577,-3.7577,-3.7577,-3.7613,-3.7898,-3.7966,-3.8,-3.8267,-3.8364,-3.8396,0.0,0.0,0.0,0.0,0.0,0.0,0.0,0.0,-1.9101,-1.9101,-1.9101,0.0,0.0,0.0,0.0,0.0,0.0,0.0,-1.9101,-1.9101,-1.9101,-1.9101,-1.9304,-1.9517,-1.9797,-2.1175,-2.2877,-2.4793,-2.609,-2.5968,-2.4477,-2.3879,-2.346,-2.3221,-2.2652,-2.2233,-2.1934,-2.1066,-2.0707,-2.0647,-1.9959,-1.969,-1.969,0.0,0.0,0.0,0.0,0.0,0.0,0.0,0.0,0.0,-2.0395,-2.0861,-2.1464,-2.1464,-2.1617,-2.1797,-2.1797,-2.2327,-2.3156,-2.4183,-2.627,-2.8754,-3.1437,-3.263,-3.3988,-3.6936,-3.6804,-3.6208,-3.6406,-3.6463,0.0,0.0,0.0,0.0,0.0,0.0,0.0,0.0,0.0,0.0,0.0,0.0,0.0,0.0,0.0,0.0,0.0,0.0,0.0,0.0,-3.5934,-3.5934,-3.5934,-3.5934,-3.5827,-3.5613,-3.5792,-3.6221,-3.6792,-3.7327,-3.7577,-3.7577,-3.7577,-3.7255,-3.6756,-3.6756,-3.6435,-3.6006,-3.7256,-3.7363,-3.6968,-3.7819,-3.7775,-3.7301,0.0,0.0,0.0,0.0,0.0,0.0,-1.8874,-1.8988,-1.9101,-1.9101,-1.9101,-1.9101,0.0,0.0,0.0,-1.9101,-1.9101,0.0,-1.9101,-1.9101,-1.9101,-1.9101,-1.9101,-1.9255,-1.9631,-2.1079,-2.2135,-2.2743,-2.4208,-2.4328,-2.3251,-2.349,-2.3699,-2.3849,-2.3849,-2.349,-2.2802,-2.1874,-2.1335,-2.1036,-2.0079,-1.9839,-2.0079,0.0,0.0,0.0,0.0,0.0,0.0,0.0,0.0,0.0,-2.0224,-2.063,-2.1119,-2.1246,-2.1433,-2.1648,-2.1768,-2.2559,-2.3686,-2.5176,-2.7396,-3.0079,-3.3259,-3.4816,-3.6141,-3.8195,-3.7831,-3.7102,-3.7102,-3.6852,0.0,0.0,0.0,0.0,0.0,0.0,0.0,0.0,0.0,0.0,0.0,0.0,0.0,0.0,0.0,0.0,0.0,0.0,0.0,0.0,-3.5221,-3.5221,-3.5221,-3.5221,-3.5043,-3.4793,-3.5079,-3.5293,-3.5507,-3.6613,-3.7291,-3.7577,-3.7255,-3.6649,-3.5935,-3.5935,-3.565,-3.5328,-3.6613,-3.6827,-3.6541,-3.7469,-3.7539,-3.7178,0.0,0.0,-1.7323,-1.7666,0.0,0.0,-1.8422,-1.8769,-1.9064,-1.9064,-1.9064,-1.9101,0.0,0.0,0.0,-1.9101,-1.9101,-1.9101,-1.9101,-1.9101,-1.9101,-1.9101,-1.9197,-1.9555,-2.0304,-2.151,-2.1591,-2.0516,-2.1924,-2.2634,-2.2592,-2.3281,-2.4298,-2.5525,-2.5525,-2.5136,-2.4313,-2.3041,-2.2113,-2.1395,-2.0168,-2.0079,-2.0557,-1.9929,0.0,0.0,0.0,0.0,0.0,0.0,0.0,0.0,-2.0124,-2.0429,-2.0827,-2.1119,-2.1246,-2.1371,-2.1744,-2.2892,-2.4381,-2.6005,-2.8688,-3.1802,-3.5214,-3.7102,-3.8328,-3.9023,0.0,-3.7201,-3.7201,0.0,0.0,0.0,0.0,0.0,0.0,0.0,0.0,0.0,0.0,0.0,0.0,0.0,0.0,0.0,0.0,0.0,0.0,0.0,0.0,0.0,-3.5007,-3.5007,-3.5007,-3.5007,-3.465,0.0,-3.4686,-3.4686,-3.4151,-3.5614,-3.6684,-3.7327,-3.6542,-3.5792,-3.5114,-3.5114,-3.5079,-3.5079,-3.6042,-3.6363,-3.6399,-3.7184,-3.7434,-3.7399,0.0,0.0,-1.724,-1.7323,0.0,0.0,-1.7948,-1.8344,-1.8616,-1.8616,-1.8912,-1.9101,-1.9101,-1.9101,0.0,-1.9101,-1.9101,-1.9101,-1.9101,-1.9176,-1.925,-1.925,-1.987,-2.0537,-2.1218,-2.1089,-2.0929,-2.0669,-2.1515,-2.1904,-2.1934,-2.3071,-2.4029,-2.4837,-2.4837,-2.4178,-2.3011,-2.1695,-2.0737,-2.0079,-1.9809,-1.9779,-1.9899,-1.975,-1.969,0.0,0.0,0.0,0.0,0.0,0.0,0.0,-1.9833,-2.005,-2.0361,-2.0429,-2.0828,-2.1438,-2.2085,-2.3096,-2.4613,-2.7263,-3.0974,-3.4319,-3.5678,-3.6704,-3.7566,-3.8295,-3.8195,-3.7963,0.0,0.0,0.0,0.0,0.0,0.0,0.0,0.0,0.0,0.0,0.0,0.0,0.0,0.0,0.0,0.0,0.0,0.0,0.0,0.0,0.0,-3.3401,-3.3366,-3.3366,-3.3366,-3.3366,-3.3294,0.0,-3.3294,-3.3651,-3.4151,-3.5043,-3.5543,-3.5685,-3.4936,-3.4508,-3.4365,-3.4365,-3.3972,-3.358,-3.5614,-3.6006,-3.5578,-3.6363,-3.6256,-3.5721,0.0,0.0,0.0,0.0,0.0,0.0,0.0,0.0,-1.8798,-1.8798,-1.8988,-1.9101,-1.9101,-1.9101,0.0,0.0,-1.9101,-1.9101,-1.9101,-1.9176,-1.9213,-1.9288,-1.9979,-2.041,-2.0584,-2.0593,-2.0482,-2.0228,-2.0557,-2.1066,-2.1724,-2.334,-2.4298,-2.4582,-2.4956,-2.4208,-2.2622,-2.1605,-2.0797,-2.0139,-1.9809,-1.9869,-2.0139,-1.9809,-1.969,-1.969,-1.969,0.0,0.0,0.0,0.0,0.0,0.0,0.0,-1.998,-2.0154,-2.0496,-2.0924,-2.1666,-2.2802,-2.4674,-2.845,-3.2166,-3.5081,-3.5843,-3.6572,-3.7235,-3.7599,-3.7665,0.0,0.0,0.0,0.0,0.0,0.0,0.0,0.0,0.0,0.0,0.0,0.0,0.0,0.0,0.0,0.0,0.0,0.0,0.0,0.0,-3.3243,-3.3131,-3.2902,-3.2898,-3.2898,-3.2898,-3.2898,-3.2898,-3.2898,-3.2898,-3.3116,-3.3544,-3.4686,-3.5007,-3.465,-3.4294,-3.3865,-3.3508,-3.3508,-3.3259,-3.308,-3.5043,-3.5578,-3.5364,-3.6542,-3.647,-3.5828,0.0,0.0,0.0,0.0,0.0,0.0,0.0,0.0,0.0,-1.8988,-1.9064,-1.9101,-1.9101,-1.9101,-1.9101,0.0,0.0,0.0,-1.9139,-1.9176,-1.9309,-1.9538,-2.0029,-2.0194,-1.9968,-2.0347,-2.0325,-1.9869,-1.9869,-2.0617,-2.2054,-2.3699,-2.4522,-2.4761,-2.5136,-2.4298,-2.2664,-2.1724,-2.1036,-2.0498,-1.9899,-2.0019,-2.0468,-1.9899,-1.969,-1.969,-1.969,-1.969,-1.969,-1.969,0.0,0.0,0.0,0.0,-1.9762,-2.005,-2.0124,-2.0361,-2.1085,-2.2634,-2.5085,-2.927,-3.2431,-3.4717,-3.5446,-3.6208,-3.6738,-3.6738,-3.6837,0.0,0.0,0.0,0.0,0.0,0.0,0.0,0.0,0.0,0.0,0.0,0.0,0.0,0.0,0.0,0.0,0.0,0.0,0.0,-3.1987,-3.2091,-3.226,-3.2624,-3.2795,-3.2827,-3.2719,-3.2719,-3.2648,-3.2474,-3.2474,-3.2474,-3.2509,-3.383,-3.4151,-3.3687,-3.3687,-3.3294,-3.2719,-3.2719,-3.2759,-3.3009,-3.4472,-3.5114,-3.5364,-3.6542,-3.672,-3.647,0.0,0.0,0.0,0.0,0.0,0.0,0.0,0.0,0.0,0.0,-1.8874,-1.9101,-1.9101,-1.9101,-1.9101,-1.9101,-1.9101,-1.9139,-1.925,0.0,0.0,-2.0482,-2.0571,-2.0908,-2.1425,-2.0908,-2.0639,-2.0587,-2.0587,-2.1515,-2.334,-2.361,-2.4358,-2.5435,-2.4358,-2.343,-2.2604,-2.0737,-1.9899,-1.9809,-1.972,-1.975,-1.9809,-1.972,-1.969,-1.969,-1.969,-1.969,-1.969,-1.969,-1.969,0.0,0.0,0.0,-1.9726,-1.9762,-1.998,-2.0381,-2.1109,-2.3729,-2.6814,-2.9006,-3.1272,-3.3193,-3.3922,0.0,-3.5181,0.0,0.0,0.0,0.0,0.0,0.0,0.0,0.0,0.0,0.0,0.0,0.0,0.0,0.0,0.0,0.0,0.0,0.0,0.0,0.0,0.0,-3.0802,-3.1148,-3.1384,-3.1417,-3.2382,-3.2545,-3.1867,-3.1867,-3.151,-3.0832,-3.0832,-3.0832,-3.0832,-3.1046,-3.1439,-3.201,-3.201,-3.1974,-3.1867,-3.1867,-3.2259,-3.3005,-3.3901,-3.465,-3.515,-3.4722,-3.5364,-3.6221,0.0,0.0,0.0,0.0,0.0,0.0,0.0,0.0,0.0,0.0,0.0,-1.9101,-1.9101,-1.9101,-1.9101,-1.9101,-1.9101,-1.9139,-1.9288,-1.9428,-1.9657,-2.0065,-2.0094,-2.0251,-2.0557,-2.0288,-2.0139,-2.0139,-2.0139,-2.1335,-2.361,-2.3999,-2.4896,-2.6093,-2.4777,-2.361,-2.2574,-2.0528,-1.969,-1.969,-1.969,-1.969,-1.969,-1.969,-1.969,-1.969,-1.969,-1.969,-1.969,-1.969,-1.969,-1.969,-1.969,0.0,0.0,0.0,-1.9803,-2.0132,-2.1055,-2.3084,-2.5371,-2.7421,-2.9354,-3.1272,-3.2829,-3.3756,-3.4386,0.0,0.0,0.0,0.0,0.0,0.0,0.0,0.0,0.0,0.0,0.0,0.0,0.0,0.0,0.0,0.0,0.0,0.0,0.0,0.0,-2.9854,-3.0233,-3.0039,-3.0007,-3.0244,-3.0923,-3.1119,-3.0733,-3.0919,-3.0868,-3.0511,-3.0511,-3.0511,-3.0511,-3.0511,-3.0689,-3.1046,-3.1046,-3.1046,-3.1046,-3.151,-3.1903,-3.2331,-3.3616,-3.4294,-3.4615,-3.4686,-3.49,-3.5079,0.0,0.0,0.0,0.0,0.0,0.0,0.0,0.0,0.0,0.0,0.0,-1.9101,-1.9139,0.0,0.0,0.0,-1.9139,-1.9176,-1.9325,-1.9428,-1.9501,-1.9611,-1.9647,-1.9647,-1.969,-1.969,-1.969,-1.969,-1.969,-2.1126,-2.3879,-2.4388,-2.5525,-2.7051,-2.5704,-2.4208,-2.2604,-2.0917,-2.0198,-2.0168,-1.9839,-1.969,-1.969,-1.969,-1.969,-1.969,-1.969,-1.969,-1.969,-1.969,-1.969,-1.969,-1.969,-1.969,0.0,0.0,0.0,-1.9888,-2.0768,-2.1957,-2.3436,-2.5394,-2.7322,-2.9263,0.0,0.0,-3.3491,0.0,0.0,0.0,0.0,0.0,0.0,0.0,0.0,0.0,0.0,0.0,0.0,0.0,0.0,0.0,0.0,0.0,0.0,0.0,0.0,-2.901,-2.9282,-2.889,-2.8764,-2.9076,-2.9619,-2.9782,-2.9607,-2.9708,-2.9787,-2.9787,-2.9787,-2.9757,-2.9667,-2.9757,-2.9787,-2.9787,-3.0089,-3.0225,-3.0297,-3.1082,-3.151,-3.1831,-3.3259,-3.3937,-3.4151,-3.4508,-3.4508,-3.4401,0.0,0.0,0.0,0.0,0.0,0.0,0.0,0.0,0.0,0.0,0.0,-1.9139,-1.9288,-1.9288,-1.9288,-1.9288,-1.9288,-1.9325,-1.9391,-1.9538,-1.9611,-1.969,-1.969,0.0,-1.969,-1.969,-1.969,-1.969,-1.969,-2.1365,-2.4522,-2.4552,-2.6004,-2.8427,-2.7081,-2.5076,-2.2664,-2.1904,-2.1605,-2.1485,-2.0198,-1.969,-1.969,-1.969,-1.969,-1.969,-1.969,-1.969,-1.969,-1.969,-1.969,-1.969,-1.969,-1.969,-1.969,0.0,0.0,0.0,-2.015,-2.0817,-2.178,-2.3278,-2.5273,-2.7343,0.0,0.0,0.0,0.0,0.0,0.0,0.0,0.0,0.0,0.0,0.0,0.0,0.0,0.0,0.0,0.0,0.0,0.0,0.0,0.0,0.0,0.0,0.0,-2.7433,-2.747,-2.7767,-2.798,-2.798,-2.9007,-2.921,-2.8485,-2.8072,-2.7836,-2.7836,-2.7836,-2.7657,-2.7379,-2.7687,-2.7836,-2.7936,-2.9005,-2.9476,-2.9512,-3.0261,-3.1011,-3.176,-3.2616,-3.3437,-3.4008,-3.3294,-3.3901,-3.4936,0.0,0.0,0.0,0.0,0.0,0.0,0.0,0.0,0.0,0.0,0.0,0.0,0.0,-1.9176,-1.9176,-1.9176,-1.9288,-1.9428,-1.9538,-1.9611,-1.9654,-1.969,-1.969,-1.969,-1.969,-1.969,-1.969,-1.969,-1.969,-2.0737,-2.2742,-2.3191,-2.3879,-2.4807,-2.5166,-2.4807,-2.3789,-2.1395,-2.0647,-2.0976,-2.0049,-1.969,-1.969,-1.969,-1.969,-1.969,-1.969,-1.969,-1.969,-1.969,-1.969,-1.969,-1.969,-1.969,-1.969,-1.969,-1.969,-1.9726,-1.9839,-2.0233,-2.0852,-2.1855,-2.3394,-2.5045,-2.6629,-2.83,0.0,0.0,0.0,0.0,0.0,0.0,0.0,0.0,0.0,0.0,0.0,0.0,0.0,0.0,0.0,0.0,0.0,0.0,0.0,0.0,0.0,0.0,-2.73,-2.6978,-2.6818,-2.6818,-2.7368,-2.7672,-2.7627,-2.7476,-2.7369,-2.7369,-2.7369,-2.7307,-2.7213,-2.7338,-2.7369,-2.74,-2.7836,-2.8092,-2.8405,-2.9677,-3.0349,-3.0769,-3.2303,-3.308,-3.3294,-3.3041,-3.3223,-3.3723,0.0,0.0,0.0,-1.7157,0.0,-1.8147,-1.8461,-1.8731,-1.895,-1.9064,0.0,0.0,0.0,0.0,-1.9614,-1.9572,-1.9471,-1.9465,-1.9574,-1.9647,-1.969,-1.969,-1.969,-1.969,-1.969,-1.969,-1.969,-1.969,-1.969,-2.0378,-2.1695,-2.2143,-2.2562,-2.3011,-2.346,-2.3759,-2.3819,-2.1635,-2.0946,-2.1276,-2.0139,-2.0079,-2.0677,-2.0677,-2.0827,-2.0976,-2.0767,-2.0557,-2.0288,-1.9839,-1.969,-1.969,-1.969,-1.969,-1.969,-1.969,-1.969,-1.969,-1.969,-1.9839,-2.0177,-2.0778,-2.1859,-2.3106,-2.4406,0.0,0.0,0.0,0.0,0.0,0.0,0.0,0.0,0.0,0.0,0.0,0.0,0.0,0.0,0.0,0.0,0.0,0.0,0.0,0.0,0.0,0.0,0.0,-2.6932,-2.6468,-2.6104,-2.5839,-2.6049,-2.6218,-2.6299,-2.6539,-2.6676,-2.6676,-2.6884,-2.6956,-2.6858,-2.6989,-2.7021,-2.7021,-2.7021,-2.7244,-2.7657,-2.9193,-2.9822,-3.0029,-3.1936,-3.2705,-3.274,-3.3155,-3.3051,-3.2847,-1.6522,-1.6522,-1.665,-1.7115,-1.7199,-1.7488,-1.8372,-1.8556,-1.8673,-1.9121,0.0,0.0,0.0,0.0,0.0,-2.0546,-1.9849,-1.9494,-1.9604,-1.9604,-1.9677,-1.969,-1.969,-1.969,-1.969,-1.969,-1.969,-1.969,-1.969,-2.0348,-2.1635,-2.1635,-2.2293,-2.346,-2.2203,-2.2024,-2.2664,-2.2634,-2.2664,-2.2544,-2.0535,-2.0887,-2.2724,-2.2664,-2.3011,-2.346,-2.2862,-2.2233,0.0,-2.0168,0.0,0.0,-1.972,-1.9726,-1.969,-1.969,-1.969,-1.969,0.0,0.0,0.0,-2.012,-2.0751,0.0,-2.2564,0.0,0.0,0.0,0.0,0.0,0.0,0.0,0.0,0.0,0.0,0.0,0.0,0.0,0.0,0.0,0.0,0.0,0.0,0.0,0.0,0.0,0.0,-2.617,-2.6203,-2.6203,-2.5872,-2.5176,-2.5143,-2.4913,-2.4523,-2.5268,-2.5607,-2.5575,-2.6319,-2.6521,-2.6203,-2.6555,-2.6691,-2.6691,-2.6691,-2.6858,-2.7319,-2.88,-2.942,-2.9661,-3.1498,-3.2231,-3.2371,-3.3592,-3.3312,-3.2581,-1.6522,-1.6522,-1.6565,-1.6693,-1.7282,-1.7972,-1.8645,-1.9322,-1.9935,0.0,0.0,0.0,-2.0918,-2.0983,-2.1053,-2.1148,-2.0852,-2.0558,-2.0279,-2.0249,-2.0087,-1.972,-1.969,-1.969,-1.969,-1.969,-1.969,-1.969,-1.969,-1.9869,-2.0228,-2.0228,-2.0707,-2.1485,-2.1126,-2.1096,-2.1216,-2.0737,-2.1374,-2.2544,-2.0535,-2.0887,-2.2562,-2.1605,-2.1665,-2.2203,-2.2024,-2.1844,-2.1575,0.0,-2.0737,-2.1066,-2.0587,-2.0079,-1.969,-1.969,-1.969,-1.969,-1.969,0.0,0.0,0.0,0.0,0.0,-2.0891,-2.1855,0.0,0.0,0.0,0.0,0.0,0.0,0.0,0.0,0.0,0.0,0.0,0.0,0.0,0.0,0.0,0.0,0.0,0.0,0.0,0.0,-2.5209,-2.5077,-2.6137,-2.6203,-2.6137,-2.5905,-2.5905,-2.5576,-2.4946,-2.5646,-2.5746,-2.528,-2.5979,-2.631,-2.6203,-2.631,-2.6345,-2.6345,-2.6345,-2.6382,-2.6553,-2.7844,-2.8322,-2.8493,-3.0352,-3.108,-3.1185,-3.2371,-3.2407,-3.2088,-1.6522,-1.6522,-1.6597,-1.6848,-1.7683,-1.8446,-1.8755,-1.9636,-2.0291,0.0,0.0,0.0,-2.1743,-2.2277,-2.2418,-2.1969,-2.1632,-2.1306,-2.101,-2.101,-2.075,-2.0139,-2.0109,-1.9916,-1.9472,-1.9617,-1.9617,-1.9472,-1.9617,-1.969,-1.969,-1.969,-1.9899,-2.0288,-2.0288,-2.0288,-2.0258,-1.9869,-2.0528,-2.1754,-2.0587,-2.1455,-2.343,-2.2951,-2.334,-2.4118,0.0,0.0,-2.352,-2.2024,-2.1605,0.0,0.0,-2.0408,-2.0408,-1.9839,-1.9899,-2.0049,-1.9779,-1.969,-1.969,-1.969,0.0,0.0,-1.998,-2.0676,-2.1512,0.0,0.0,0.0,0.0,0.0,0.0,0.0,0.0,0.0,0.0,0.0,0.0,0.0,0.0,0.0,0.0,0.0,0.0,-2.5276,-2.4481,-2.4381,-2.5243,-2.5276,-2.5276,-2.5276,-2.4978,-2.4613,-2.4183,-2.4911,-2.5077,-2.4646,-2.5706,-2.6203,-2.6203,-2.6203,-2.6203,-2.6203,-2.6203,-2.6203,-2.6236,-2.692,-2.7362,-2.7835,-2.9617,-3.0343,-3.0516,-3.2018,-3.2081,-3.1682,0.0,-1.6672,-1.6898,-1.7476,-1.8329,-1.8947,-1.9092,-1.984,-2.0328,0.0,-2.0699,-2.1722,-2.3069,-2.4082,-2.4283,-2.3221,-2.2402,-2.1953,-2.1904,-2.1844,-2.1515,-2.0857,-2.0827,-2.0338,-1.9333,-1.9583,-1.9561,-1.9188,-1.9501,-1.9654,-1.969,-1.969,-1.969,-1.969,-1.969,-1.969,-1.969,-1.969,-2.0079,-2.0707,-2.0707,-2.2252,-2.4642,-2.5196,-2.6213,-2.726,-2.6602,-2.6363,-2.6004,-2.352,-2.2173,0.0,0.0,0.0,0.0,0.0,-2.0288,-2.0587,-2.0049,-1.9959,-1.9989,-1.9839,-1.9959,0.0,-1.975,-2.0288,-2.0881,0.0,0.0,0.0,0.0,0.0,0.0,0.0,0.0,0.0,0.0,0.0,0.0,0.0,0.0,0.0,0.0,-2.4944,-2.4613,-2.405,-2.4017,-2.3951,-2.3884,-2.3951,-2.405,-2.4116,-2.3421,-2.3023,-2.3023,-2.3752,-2.4083,-2.4017,-2.5508,-2.6203,-2.6203,-2.6203,-2.6203,-2.6203,-2.6203,-2.6203,-2.6203,-2.6203,-2.6601,-2.7371,-2.9143,-2.9833,-3.0074,-3.1991,-3.1978,-3.1326,-1.72,-1.7576,-1.8053,-1.8606,-1.9183,-1.9889,-2.0732,-2.1169,-2.181,-2.314,-2.4324,-2.5433,-2.6226,-2.6061,-2.5834,-2.5682,-2.4519,-2.3629,-2.3182,-2.2646,-2.2092,-2.1545,-2.1485,-2.1188,-2.0529,-2.0196,-1.9934,-1.9749,-1.9371,-1.9398,-1.969,-1.969,-1.969,-1.969,-1.969,-1.969,-1.969,-1.969,-2.0079,-2.0707,-2.0707,-2.2252,-2.4552,-2.4148,-2.4837,-2.5914,-2.5255,-2.5016,-2.4777,-2.3191,-2.1904,-2.0946,0.0,0.0,0.0,-2.1066,0.0,-2.0797,-2.1186,-2.1695,0.0,0.0,0.0,0.0,-2.0168,-2.0617,-2.1225,0.0,0.0,0.0,0.0,0.0,0.0,0.0,0.0,0.0,0.0,0.0,0.0,0.0,0.0,0.0,0.0,-2.4017,-2.352,-2.3984,-2.4017,-2.3752,-2.3156,-2.3686,-2.4282,-2.4878,-2.4183,-2.3785,-2.3785,-2.4514,-2.458,-2.4017,-2.5508,-2.6203,-2.6203,-2.6203,-2.6203,-2.6203,-2.6203,-2.6203,-2.6203,-2.6203,-2.6303,-2.6568,-2.8106,-2.871,-2.8915,-3.0746,-3.1099,-3.0708,-1.7802,-1.8028,-1.8455,-1.9284,-1.9861,-2.0519,-2.1345,-2.1841,-2.2612,-2.4042,-2.5992,-2.7018,-2.6462,-2.6718,-2.6667,-2.6039,-2.5354,-2.47,-2.4089,-2.3732,-2.3148,-2.2233,-2.2173,-2.1791,-2.1017,-2.0698,-2.0524,-2.0494,-2.0135,-2.0255,-2.0677,-2.0348,-2.0198,-2.0198,-2.0198,-2.0019,-1.972,-2.0408,-2.0707,-2.0737,-2.1066,-2.2562,-2.4582,-2.4597,-2.5435,-2.6512,-2.5854,-2.5196,-2.4433,-2.346,-2.2921,0.0,-2.1515,-2.1395,-2.1635,0.0,-2.1455,-2.1276,0.0,0.0,0.0,-2.1784,0.0,0.0,0.0,-2.0677,-2.0677,0.0,0.0,0.0,0.0,0.0,0.0,0.0,0.0,0.0,0.0,0.0,0.0,0.0,0.0,0.0,0.0,-2.3225,-2.2891,-2.2891,-2.2891,-2.2725,-2.2361,-2.2692,-2.3255,-2.3984,-2.3288,-2.3089,-2.3454,-2.4183,-2.4381,-2.4017,-2.5508,-2.6203,-2.6203,-2.6203,-2.6203,-2.6203,-2.6203,-2.6203,-2.6203,-2.6203,-2.6203,-2.6303,-2.7396,-2.7864,-2.803,-2.9655,-3.0109,-3.0013,-1.838,-1.8455,-1.8857,-1.9936,-2.0514,-2.1041,-2.1694,-2.2325,-2.3243,-2.4532,-2.6781,-2.7764,-2.6443,-2.7263,-2.7554,-2.6613,-2.6093,-2.5674,-2.5405,-2.4881,-2.4148,-2.3101,-2.2921,-2.2426,-2.1449,-2.1166,-2.0995,-2.1108,-2.088,-2.1029,-2.1545,-2.1117,-2.0887,-2.0887,-2.0887,-2.0647,-2.0318,-2.1276,-2.1545,-2.1306,0.0,-2.2921,-2.4462,-2.5166,-2.6153,-2.7111,-2.6452,-2.5435,-2.4328,-2.3789,-2.3969,-2.4044,-2.2084,-2.2383,0.0,0.0,0.0,0.0,0.0,0.0,0.0,0.0,0.0,-2.1754,0.0,0.0,0.0,0.0,0.0,0.0,0.0,0.0,0.0,0.0,0.0,0.0,0.0,0.0,0.0,0.0,0.0,0.0,0.0,-2.257,-2.2427,-2.1831,-2.1797,-2.1797,-2.1797,-2.1797,-2.2129,-2.2891,-2.2162,-2.2129,-2.2891,-2.3619,-2.4017,-2.4017,-2.5508,-2.6203,-2.6203,-2.6203,-2.6203,-2.6203,-2.6203,-2.6203,-2.6203,-2.6203,-2.6203,-2.627,-2.6998,-2.73,-2.7466,-2.8721,-2.9284,-2.9516,-1.9032,-1.9309,-1.9987,-2.1091,-2.1343,-2.1744,-2.2799,-2.3154,-2.4,-2.5931,-2.7398,-2.8368,-2.88,-2.9022,-2.9347,-2.9924,-2.7829,-2.6961,-2.8068,-2.5944,-2.4522,-2.4418,-2.3819,-2.3244,-2.2716,-2.1741,-2.1219,-2.1203,-2.064,-2.0571,-2.0988,-2.1406,-2.1575,-2.1575,-2.1575,-2.1874,-2.2334,-2.1874,-2.2293,-2.3221,-2.2772,-2.3041,0.0,-2.4477,-2.5196,-2.5734,-2.5076,-2.4358,-2.3699,0.0,-2.364,-2.3759,0.0,-2.355,-2.3101,-2.4687,0.0,0.0,0.0,0.0,0.0,0.0,-2.4298,0.0,0.0,0.0,0.0,0.0,0.0,0.0,0.0,0.0,0.0,0.0,0.0,0.0,0.0,0.0,0.0,0.0,0.0,0.0,0.0,0.0,-2.1897,-2.1797,-2.1797,-2.1797,-2.1797,-2.1797,-2.2129,-2.2891,-2.2162,-2.2129,-2.2891,-2.3619,-2.4017,-2.4017,-2.5508,-2.6203,-2.6203,-2.6203,-2.6203,-2.6203,-2.6203,-2.6203,-2.6203,-2.6203,-2.6203,-2.627,-2.6998,-2.73,-2.74,-2.8191,-2.8887,-2.9417,-1.951,-1.966,-2.0162,-2.1292,-2.1493,-2.187,-2.2915,-2.4684,-2.5985,-2.6462,-2.8284,-2.9848,-3.0502,-3.0191,-3.022,-3.1004,-2.9415,-2.8248,0.0,-2.6278,-2.5224,-2.5149,-2.4574,-2.4158,-2.3895,-2.289,-2.23,-2.2186,-2.1342,-2.1338,-2.2048,-2.1883,-2.1987,-2.2263,-2.2263,-2.2203,-2.2143,-2.2592,-2.2892,0.0,0.0,0.0,0.0,-2.4462,-2.4761,-2.497,-2.4672,-2.4178,-2.355,0.0,-2.3819,0.0,0.0,0.0,0.0,0.0,0.0,0.0,0.0,0.0,0.0,0.0,0.0,0.0,-2.1395,0.0,-2.0587,0.0,0.0,0.0,0.0,0.0,0.0,0.0,0.0,0.0,0.0,0.0,0.0,0.0,0.0,0.0,0.0,0.0,0.0,0.0,0.0,-2.1587,-2.1797,-2.1797,-2.193,-2.2228,-2.2361,-2.2592,-2.2891,-2.405,-2.4646,-2.4646,-2.5706,-2.6203,-2.6203,-2.6203,-2.6203,-2.6203,-2.6203,-2.6203,-2.6203,-2.6203,-2.6203,-2.6236,-2.6535,-2.6667,-2.6733,-2.7462,-2.7926,-2.829,-2.0238,-2.0137,-2.0388,-2.1518,-2.1719,-2.2128,-2.3416,-2.5469,-2.6956,-2.7271,-2.893,-3.0564,-3.1666,-3.1351,-3.1392,-3.2258,-3.115,-2.9839,0.0,0.0,-2.6176,-2.5452,-2.4927,-2.4636,-2.4435,-2.3567,-2.3049,-2.2932,-2.2076,-2.2042,-2.2723,-2.2364,-2.2381,-2.2753,-2.3088,-2.2951,-2.2562,-2.367,-2.3879,-2.352,-2.3969,-2.4448,-2.4821,-2.4642,-2.4462,-2.4358,-2.4358,-2.4029,-2.355,-2.331,-2.4148,0.0,-2.3879,0.0,0.0,0.0,0.0,0.0,-2.5704,0.0,0.0,0.0,0.0,0.0,0.0,0.0,0.0,0.0,0.0,0.0,0.0,0.0,0.0,-1.975,0.0,0.0,0.0,0.0,0.0,0.0,0.0,0.0,0.0,0.0,0.0,0.0,0.0,0.0,-2.1797,-2.1797,-2.1797,-2.1797,-2.2526,-2.2891,-2.2891,-2.4348,-2.511,-2.511,-2.5872,-2.6203,-2.6203,-2.6203,-2.6203,-2.6203,-2.6203,-2.6203,-2.6203,-2.6203,-2.6203,-2.6203,-2.6203,-2.6203,-2.627,-2.68,-2.7135,-2.7466,-2.1317,-2.1016,-2.0991,-2.2096,-2.2297,-2.2824,-2.4606,-2.4901,-2.5959,-2.8628,-2.8967,-2.9883,-3.2188,0.0,0.0,0.0,0.0,-3.1901,-3.0689,0.0,-2.7453,0.0,0.0,-2.4496,0.0,-2.3354,-2.3094,-2.3067,-2.2549,-2.2278,-2.2301,-2.2705,-2.2875,-2.292,-2.4044,-2.4522,-2.4522,-2.5255,-2.5525,-2.5525,-2.5525,-2.5555,-2.5525,0.0,-2.4208,-2.364,-2.364,0.0,0.0,-2.4358,-2.4552,0.0,0.0,0.0,0.0,0.0,0.0,0.0,0.0,0.0,0.0,-2.4448,0.0,0.0,0.0,0.0,-2.1455,0.0,0.0,0.0,0.0,0.0,-2.1216,-1.9899,-2.0228,0.0,0.0,0.0,0.0,0.0,0.0,0.0,0.0,0.0,0.0,0.0,0.0,0.0,-2.1797,-2.1797,-2.1797,-2.1797,-2.2526,-2.2891,-2.2891,-2.4348,-2.511,-2.511,-2.5872,-2.6203,-2.6203,-2.6203,-2.6203,-2.6203,-2.6203,-2.6203,-2.6203,-2.6203,-2.6203,-2.6203,-2.6203,-2.6203,-2.6203,-2.6236,-2.67,-2.7334,-2.192,-2.187,-2.187,-2.2246,-2.2322,-2.2858,-2.4557,-2.5524,-2.7236,0.0,-3.1225,0.0,0.0,-3.6743,-3.6633,0.0,0.0,-3.3773,-3.1965,-3.069,0.0,0.0,0.0,-2.6664,0.0,-2.4587,-2.4149,-2.3691,-2.3163,-2.3285,-2.3985,-2.3739,-2.3727,-2.4044,-2.394,-2.4208,0.0,0.0,0.0,0.0,0.0,-2.5615,-2.5495,0.0,0.0,-2.4208,-2.3759,-2.361,0.0,-2.3879,-2.4238,-2.4552,-2.4358,-2.5046,-2.5884,-2.5674,-2.6213,0.0,0.0,0.0,-2.744,-2.5435,0.0,0.0,0.0,0.0,0.0,0.0,0.0,0.0,0.0,-2.1695,-2.1395,-2.0528,-2.0557,-2.0408,0.0,0.0,0.0,0.0,0.0,0.0,0.0,0.0,0.0,0.0,0.0,0.0,0.0,-2.1797,-2.1797,-2.1797,-2.299,-2.3619,-2.3619,-2.511,-2.5839,-2.5839,-2.6104,-2.6203,-2.6203,-2.6203,-2.6203,-2.6203,-2.6203,-2.6203,-2.6203,-2.6203,-2.6203,-2.6203,-2.6203,-2.6501,-2.6866,-2.6402,-2.6369,-2.67,-2.2799,-2.2899,-2.2899,-2.2899,-2.3229,-2.3923,-2.5184,-2.6992,0.0,0.0,-3.3592,0.0,-3.9354,0.0,-3.8877,0.0,-3.7614,-3.5644,-3.2664,-3.2152,0.0,-2.8633,-2.8785,0.0,0.0,0.0,0.0,-2.4367,-2.4014,-2.4008,-2.4231,-2.3787,-2.3731,-2.3955,-2.4217,-2.4446,-2.4642,-2.5375,-2.5794,0.0,0.0,-2.5615,0.0,0.0,-2.4178,-2.4866,0.0,-2.361,-2.361,-2.361,-2.4059,-2.4492,-2.4088,-2.5016,-2.6153,-2.5734,-2.6363,-2.723,-2.723,-2.743,0.0,-2.5944,-2.5285,0.0,-2.2503,0.0,0.0,0.0,0.0,0.0,0.0,0.0,-2.1844,-2.1156,-2.0857,-2.0468,0.0,-1.969,0.0,0.0,0.0,0.0,0.0,0.0,0.0,0.0,-2.0697,0.0,0.0,0.0,-2.1617,-2.1617,-2.3158,-2.4017,-2.4017,-2.5475,-2.6203,-2.6203,-2.6203,-2.6203,-2.6203,-2.6203,-2.6203,-2.6203,-2.6203,-2.6203,-2.6203,-2.6203,-2.6203,-2.6236,-2.6501,-2.6866,-2.7267,-2.6766,-2.6766,-2.7164,-2.3929,-2.4054,-2.4079,-2.413,-2.5012,-2.5897,0.0,0.0,-3.1599,0.0,-3.5793,-3.7973,-4.0323,-4.0368,-4.0025,-3.9619,-3.9499,-3.7545,-3.3141,-3.3819,0.0,0.0,-2.9371,-2.9015,-2.783,0.0,0.0,0.0,-2.5033,-2.4386,-2.3124,-2.3205,-2.3135,-2.3041,-2.4869,-2.5345,-2.4791,-2.6722,-2.7171,-2.6542,-2.5914,-2.5674,-2.5555,-2.4208,-2.4537,-2.5525,-2.4148,-2.364,-2.364,-2.3699,-2.4148,-2.4642,-2.4642,-2.5136,-2.5644,-2.5644,-2.6123,-2.6632,-2.6632,-2.7081,-2.726,-2.6004,0.0,0.0,0.0,0.0,-2.4388,0.0,0.0,0.0,0.0,0.0,-2.2503,-2.1814,-2.1126,-2.0438,-1.9779,0.0,0.0,0.0,0.0,0.0,0.0,0.0,-1.9839,-2.0189,-2.0224,-2.0395,0.0,0.0,-2.131,-2.1374,-2.3063,-2.4017,-2.405,-2.5475,-2.6203,-2.6203,-2.6203,-2.6203,-2.6203,-2.6203,-2.6203,-2.6203,-2.6203,-2.6203,-2.6203,-2.6203,-2.6203,-2.627,-2.6965,-2.73,-2.7367,-2.7367,-2.7831,-2.8489,-2.4582,-2.4933,-2.531,0.0,-2.5719,-2.5962,0.0,0.0,0.0,0.0,-3.7987,-4.0246,-4.2354,-4.2503,-4.2234,-4.1654,-4.0696,0.0,0.0,0.0,0.0,-3.1475,-3.1965,-3.086,-2.767,-2.7035,0.0,-2.5448,0.0,-2.4939,-2.5436,-2.5057,-2.5128,-2.5511,-2.5579,-2.5801,-2.6123,-2.6632,-2.6752,-2.6572,-2.6393,-2.6632,0.0,0.0,-2.5914,-2.6841,-2.5016,-2.4313,-2.4448,-2.4926,-2.5226,-2.5345,-2.5345,-2.5794,-2.6333,-2.6333,-2.6811,-2.737,-2.737,-2.744,-2.755,-2.7141,-2.6692,-2.6063,0.0,0.0,0.0,0.0,0.0,0.0,0.0,0.0,0.0,-2.1874,-2.0707,-1.9899,0.0,0.0,0.0,0.0,0.0,0.0,0.0,0.0,-1.9839,-2.0189,-2.0224,-2.0395,0.0,0.0,0.0,-2.2086,-2.3095,-2.4015,-2.4812,-2.574,-2.6203,-2.6203,-2.6203,-2.6203,-2.6203,-2.6203,-2.6203,-2.6203,-2.6203,-2.6203,-2.6203,-2.6203,-2.6203,-2.6236,-2.6402,-2.7131,-2.813,-2.813,-2.8262,-2.8489,-2.5485,-2.6364,-2.7092,-2.7168,0.0,0.0,-2.9126,-3.0891,0.0,-3.6429,-3.8796,0.0,-4.2138,-4.2891,-4.306,-4.2402,-4.1003,0.0,-3.7899,0.0,0.0,-3.2704,-3.2791,-3.1626,-2.8716,-2.7946,0.0,-2.5882,0.0,-2.5151,-2.5384,-2.4915,-2.4775,-2.5053,-2.51,-2.5357,-2.5749,-2.6373,-2.6822,-2.6991,-2.6692,0.0,0.0,-2.5884,-2.6063,-2.6602,-2.5794,-2.5315,-2.5076,-2.5166,-2.5555,-2.6033,-2.6033,-2.6482,-2.7021,-2.7021,-2.729,-2.761,-2.761,-2.761,-2.761,-2.761,-2.734,-2.6841,-2.6183,-2.6393,-2.6303,0.0,0.0,0.0,0.0,0.0,0.0,-2.1485,-2.0617,0.0,0.0,0.0,0.0,0.0,0.0,0.0,0.0,0.0,-1.9797,-1.998,-1.998,-2.0085,0.0,0.0,0.0,-2.1877,-2.3323,-2.4313,-2.4835,-2.6106,-2.6742,-2.6667,-2.6667,-2.6667,-2.6667,-2.6667,-2.6501,-2.6203,-2.6203,-2.6203,-2.6203,-2.6203,-2.6402,-2.6733,-2.7363,-2.8323,-2.9317,-2.9317,-2.9317,-2.9383,-2.6565,-2.7896,0.0,0.0,0.0,0.0,0.0,-3.2909,0.0,-3.707,0.0,-4.0891,-4.1317,-4.2406,-4.2932,-4.2365,0.0,-3.911,-3.7606,-3.64,-3.5077,-3.3409,-3.304,-3.1908,-3.0019,-2.9329,-2.8067,0.0,-2.5681,-2.5095,-2.4279,-2.3839,-2.3612,-2.357,-2.4269,-2.4694,0.0,-2.6265,-2.71,-2.758,-2.6961,-2.6363,-2.5854,-2.5854,-2.5854,-2.5944,-2.6422,-2.6213,-2.5674,-2.5166,-2.5764,-2.6722,-2.6722,-2.7111,-2.761,-2.761,-2.761,-2.761,-2.761,-2.761,-2.761,-2.761,-2.761,-2.746,-2.6841,-2.6213,-2.5734,-2.5734,-2.4657,-2.3909,0.0,0.0,0.0,-2.1036,0.0,0.0,0.0,0.0,0.0,0.0,0.0,0.0,0.0,0.0,-1.969,-1.969,-1.969,0.0,0.0,0.0,0.0,-2.1332,-2.3366,0.0,-2.4793,0.0,-2.7412,-2.7486,-2.7462,-2.7466,-2.7466,-2.7466,-2.7031,-2.6336,-2.6336,-2.6303,-2.6203,-2.6203,-2.6634,-2.7466,-2.8853,-2.9814,-3.0377,-3.0435,-3.051,-3.051,-2.772,-2.8423,0.0,0.0,0.0,-3.2331,-3.5161,-3.7424,-3.8809,-3.8726,-4.2038,-4.4005,-4.3011,-4.2511,-4.2111,-4.1773,-4.0456,0.0,0.0,0.0,0.0,-3.4668,-3.451,-3.2828,-2.9256,-2.836,-2.7085,0.0,-2.4668,-2.4227,-2.4131,-2.4189,-2.4399,-2.4857,-2.5134,-2.5604,-2.6246,-2.6967,0.0,-2.761,-2.744,-2.732,-2.723,-2.723,-2.723,-2.7171,-2.6752,-2.6512,-2.6482,-2.6901,-2.72,-2.741,-2.741,-2.752,-2.761,-2.761,-2.761,-2.761,-2.761,-2.761,-2.761,-2.761,-2.761,-2.758,-2.746,-2.6901,-2.6422,-2.6422,-2.5375,-2.4433,-2.4552,0.0,0.0,0.0,0.0,0.0,0.0,0.0,0.0,0.0,0.0,0.0,0.0,0.0,0.0,0.0,0.0,0.0,0.0,0.0,0.0,0.0,0.0,0.0,0.0,0.0,-2.73,-2.8369,-2.826,-2.8229,-2.8229,-2.8229,-2.7793,-2.7135,-2.7135,-2.6766,-2.6203,-2.6203,-2.6634,-2.7466,-2.8853,-2.9483,-2.9682,-3.0311,-3.051,-3.051,-2.9352,0.0,0.0,0.0,0.0,0.0,0.0,-3.9163,0.0,-3.9427,-4.0482,-4.1141,-4.0588,-4.0881,-4.1,-4.0746,-3.948,-3.8477,-3.8145,-3.7287,-3.5809,-3.3715,-3.3403,0.0,-2.9336,-2.8125,-2.7156,-2.6388,-2.5154,-2.4504,-2.4517,-2.4279,-2.4123,-2.4105,-2.4337,-2.5013,0.0,0.0,0.0,-2.7171,-2.7166,-2.7152,-2.7152,-2.7458,-2.761,-2.758,-2.72,-2.7111,-2.7081,-2.7081,-2.729,-2.761,-2.761,-2.761,-2.761,-2.761,-2.761,-2.761,-2.761,-2.761,-2.761,-2.761,-2.761,-2.761,-2.761,-2.7051,-2.6692,-2.7021,-2.6063,-2.5136,-2.5136,-2.4328,0.0,0.0,0.0,0.0,0.0,0.0,0.0,0.0,0.0,0.0,0.0,0.0,0.0,0.0,0.0,0.0,0.0,0.0,0.0,0.0,0.0,0.0,0.0,0.0,0.0,-2.7753,-2.8289,-2.8567,-2.8567,-2.8841,-2.8522,-2.7898,-2.7898,-2.7661,-2.7363,-2.7727,-2.8058,-2.8489,-2.9582,-2.998,-3.0013,-3.0377,-3.051,-3.051,0.0,-3.1562,0.0,0.0,-3.4801,0.0,-3.7157,-3.9458,-4.071,-3.9734,-3.897,-3.8526,-3.8475,-3.9305,-3.977,-3.9651,-3.832,-3.7214,-3.6737,-3.561,-3.4252,-3.2592,-3.2195,-3.124,-2.9474,-2.8236,-2.7468,0.0,-2.5855,-2.5065,-2.4874,-2.4405,-2.3929,0.0,0.0,0.0,0.0,0.0,-2.6018,-2.6919,-2.6883,-2.6841,-2.6751,-2.7254,-2.7424,-2.7408,-2.7255,-2.7306,-2.7348,-2.6812,-2.7041,-2.761,-2.761,-2.761,-2.761,-2.761,-2.761,-2.761,-2.761,-2.761,-2.761,-2.761,-2.761,-2.761,-2.761,-2.7051,-2.6782,-2.749,-2.6512,-2.5525,-2.5226,-2.4866,0.0,0.0,0.0,0.0,0.0,0.0,0.0,0.0,0.0,0.0,0.0,0.0,0.0,0.0,0.0,-1.975,-1.9899,-2.0408,0.0,0.0,0.0,-2.4415,-2.4793,0.0,-2.7164,0.0,-2.8371,-2.878,-2.8823,-2.9246,-2.909,-2.8471,-2.8549,-2.8522,-2.8423,-2.9118,-2.9417,-2.9483,-3.0245,-3.051,-3.051,-3.051,-3.051,-3.051,0.0,0.0,0.0,0.0,0.0,0.0,-3.7475,-3.8488,-3.9267,-3.9712,-4.0692,-4.099,-4.0062,-3.9217,-3.8675,-3.8585,-3.7337,-3.6378,-3.6332,-3.5982,-3.4977,-3.3014,-3.2883,-3.1759,-2.925,-2.847,-2.7637,0.0,0.0,-2.5325,0.0,-2.4732,-2.4707,0.0,0.0,0.0,0.0,-2.6625,-2.701,-2.7301,-2.7449,-2.72,-2.6722,-2.6778,-2.6769,-2.6736,-2.6176,-2.6336,-2.6759,-2.6701,-2.7093,-2.761,-2.761,-2.761,-2.761,-2.761,-2.761,-2.761,-2.761,-2.761,-2.761,-2.761,-2.761,-2.761,-2.761,-2.7051,-2.6782,-2.749,-2.6512,-2.5226,-2.3999,-2.4238,-2.4388,0.0,0.0,0.0,0.0,0.0,0.0,0.0,0.0,0.0,0.0,0.0,0.0,0.0,0.0,-1.9959,-2.0587,-2.0677,-2.1306,-2.2574,0.0,-2.4013,-2.6369,-2.6444,0.0,-2.9058,-2.9077,-2.9071,-2.9071,-2.9565,-2.9351,-2.8712,-2.9116,-2.8953,-2.8423,-2.9118,-2.9417,-2.9483,-3.0245,-3.051,-3.051,-3.051,-3.051,-3.051,0.0,0.0,0.0,0.0,0.0,0.0,0.0,-3.8894,-3.8742,-3.8293,-3.8808,-3.8964,-3.8213,-3.7678,-3.7335,-3.7268,-3.6509,-3.5889,-3.5417,-3.5148,-3.4192,-3.2326,-3.2089,-3.1315,-2.9758,-2.895,-2.8222,0.0,0.0,0.0,0.0,0.0,0.0,0.0,0.0,-2.5294,-2.5395,-2.5834,-2.6083,-2.6118,-2.6546,-2.6565,-2.6353,-2.6464,-2.647,-2.6384,-2.6264,-2.6068,-2.596,-2.6336,-2.6707,-2.71,-2.7458,-2.761,-2.761,-2.761,-2.761,-2.761,-2.761,-2.761,-2.761,-2.761,-2.761,-2.761,-2.761,-2.74,-2.726,-2.753,-2.7141,-2.6632,-2.6093,-2.5884,-2.5585,0.0,0.0,0.0,0.0,0.0,0.0,0.0,0.0,0.0,0.0,0.0,0.0,0.0,0.0,-1.9989,-2.0677,-2.1096,-2.1724,-2.2694,0.0,-2.4358,-2.5405,-2.6149,-2.694,-2.7728,-2.8306,-2.8622,-2.8654,-2.9166,-2.9233,-2.8978,-2.9155,-2.9211,-2.9237,-2.9232,-2.9372,-2.9619,-2.9653,-2.9837,-3.0054,-3.0054,-3.0258,-3.051,-3.6784,0.0,-3.7337,0.0,-3.8768,-3.8668,-3.912,-3.8868,-3.8216,-3.7086,-3.7152,-3.7096,-3.676,-3.6615,-3.6546,-3.6546,-3.5941,-3.5391,-3.4726,-3.428,-3.3322,-3.1706,-3.1468,0.0,-3.0036,-2.9303,-2.8725,-2.8348,-2.7795,0.0,0.0,0.0,0.0,0.0,-2.5492,-2.5416,-2.5416,-2.5612,-2.5742,-2.5716,-2.6205,-2.6264,-2.6143,-2.6243,-2.6212,-2.614,-2.5938,-2.566,-2.5408,-2.5688,-2.5906,-2.6176,-2.6759,-2.7114,-2.7313,-2.7521,-2.755,-2.7521,-2.7602,-2.7556,-2.7458,-2.7357,-2.7306,-2.7306,-2.7488,-2.7408,-2.7297,-2.727,-2.729,-2.7171,-2.6732,-2.6482,-2.6093,-2.5435,0.0,0.0,0.0,0.0,0.0,0.0,-2.1186,-2.1216,-2.1006,0.0,0.0,0.0,0.0,0.0,-2.1515,-2.1844,0.0,0.0,0.0,0.0,0.0,-2.6033,-2.6692,-2.6871,-2.7716,-2.8125,-2.8125,-2.8654,-2.9029,-2.9358,-2.9169,-2.9384,-2.9817,-2.9307,-2.9303,-2.9572,-2.9212,-2.9303,-2.9572,-2.9572,-2.9793,-3.0087,-3.7764,-3.799,-3.8341,-3.9496,-3.9672,-3.9295,-3.8191,-3.8015,-3.7613,-3.6508,-3.6358,-3.6452,-3.6709,-3.6546,-3.6452,-3.6709,-3.5445,-3.4726,-3.4726,-3.3696,-3.2566,0.0,0.0,-3.0884,-2.9804,-2.9227,-2.8925,-2.8925,0.0,0.0,-2.8072,0.0,-2.7268,-2.7243,-2.676,-2.6508,-2.6508,-2.6645,-2.6688,-2.6688,-2.6918,-2.6652,-2.614,-2.6114,-2.6115,-2.595,-2.4813,-2.4788,-2.5223,-2.4696,-2.4509,-2.4624,-2.5245,-2.5911,-2.6637,-2.7336,-2.7446,-2.7446,-2.7665,-2.7442,-2.713,-2.6788,-2.663,-2.6683,-2.7284,-2.7049,-2.6666,-2.6456,-2.6534,-2.6165,-2.4713,-2.5103,-2.5405,-2.4701,0.0,0.0,0.0,0.0,0.0,0.0,-2.2263,-2.2454,-2.1754,0.0,0.0,0.0,0.0,0.0,0.0,0.0,0.0,-2.358,-2.4268,0.0,-2.5585,-2.6243,-2.6931,-2.761,-2.761,-2.761,-2.761,-2.8125,-2.8948,-2.9943,-2.9358,-2.9453,-2.9943,-2.9358,-2.9074,-2.912,-2.9074,-2.9074,-2.912,-2.912,-2.912,-2.912,-3.9094,-3.9446,-3.9722,-3.9697,-3.9697,-3.932,-3.8165,-3.7688,-3.7186,-3.6458,-3.6358,-3.6452,-3.6452,-3.6452,-3.6452,0.0,-3.5353,-3.4726,0.0,-3.3696,-3.2566,-3.1436,-3.1386,-3.0884,-2.9804,-2.9603,-2.9327,-2.8925,0.0,0.0,0.0,-2.7921,-2.7846,-2.7846,-2.767,-2.7369,-2.7017,-2.7087,-2.6861,-2.6602,-2.6602,-2.6544,-2.6342,-2.6095,-2.5881,-2.5755,-2.5506,-2.4968,-2.4423,-2.4726,-2.4209,-2.3654,-2.4245,-2.5288,-2.6353,-2.6524,-2.686,-2.7109,-2.7225,-2.6947,-2.6832,-2.751,-2.7075,-2.6693,-2.7341,-2.7108,-2.6782,-2.7018,-2.714,-2.7041,-2.6673,-2.6355,-2.5949,-2.5265,-2.4835,0.0,0.0,0.0,0.0,0.0,-2.2491,-2.2509,0.0,-2.2742,0.0,0.0,0.0,0.0,0.0,0.0,0.0,0.0,-2.4956,0.0,-2.6273,-2.6931,-2.74,-2.761,-2.761,-2.761,-2.761,-2.776,-2.8,-2.8362,-2.8636,-2.8774,-2.8821,-2.8786,-2.8652,-2.8528,-2.8222,-2.8578,-2.9224,-2.9224,-2.9435,-2.969,-3.9697,-3.9798,-3.9798,-3.9446,-3.9195,-3.8743,-3.7839,-3.7412,-3.6985,-3.6433,-3.6358,-3.6358,-3.6358,-3.6358,0.0,-3.6358,-3.5353,-3.4726,-3.4726,-3.3696,-3.2566,-3.1436,-3.1386,-3.0884,-2.9804,0.0,0.0,-2.9252,-2.9252,-2.9076,-2.8725,-2.8524,-2.8423,-2.8398,-2.8197,-2.7921,-2.757,-2.7369,-2.7092,-2.6741,-2.6609,-2.6533,-2.6483,-2.6198,-2.6072,-2.5904,-2.5781,-2.5243,-2.462,-2.477,-2.4366,-2.3828,-2.418,-2.5097,-2.6028,-2.6391,-2.6695,-2.6965,-2.7026,-2.6772,-2.6651,-2.7214,-2.703,-2.6806,-2.7315,-2.7083,-2.6928,-2.7457,-2.7453,-2.7335,-2.7306,-2.6594,-2.5716,-2.5035,-2.4505,-2.3985,-2.3481,0.0,0.0,0.0,0.0,0.0,0.0,-2.3566,0.0,0.0,0.0,0.0,0.0,0.0,0.0,-2.4552,-2.5495,0.0,-2.6602,-2.723,-2.776,-2.7949,-2.8218,-2.8338,-2.8338,-2.8338,-2.8457,-2.8697,-2.8876,-2.9056,-2.9103,-2.9034,-2.8906,-2.8738,-2.8463,-2.8785,-2.9407,-2.9407,-2.9633,-2.9855,-3.9647,-3.922,0.0,0.0,-3.8316,0.0,-3.7211,-3.7136,-3.6935,-3.6433,-3.6358,-3.6358,-3.6358,-3.6358,-3.6332,-3.6307,0.0,0.0,0.0,-3.3696,-3.2591,-3.1486,-3.1411,-3.0909,-2.988,-2.9804,-2.9804,-2.9804,-2.9804,-2.9804,-2.9779,-2.9252,-2.8976,-2.8976,-2.8448,-2.8197,-2.8122,-2.762,-2.7344,-2.7243,-2.6785,-2.6559,-2.6533,-2.6533,-2.6533,-2.6458,-2.5837,-2.5636,-2.5511,-2.5034,-2.4858,-2.4833,-2.4858,-2.5209,-2.5785,-2.6544,-2.679,-2.6816,-2.7008,-2.681,-2.6478,-2.6259,-2.6593,-2.6991,-2.7148,-2.6998,-2.7032,-2.7623,-2.7446,-2.7143,-2.6928,-2.595,-2.4963,-2.4317,-2.3687,-2.3304,-2.329,0.0,0.0,0.0,0.0,0.0,0.0,-2.4164,-2.4283,0.0,0.0,0.0,0.0,0.0,-2.5465,-2.4672,-2.5944,-2.6632,-2.6722,-2.735,-2.7979,-2.8667,-2.9295,-2.9594,-2.9594,-2.9594,-2.9894,-3.0402,-2.9894,-2.9953,-3.0402,-2.9864,-2.9624,-2.9594,-2.9594,-2.9594,-2.9654,-2.9654,-2.9654,-2.9654,0.0,0.0,-3.8592,-3.7739,-3.7462,-3.7186,-3.6634,-3.6558,-3.6508,-3.6383,-3.6358,-3.6358,-3.6358,-3.6358,-3.6182,-3.578,-3.5127,-3.4726,-3.4726,-3.3696,-3.2767,-3.2039,-3.1612,-3.1085,-3.0432,-3.0005,-2.9804,-2.9804,-2.9804,-2.9804,-2.9804,-2.9654,-2.9578,-2.9578,-2.9453,-2.9151,-2.8725,-2.8599,-2.8047,-2.7268,-2.7143,-2.6841,-2.6533,-2.6533,-2.6533,-2.6508,-2.6382,-2.5963,-2.5586,-2.546,-2.5159,-2.4883,-2.5285,-2.5485,-2.5652,-2.5851,-2.6222,-2.6578,-2.6646,-2.637,-2.6233,-2.6948,-2.7061,-2.6863,-2.6776,-2.6532,-2.6418,-2.6941,-2.6958,-2.6801,-2.6469,-2.5621,-2.4782,-2.4283,-2.3676,-2.326,-2.3157,-2.3157,0.0,0.0,-2.3981,-2.4187,-2.4891,-2.4532,-2.471,0.0,0.0,0.0,0.0,-2.6941,-2.7011,-2.5435,-2.6153,-2.7081,-2.8128,-2.8278,-2.8697,-2.9355,-2.9505,-2.9594,-2.9594,-2.9594,-2.9654,-2.9834,-3.0133,-3.0103,-2.9834,-3.0163,-3.0013,-2.9594,-2.9594,-2.9864,-3.0283,-3.0283,-3.0283,-3.0283,-3.9346,-3.8818,-3.8291,-3.7663,-3.7136,-3.6709,-3.6408,-3.6358,-3.6358,-3.6358,-3.6358,-3.6358,-3.6358,-3.6358,-3.6232,-3.5956,-3.5177,-3.4625,-3.4349,-3.3545,-3.2817,-3.224,-3.1687,-3.116,-3.0633,-3.008,-2.9804,-2.9804,-2.9804,-2.9804,-2.9804,-2.9804,-2.9804,-2.9804,-2.9804,-2.9628,-2.9302,-2.9051,-2.8574,-2.7996,-2.7494,-2.7243,-2.7193,-2.6942,-2.6841,-2.6841,-2.6841,-2.664,-2.6364,-2.6364,-2.6339,-2.6364,-2.6666,-2.6741,-2.6741,-2.6741,-2.6615,-2.6533,-2.6533,-2.6375,-2.64,-2.7285,-2.7311,-2.7063,-2.6982,-2.685,-2.6786,-2.704,-2.6924,-2.6728,-2.6794,-2.5575,-2.4468,-2.4474,-2.3348,-2.2586,-2.2933,-2.2797,0.0,-2.4036,-2.4078,-2.4458,-2.5686,-2.557,-2.5717,-2.6278,0.0,0.0,-2.6238,-2.7764,-2.7988,-2.6475,-2.7419,-2.8308,-2.9056,-2.9325,-2.9654,-3.0013,-3.0313,-3.0462,-3.0462,-3.0462,-3.0462,-3.0492,-3.0821,-3.0791,-3.0492,-3.0821,-3.0761,-3.0462,-3.0462,-3.0672,-3.0971,-3.0971,-3.0971,-3.0971,-3.9672,-3.8793,-3.809,-3.7914,-3.7111,-3.6458,-3.6383,-3.6358,-3.6358,-3.6358,-3.6358,-3.6358,-3.6358,-3.6358,-3.6332,-3.6232,-3.5303,-3.4525,-3.4048,-3.342,-3.2867,-3.2365,-3.1738,-3.1185,-3.0733,-3.0105,-2.9804,-2.9804,-2.9804,-2.9804,-2.9804,-2.9804,-2.9804,-2.9804,-2.9804,-2.9804,-2.9754,-2.9277,-2.9001,-2.885,-2.7921,-2.777,-2.8047,-2.7595,-2.7394,-2.7394,-2.7394,-2.7394,-2.7394,-2.7394,-2.772,-2.8097,-2.8097,-2.8097,-2.8097,-2.8097,-2.7444,-2.6716,-2.6716,-2.6716,-2.6898,-2.742,-2.7506,-2.7455,-2.7488,-2.7504,-2.7488,-2.7426,-2.7076,-2.681,-2.722,-2.5539,-2.4258,-2.4584,-2.3045,-2.2042,-2.2826,0.0,-2.2914,-2.4094,-2.4221,-2.482,-2.6482,-2.6909,-2.7003,-2.6777,-2.8101,-2.8277,0.0,-2.8307,-2.8744,-2.7839,-2.8919,-2.957,-2.966,-3.0287,-3.0615,-3.0615,-3.1183,-3.1482,-3.1482,-3.1482,-3.1482,-3.1482,-3.1482,-3.1482,-3.1482,-3.1482,-3.1482,-3.1482,-3.1482,-3.1482,-3.1482,-3.1482,-3.1482,-3.1482,-3.912,-3.8868,-3.8442,-3.7487,-3.7161,-3.6885,-3.6433,-3.6358,-3.6358,-3.6358,-3.6358,-3.6358,-3.6358,-3.6358,-3.6182,-3.5705,-3.5077,-3.4675,-3.46,-3.3646,-3.3043,-3.2943,-3.1938,-3.1361,-3.126,-3.0306,-2.9804,-2.9804,-2.9804,-2.9804,-2.9804,-2.9804,-2.9804,-2.9804,-2.9804,-2.9804,-2.9779,-2.9704,-2.9377,-2.8925,-2.875,-2.8448,-2.8097,-2.8021,-2.7971,-2.7971,-2.7971,-2.7971,-2.7971,-2.7971,-2.8021,-2.8097,-2.8097,-2.8097,-2.8097,-2.8097,-2.7971,-2.7846,-2.7846,-2.7846,-2.7846,-2.799,-2.7968,-2.7821,-2.741,-2.7637,-2.7864,-2.7455,-2.7297,-2.696,-2.607,-2.5226,-2.4465,-2.4084,-2.3742,-2.3386,-2.3029,0.0,-2.3912,-2.4765,-2.5279,-2.6343,-2.8294,-2.7948,-2.8039,-2.9168,-2.8414,-2.8272,-2.9057,-2.9491,-2.9693,-2.9545,-2.9304,-2.9448,-3.0009,-3.0802,-3.1187,-3.1187,-3.1422,-3.1482,-3.1482,-3.1482,-3.1482,-3.1482,-3.1482,-3.1482,-3.1482,-3.1482,-3.1482,-3.1482,-3.1482,-3.1482,-3.1482,-3.1482,-3.1482,-3.1482,-3.9873,-3.927,-3.8693,-3.8191,-3.7588,-3.7111,-3.6835,-3.6558,-3.6358,-3.6358,-3.6358,-3.6358,-3.6358,-3.6358,-3.6257,-3.6006,-3.5203,-3.4726,-3.4726,-3.3696,-3.3068,-3.3068,-3.1989,-3.111,-3.0532,-3.0055,-2.9804,-2.9804,-2.9804,-2.9804,-2.9804,-2.9804,-2.9804,-2.9804,-2.9804,-2.9804,-2.9804,-2.9804,-2.9628,-2.9377,-2.9051,-2.8976,-2.8976,-2.8674,-2.8549,-2.8549,-2.8549,-2.8549,-2.8549,-2.8549,-2.875,-2.9026,-2.9026,-2.9026,-2.9026,-2.9026,-2.8574,-2.8097,-2.8097,-2.8097,-2.8097,-2.8097,-2.8323,-2.8398,-2.7846,-2.8147,-2.8398,-2.7846,-2.772,-2.7469,-2.6666,-2.5557,-2.4847,-2.5185,-2.3795,0.0,0.0,-2.3823,-2.3933,-2.5217,-2.5911,-2.6976,-2.8568,-2.8742,-2.9,-2.961,-2.9464,-2.9377,-2.961,-3.0017,-3.025,-3.025,-3.022,-3.0336,-3.0631,-3.0984,-3.119,-3.119,-3.1249,-3.1307,-3.1394,-3.1394,-3.1424,-3.1482,-3.1482,-3.1482,-3.1482,-3.1482,-3.1482,-3.1482,-3.1482,-3.1482,-3.1482,-3.1482,-3.1482,-3.1482,-4.0425,-3.9647,-3.8969,-3.8718,-3.8065,-3.7437,-3.7061,-3.6734,-3.6508,-3.6383,-3.6358,-3.6358,-3.6358,-3.6358,-3.6358,-3.6358,-3.5479,-3.4851,-3.4726,-3.3796,-3.3219,-3.3093,-3.1989,-3.1009,-3.0181,-2.993,-2.9854,-2.998,-2.9854,-2.9804,-2.9804,-2.9804,-2.9804,-2.9804,-2.9804,-2.9804,-2.9804,-2.9804,-2.9804,-2.9754,-2.9302,-2.9402,-2.9754,-2.9302,-2.9126,-2.9126,-2.9126,-2.9126,-2.9126,-2.9126,-2.9428,-2.9804,-2.9804,-2.9804,-2.9804,-2.9804,-2.9176,-2.8499,-2.8499,-2.8499,-2.8499,-2.8499,-2.8825,-2.8976,-2.8423,-2.8725,-2.8976,-2.8423,-2.8298,-2.8122,-2.757,-2.6339,-2.5618,-2.6268,0.0,0.0,0.0,-2.4674,-2.455,-2.5795,-2.6521,-2.7317,-2.8441,-2.922,-2.9606,-2.9606,-3.0247,-3.0364,-2.9871,-3.0306,-3.0568,-3.0568,-3.0836,-3.0955,-3.0955,-3.1014,-3.1102,-3.1249,-3.1309,-3.1427,-3.1664,-3.1516,-3.1515,-3.1574,-3.1483,-3.1424,-3.1424,-3.1482,-3.1482,-3.1482,-3.1482,-3.1482,-3.1482,-3.1482,-3.1482,-3.1482,-3.9873,-3.9697,-3.9295,-3.8241,-3.8442,-3.8216,-3.6659,-3.6835,-3.6935,-3.6433,-3.6358,-3.6358,-3.6358,-3.6358,-3.6358,-3.6358,-3.583,-3.5278,-3.4751,-3.4173,-3.3621,-3.3093,-3.1989,-3.1361,-3.126,-3.0306,-3.003,-3.0557,-3.003,-2.9804,-2.9804,-2.9804,-2.9804,-2.9804,-2.9804,-2.9804,-2.9804,-2.9804,-2.9804,-2.9804,-2.9754,-2.9754,-2.9779,-2.9754,-2.9729,-2.9729,-2.9729,-2.9729,-2.9729,-2.9729,-2.9754,-2.9804,-2.9804,-2.9804,-2.9804,-2.9804,-2.9729,-2.9654,-2.9654,-2.9654,-2.9654,-2.9654,-2.9704,-2.9578,-2.9001,-2.9302,-2.9578,-2.8976,-2.8875,-2.8699,-2.8147,-2.7519,-2.6942,-2.6533,0.0,0.0,-2.5734,-2.6462,-2.6961,-2.6684,-2.7105,-2.7709,-2.8438,-2.9164,-2.9628,-2.9628,-3.0237,-3.0539,-3.051,-3.0539,-3.0568,-3.0568,-3.0628,-3.0628,-3.0628,-3.0776,-3.1128,-3.1775,-3.1836,-3.2281,-3.2842,-3.2252,-3.1957,-3.1928,-3.1486,-3.1249,-3.1132,-3.1424,-3.1424,-3.1336,-3.1482,-3.1482,-3.1482,-3.1336,-3.1278,-3.1278,-4.03,-3.9923,-3.9446,-3.8668,-3.8442,-3.8015,-3.701,-3.6759,-3.6609,-3.6383,-3.6358,-3.6358,-3.6358,-3.6358,-3.6358,-3.6358,-3.5855,-3.5454,-3.5253,-3.4399,-3.3495,-3.2591,-3.2139,-3.1738,-3.1411,-3.0683,-3.0407,-3.0608,-3.0055,-2.9804,-2.9804,-2.9804,-2.9804,-2.9804,-2.9804,-2.9804,-2.9804,-2.9804,-2.9804,-2.9804,-2.9804,-2.9804,-2.9804,-2.9804,-2.9804,-2.9804,-2.9804,-2.9804,-2.9804,-2.9804,-2.9804,-2.9804,-2.9804,-2.9804,-2.9804,-2.9804,-2.9804,-2.9804,-2.9804,-2.9804,-2.9804,-2.9804,-2.9804,-2.9729,-2.9528,-2.9628,-2.9729,-2.9503,-2.9478,-2.9302,-2.8725,-2.8172,-2.7846,-2.7971,0.0,-2.7018,-2.7544,-2.748,-2.7436,-2.7538,-2.7825,-2.8219,-2.8834,-2.9673,-3.0291,-3.0592,-3.0979,-3.1148,-3.1148,-3.0771,-3.0568,-3.0568,-3.0945,-3.0974,-3.0568,-3.0628,-3.1008,-3.1587,-3.1649,-3.2061,-3.2801,-3.2566,-3.2511,-3.2635,-3.2431,-3.2374,-3.2374,-3.2435,-3.2227,-3.1931,-3.1842,-3.1664,-3.1395,-3.1634,-3.1516,-3.1337,-4.04,-3.9948,-3.9471,-3.8718,-3.8417,-3.7965,-3.7061,-3.6759,-3.6558,-3.6383,-3.6358,-3.6358,-3.6358,-3.6358,-3.6358,-3.6358,-3.6006,-3.573,-3.5554,-3.45,-3.347,-3.2516,-3.2315,-3.2114,-3.1913,-3.121,-3.0859,-3.0859,-3.0482,-3.0131,-2.9804,-2.998,-2.9955,-2.9804,-2.9804,-2.9804,-2.9804,-2.9804,-2.9804,-2.9804,-2.9804,-2.9804,-2.9804,-2.9804,-2.9804,-2.9804,-2.9804,-2.9804,-2.9804,-2.9804,-2.9804,-2.9829,-3.0005,-3.0055,-3.0005,-2.9854,-2.9804,-2.9804,-2.9804,-2.9804,-2.9804,-2.9804,-2.9804,-2.9804,-2.9804,-2.9804,-2.9804,-2.9804,-2.9804,-2.9679,-2.9277,-2.89,-2.8699,-2.89,-2.8122,-2.7846,-2.88,-2.8423,-2.8147,-2.8348,-2.8431,-2.8563,-2.8769,-2.959,-3.0184,-3.0596,-3.0954,-3.1161,-3.1235,-3.1003,-3.0858,-3.0858,-3.1293,-3.1409,-3.1177,-3.1177,-3.1409,-3.1845,-3.2048,-3.2547,-3.3223,-3.3019,-3.3059,-3.3187,-3.2952,-3.2926,-3.2989,-3.2989,-3.2753,-3.2402,-3.234,-3.1988,-3.1545,-3.1808,-3.1633,-3.1191,-3.9898,-3.9697,-3.9346,-3.8191,-3.8492,-3.8291,-3.6609,-3.6835,-3.6985,-3.6433,-3.6358,-3.6358,-3.6358,-3.6358,-3.6358,-3.6358,-3.6358,-3.6132,-3.5579,-3.45,-3.3646,-3.3119,-3.2541,-3.2491,-3.3068,-3.1964,-3.1411,-3.1411,-3.1386,-3.0859,-2.9804,-3.0357,-3.0331,-2.9804,-2.9804,-2.9804,-2.9804,-2.9804,-2.9804,-2.9804,-2.9804,-2.9804,-2.9804,-2.9804,-2.9804,-2.9804,-2.9804,-2.9804,-2.9804,-2.9804,-2.9804,-2.988,-3.0432,-3.0608,-3.0507,-2.9955,-2.9804,-2.9804,-2.9804,-2.9804,-2.9804,-2.9804,-2.9804,-2.9804,-2.9804,-2.9804,-2.9804,-2.9804,-2.9804,-2.9804,-2.9804,-2.9804,-2.9603,-2.9026,-2.9428,-2.9603,-2.9026,-2.9428,-2.9578,-2.9001,-2.8925,-2.8725,-2.8172,-2.8723,-2.9125,-2.9125,-2.9901,-3.0488,-3.0626,-3.1177,-3.1464,-3.1464,-3.1464,-3.1845,-3.2513,-3.2513,-3.2513,-3.2542,-3.318,-3.379,-3.4399,-3.3761,-3.347,-3.3507,-3.2966,-3.264,-3.2542,-3.2893,-3.2893,-3.2737,-3.2956,-3.2606,-3.1985,-3.1863,-3.1392,-3.0836,-3.9848,-3.9371,-3.8868,-3.814,-3.7839,-3.7387,-3.6483,-3.6508,-3.6558,-3.6383,-3.6358,-3.6358,-3.6358,-3.6358,-3.6358,-3.6358,-3.6358,-3.6132,-3.5579,-3.45,-3.3822,-3.3671,-3.3119,-3.2893,-3.3068,-3.234,-3.1964,-3.1964,-3.1587,-3.1235,-3.0909,-3.1085,-3.106,-3.0909,-3.0532,-3.0357,-3.0357,-2.9955,-2.9804,-2.9804,-2.9804,-2.9804,-2.9804,-2.9804,-2.9804,-2.9854,-3.0231,-3.0131,-2.9854,-3.0231,-3.0105,-2.988,-3.0432,-3.0859,-3.106,-3.0532,-3.0357,-3.0281,-2.9905,-2.9804,-2.9804,-2.9804,-2.9804,-2.9804,-2.9804,-2.9804,-2.9804,-2.9804,-2.9804,-2.9804,-2.9804,-2.9804,-2.9729,-2.9553,-2.9679,-2.9729,-2.9553,-2.9679,-2.9729,-2.9553,-2.9176,-2.9026,-2.9277,-2.9571,-2.998,-3.0346,-3.0707,-3.076,-3.0356,-3.0494,-3.0577,-3.0577,-3.0991,-3.1372,-3.1678,-3.2227,-3.2745,-3.318,-3.3383,-3.379,-3.4399,-3.4225,-3.4138,-3.4109,-3.4002,-3.3981,-3.4047,-3.3981,-3.3755,-3.341,-3.3375,-3.2767,-3.1892,-3.2174,-3.1649,-3.0835,-3.9798,-3.9421,-3.9019,-3.8442,-3.7889,-3.7337,-3.6784,-3.6508,-3.6358,-3.6358,-3.6358,-3.6358,-3.6358,-3.6358,-3.6358,-3.6358,-3.6358,-3.6132,-3.5579,-3.4726,-3.4123,-3.3897,-3.337,-3.3068,-3.3068,-3.2742,-3.2441,-3.2215,-3.2114,-3.1838,-3.1386,-3.1612,-3.1587,-3.1386,-3.106,-3.0934,-3.0909,-3.0557,-3.0432,-3.0407,-3.0206,-3.0131,-3.0131,-3.0131,-2.998,-2.9854,-3.0407,-3.0407,-3.0181,-3.0507,-3.0683,-3.0758,-3.0884,-3.1286,-3.1612,-3.1085,-3.0934,-3.0809,-3.0256,-3.0131,-3.0055,-2.9854,-2.9804,-2.9804,-2.9804,-2.9804,-2.9804,-2.9804,-2.9804,-2.9804,-2.9804,-2.9804,-2.9804,-2.9804,-2.9804,-2.9804,-2.9804,-2.9804,-2.9804,-2.9804,-2.9478,-2.9402,-2.9754,-2.991,-3.0106,-3.0507,-3.0818,-3.0753,-3.0227,-3.0389,-3.0524,-3.0524,-3.0945,-3.1264,-3.164,-3.2415,-3.3033,-3.347,-3.3732,-3.4051,-3.4399,-3.4399,-3.4399,-3.4399,-3.4399,-3.4496,-3.4563,-3.4496,-3.4089,-3.3638,-3.3536,-3.2722,-3.1707,-3.1961,-3.1529,-3.0746,-3.9798,-3.9647,-3.9471,-3.8969,-3.8391,-3.7814,-3.7262,-3.6759,-3.6408,-3.6358,-3.6358,-3.6358,-3.6358,-3.6358,-3.6358,-3.6358,-3.6307,-3.6107,-3.5655,-3.5052,-3.45,-3.3997,-3.3445,-3.3144,-3.3144,-3.3093,-3.2817,-3.229,-3.2867,-3.2591,-3.1537,-3.2114,-3.2064,-3.1537,-3.1486,-3.1461,-3.1461,-3.1411,-3.1386,-3.1361,-3.0884,-3.0683,-3.0683,-3.0683,-3.0382,-3.0005,-3.0557,-3.0733,-3.0683,-3.0683,-3.1361,-3.2114,-3.1612,-3.1838,-3.219,-3.1637,-3.1461,-3.1361,-3.0834,-3.0683,-3.0557,-3.0055,-2.993,-2.9905,-2.9804,-2.9804,-2.9804,-2.9804,-2.9804,-2.9804,-2.9804,-2.9804,-2.9804,-2.9804,-2.9804,-2.9804,-2.9804,-2.9804,-2.9804,-2.9804,-2.9804,-2.9804,-2.9804,-2.9804,-2.9859,-2.9995,-3.0485,-3.0598,-3.018,-3.0707,-3.1003,-3.1003,-3.1003,-3.1317,-3.2001,-3.2648,-3.3168,-3.3492,-3.4138,-3.4399,-3.4399,-3.4399,-3.4399,-3.4399,-3.4399,-3.4399,-3.4399,-3.4399,-3.4022,-3.347,-3.347,-3.2716,-3.1584,-3.1526,-3.1148,-3.0655,-3.9722,-3.9346,-3.9019,-3.8894,-3.8391,-3.7814,-3.7262,-3.7086,-3.686,-3.6408,-3.6358,-3.6358,-3.6358,-3.6358,-3.6358,-3.6358,-3.5981,-3.5855,-3.6157,-3.5253,-3.4675,-3.455,-3.4022,-3.3721,-3.3721,-3.3294,-3.3018,-3.2893,-3.3445,-3.337,-3.2717,-3.3269,-3.3244,-3.2692,-3.224,-3.2039,-3.2014,-3.1562,-3.1386,-3.1386,-3.126,-3.121,-3.121,-3.121,-3.1135,-3.111,-3.1662,-3.1587,-3.121,-3.121,-3.1662,-3.219,-3.2064,-3.2416,-3.2767,-3.2215,-3.2039,-3.1913,-3.1361,-3.121,-3.1185,-3.106,-3.1035,-3.0834,-2.998,-2.9804,-2.9804,-2.9804,-2.9804,-2.9804,-2.9804,-2.9804,-2.9804,-2.9804,-2.9804,-2.9804,-2.9804,-2.9804,-2.9804,-2.9804,-2.9804,-2.9804,-2.9804,-2.9804,-2.9806,-2.9834,-2.9935,-2.9961,-2.9859,-2.9986,-3.0113,-3.0113,-3.0113,-3.0441,-3.1119,-3.1341,-3.1992,-3.3253,-3.4041,-3.4399,-3.4399,-3.4399,-3.4399,-3.4399,-3.4399,-3.4399,-3.4399,-3.4399,-3.4022,-3.347,-3.347,-3.2977,-3.2251,-3.17,-3.1438,-3.1235,-3.9697,-3.9471,-3.927,-3.927,-3.8793,-3.8316,-3.804,-3.7764,-3.7387,-3.6835,-3.6759,-3.6659,-3.6383,-3.6358,-3.6358,-3.6358,-3.6107,-3.6056,-3.6332,-3.5579,-3.5127,-3.5127,-3.4575,-3.4299,-3.4299,-3.3997,-3.3746,-3.347,-3.3495,-3.3345,-3.3093,-3.337,-3.3345,-3.3068,-3.2767,-3.2616,-3.2591,-3.2315,-3.219,-3.2164,-3.1888,-3.1788,-3.1788,-3.1788,-3.1612,-3.1461,-3.2014,-3.2014,-3.1838,-3.2089,-3.239,-3.2616,-3.2616,-3.2842,-3.3018,-3.2717,-3.2616,-3.2491,-3.1938,-3.1788,-3.1712,-3.1461,-3.1386,-3.1235,-3.0683,-3.0557,-3.0557,-3.0557,-3.0557,-3.0482,-3.0231,-3.0181,-3.0105,-2.9829,-2.9804,-2.9804,-2.9804,-2.9804,-2.9804,-2.9804,-2.9804,-2.9804,-2.9804,-2.9804,-2.9804,-2.9804,-2.9804,-2.9804,-2.9804,-2.9804,-2.9804,-2.9804,-2.9804,-3.0011,-3.0343,-3.0745,-3.1315,-3.2119,-3.3311,-3.4031,-3.4399,-3.4399,-3.4399,-3.4399,-3.4399,-3.4399,-3.4399,-3.4399,-3.3848,-3.3006,-3.3006,-3.2425,-3.1555,-3.1206,-3.1061,-3.1032,-3.9697,-3.9697,-3.9697,-3.9697,-3.932,-3.8969,-3.8894,-3.8467,-3.7965,-3.7387,-3.7236,-3.701,-3.6558,-3.6408,-3.6358,-3.6358,-3.6358,-3.6358,-3.6358,-3.5931,-3.5655,-3.5554,-3.5102,-3.4876,-3.4876,-3.4776,-3.45,-3.4048,-3.3571,-3.3319,-3.3219,-3.3219,-3.3169,-3.3068,-3.3068,-3.3068,-3.3068,-3.3068,-3.3068,-3.3043,-3.2541,-3.2365,-3.2365,-3.2365,-3.2089,-3.1738,-3.219,-3.2365,-3.2441,-3.2918,-3.3068,-3.3068,-3.3068,-3.3068,-3.3093,-3.3194,-3.3144,-3.2993,-3.2616,-3.2441,-3.2265,-3.1788,-3.1687,-3.1687,-3.1687,-3.1537,-3.1386,-3.1386,-3.1386,-3.126,-3.0834,-3.0758,-3.0608,-3.0156,-3.0005,-2.993,-2.993,-2.9854,-2.9804,-2.9804,-2.9804,-2.9804,-2.9804,-2.9804,-2.9804,-2.9804,-2.9804,-2.9804,-2.9804,-2.9804,-2.9804,-2.9804,-2.9804,-2.9804,-2.9804,-3.0419,-3.0745,-3.0895,-3.2191,-3.3241,-3.3962,-3.4128,-3.4128,-3.3962,-3.4128,-3.4128,-3.4059,-3.4128,-3.3446,-3.232,-3.2449,-3.1787,-3.0742,-3.0742,-3.0655,-3.0597,-3.9697,-3.9697,-3.9697,-3.9697,-3.9647,-3.9421,-3.8944,-3.8793,-3.8542,-3.7965,-3.7487,-3.7161,-3.7086,-3.6659,-3.6358,-3.6358,-3.6358,-3.6358,-3.6358,-3.6282,-3.6031,-3.5554,-3.5479,-3.5429,-3.5429,-3.4977,-3.4675,-3.46,-3.4525,-3.4248,-3.3796,-3.3796,-3.3545,-3.3068,-3.3068,-3.3068,-3.3068,-3.3068,-3.3068,-3.3068,-3.2993,-3.2968,-3.2968,-3.2968,-3.2918,-3.2867,-3.2943,-3.2968,-3.2968,-3.3043,-3.3068,-3.3068,-3.3068,-3.3068,-3.3169,-3.3646,-3.3445,-3.3169,-3.3571,-3.3319,-3.2943,-3.2867,-3.2842,-3.2842,-3.2842,-3.2089,-3.1386,-3.1386,-3.1386,-3.1361,-3.1311,-3.1286,-3.126,-3.1185,-3.0809,-3.0507,-3.0507,-3.0105,-2.9804,-2.9804,-2.9804,-2.9804,-2.9804,-2.9804,-2.9804,-2.9804,-2.9804,-2.9804,-2.9804,-2.9804,-2.9804,-2.9804,-2.9804,-2.9804,-2.9804,-2.9934,-3.0266,-3.0895,-3.1119,-3.1636,-3.2434,-3.3073,-3.3003,-3.2434,-3.3101,-3.3003,-3.2434,-3.3073,-3.2647,-3.1547,-3.2227,-3.2048,-3.138,-3.138,-3.1032,-3.0655,-3.9697,-3.9697,-3.9697,-3.9697,-3.9697,-3.9622,-3.9371,-3.932,-3.912,-3.8567,-3.8266,-3.799,-3.7688,-3.7161,-3.6709,-3.6383,-3.6358,-3.6358,-3.6358,-3.6358,-3.6257,-3.6006,-3.6006,-3.6006,-3.6006,-3.5755,-3.5629,-3.5629,-3.47,-3.4148,-3.3897,-3.3596,-3.3319,-3.3093,-3.3395,-3.337,-3.3119,-3.3746,-3.3646,-3.3093,-3.342,-3.3345,-3.3068,-3.3068,-3.3269,-3.3571,-3.3897,-3.3997,-3.3997,-3.3997,-3.3796,-3.3596,-3.3897,-3.3796,-3.3646,-3.4198,-3.4198,-3.4048,-3.4299,-3.4173,-3.3922,-3.3621,-3.3545,-3.3445,-3.3144,-3.2692,-3.234,-3.234,-3.234,-3.224,-3.1913,-3.1863,-3.1763,-3.1436,-3.121,-3.106,-3.106,-3.0834,-3.0583,-3.0281,-3.0256,-3.0131,-2.9829,-2.9804,-2.9804,-2.9804,-2.9804,-2.9804,-2.9804,-2.9804,-2.9804,-2.9804,-2.9804,-2.9804,-2.9804,-2.9804,-2.9934,-3.0266,-3.0266,-3.0921,-3.2074,-3.2434,-3.2434,-3.2146,-3.2434,-3.2362,-3.2119,-3.2148,-3.1557,-3.0758,-3.0825,-3.0841,-3.0997,-3.1401,-3.1584,-3.1642]},{"header":{"parameterUnit":"m.s-1","parameterCategory":1,"la1":30.6,"la2":28.766,"lo1":-90.7593,"lo2":-88.6598,"dy":0.0162,"dx":0.0183,"nx":116,"ny":114,"refTime":"2024-04-30T06:00:00:Z","depth":0,"parameterNumber":3,"parameterNumberName":"V-component_of_WINDS"},"data":[0.0,0.0,0.0,0.0,0.0,0.0,0.0,0.0,0.0,0.0,0.0,0.0,0.0,0.0,0.0,0.0,0.0,0.0,0.0,0.0,0.0,0.0,0.0,0.0,0.0,0.0,0.0,0.0,0.0,0.0,0.0,0.0,0.0,0.0,0.0,0.0,0.0,0.0,0.0,0.0,0.0,0.0,0.0,0.0,0.0,0.0,0.0,0.0,0.0,0.0,0.0,0.0,0.0,0.0,0.0,0.0,0.0,0.0,0.0,0.0,0.0,0.0,0.0,0.0,0.0,0.0,0.0,0.0,0.0,0.0,0.0,0.0,0.0,0.0,0.0,0.0,0.0,0.0,0.0,0.0,0.0,0.0,0.0,0.0,0.0,0.0,0.0,0.0,0.0,0.0,0.0,0.0,0.0,0.0,0.0,0.0,0.0,0.0,0.0,0.0,0.0,0.0,0.0,0.0,0.0,0.0,0.0,0.0,0.0,0.0,0.0,0.0,0.0,0.0,0.0,0.0,0.0,0.0,0.0,0.0,0.0,0.0,0.0,0.0,0.0,0.0,0.0,0.0,0.0,0.0,0.0,0.0,0.0,0.0,0.0,0.0,0.0,0.0,0.0,0.0,0.0,0.0,0.0,0.0,0.0,0.0,0.0,0.0,0.0,0.0,0.0,0.0,0.0,0.0,0.0,0.0,0.0,0.0,0.0,0.0,0.0,0.0,0.0,0.0,0.0,0.0,0.0,0.0,0.0,0.0,0.0,0.0,0.0,0.0,0.0,0.0,0.0,0.0,0.0,0.0,0.0,0.0,0.0,0.0,0.0,0.0,0.0,0.0,0.0,0.0,0.0,0.0,0.0,0.0,0.0,0.0,0.0,0.0,0.0,0.0,0.0,0.0,0.0,0.0,0.0,0.0,0.0,0.0,0.0,0.0,0.0,0.0,0.0,0.0,0.0,0.0,0.0,0.0,0.0,0.0,0.0,0.0,0.0,0.0,0.0,0.0,0.0,0.0,0.0,0.0,0.0,0.0,0.0,0.0,0.0,0.0,0.0,0.0,0.0,0.0,0.0,0.0,0.0,0.0,0.0,0.0,0.0,0.0,0.0,0.0,0.0,0.0,0.0,0.0,0.0,0.0,0.0,0.0,0.0,0.0,0.0,0.0,0.0,0.0,0.0,0.0,0.0,0.0,0.0,0.0,0.0,0.0,0.0,0.0,0.0,0.0,0.0,0.0,0.0,0.0,0.0,0.0,0.0,0.0,0.0,0.0,0.0,0.0,0.0,0.0,0.0,0.0,0.0,0.0,0.0,0.0,0.0,0.0,0.0,0.0,0.0,0.0,0.0,0.0,0.0,0.0,0.0,0.0,0.0,0.0,0.0,0.0,0.0,0.0,0.0,0.0,0.0,0.0,0.0,0.0,0.0,0.0,0.0,0.0,0.0,0.0,0.0,0.0,0.0,0.0,0.0,0.0,0.0,0.0,0.0,0.0,0.0,0.0,0.0,0.0,0.0,0.0,0.0,0.0,0.0,0.0,0.0,0.0,0.0,0.0,0.0,0.0,0.0,0.0,0.0,0.0,0.0,0.0,0.0,0.0,0.0,0.0,0.0,0.0,0.0,0.0,0.0,0.0,0.0,0.0,0.0,0.0,0.0,0.0,0.0,0.0,0.0,0.0,0.0,0.0,0.0,0.0,0.0,0.0,0.0,0.0,0.0,0.0,0.0,0.0,0.0,0.0,0.0,0.0,0.0,0.0,0.0,0.0,0.0,0.0,0.0,0.0,0.0,0.0,0.0,0.0,0.0,0.0,0.0,0.0,0.0,0.0,0.0,0.0,0.0,0.0,0.0,0.0,0.0,0.0,0.0,0.0,0.0,0.0,0.0,0.0,0.0,0.0,0.0,0.0,0.0,0.0,0.0,0.0,0.0,0.0,0.0,0.0,0.0,0.0,0.0,0.0,0.0,0.0,0.0,0.0,0.0,0.0,0.0,0.0,0.0,0.0,0.0,0.0,0.0,0.0,0.0,0.0,0.0,0.0,0.0,0.0,0.0,0.0,0.0,0.0,0.0,0.0,0.0,0.0,0.0,0.0,0.0,0.0,0.0,0.0,0.0,0.0,0.0,0.0,0.0,0.0,0.0,0.0,0.0,0.0,0.0,0.0,0.0,0.0,0.0,0.0,0.0,0.0,0.0,0.0,0.0,0.0,0.0,0.0,0.0,0.0,0.0,0.0,0.0,0.0,0.0,0.0,0.0,0.0,0.0,0.0,0.0,0.0,0.0,0.0,0.0,0.0,0.0,0.0,0.0,0.0,0.0,0.0,0.0,0.0,0.0,0.0,0.0,0.0,0.0,0.0,0.0,0.0,0.0,0.0,0.0,0.0,0.0,0.0,0.0,0.0,0.0,0.0,0.0,0.0,0.0,0.0,0.0,0.0,0.0,0.0,0.0,0.0,0.0,0.0,0.0,0.0,0.0,0.0,0.0,0.0,0.0,0.0,0.0,0.0,0.0,0.0,0.0,0.0,0.0,0.0,0.0,0.0,0.0,0.0,0.0,0.0,0.0,0.0,0.0,0.0,0.0,0.0,0.0,0.0,0.0,0.0,0.0,0.0,0.0,0.0,0.0,0.0,0.0,0.0,0.0,0.0,0.0,0.0,0.0,0.0,0.0,0.0,0.0,0.0,0.0,0.0,0.0,0.0,0.0,0.0,0.0,0.0,0.0,0.0,0.0,0.0,0.0,0.0,0.0,0.0,0.0,0.0,0.0,0.0,0.0,0.0,0.0,0.0,0.0,0.0,0.0,0.0,0.0,0.0,0.0,0.0,0.0,0.0,0.0,0.0,0.0,0.0,0.0,0.0,0.0,0.0,0.0,0.0,0.0,0.0,0.0,0.0,0.0,0.0,0.0,0.0,0.0,0.0,0.0,0.0,0.0,0.0,0.0,0.0,0.0,0.0,0.0,0.0,0.0,0.0,0.0,0.0,0.0,0.0,0.0,0.0,0.0,0.0,0.0,0.0,0.0,0.0,0.0,0.0,0.0,0.0,0.0,0.0,0.0,0.0,0.0,0.0,0.0,0.0,0.0,0.0,0.0,0.0,0.0,0.0,0.0,0.0,0.0,0.0,0.0,0.0,0.0,0.0,0.0,0.0,0.0,0.0,0.0,0.0,0.0,0.0,0.0,0.0,0.0,0.0,0.0,0.0,0.0,0.0,0.0,0.0,0.0,0.0,0.0,0.0,0.0,0.0,0.0,0.0,0.0,0.0,0.0,0.0,0.0,0.0,0.0,0.0,0.0,0.0,0.0,0.0,0.0,0.0,0.0,0.0,0.0,0.0,0.0,0.0,0.0,0.0,0.0,0.0,0.0,0.0,0.0,0.0,0.0,0.0,0.0,0.0,0.0,0.0,0.0,0.0,0.0,0.0,0.0,0.0,0.0,0.0,0.0,0.0,0.0,0.0,0.0,0.0,0.0,0.0,0.0,0.0,0.0,0.0,0.0,0.0,0.0,0.0,0.0,0.0,0.0,0.0,0.0,0.0,0.0,0.0,0.0,0.0,0.0,0.0,0.0,0.0,0.0,0.0,0.0,0.0,0.0,0.0,0.0,0.0,0.0,0.0,0.0,0.0,0.0,0.0,0.0,0.0,0.0,0.0,0.0,0.0,0.0,0.0,0.0,0.0,0.0,0.0,0.0,0.0,0.0,0.0,0.0,0.0,0.0,0.0,0.0,0.0,0.0,0.0,0.0,0.0,0.0,0.0,0.0,0.0,0.0,0.0,0.0,0.0,0.0,0.0,0.0,0.0,0.0,0.0,0.0,0.0,0.0,0.0,0.0,0.0,0.0,0.0,0.0,0.0,0.0,0.0,0.0,0.0,0.0,0.0,0.0,0.0,0.0,0.0,0.0,0.0,0.0,0.0,0.0,0.0,0.0,0.0,0.0,0.0,0.0,0.0,0.0,0.0,0.0,0.0,0.0,0.0,0.0,0.0,0.0,0.0,0.0,0.0,0.0,0.0,0.0,0.0,0.0,0.0,0.0,0.0,0.0,0.0,0.0,0.0,0.0,0.0,0.0,0.0,0.0,0.0,0.0,0.0,0.0,0.0,0.0,0.0,0.0,0.0,0.0,0.0,0.0,0.0,0.0,0.0,0.0,0.0,0.0,0.0,0.0,0.0,0.0,0.0,0.0,0.0,0.0,0.0,0.0,0.0,0.0,0.0,0.0,0.0,0.0,0.0,0.0,0.0,0.0,0.0,0.0,0.0,0.0,0.0,0.0,0.0,0.0,0.0,0.0,0.0,0.0,0.0,0.0,0.0,0.0,0.0,0.0,0.0,0.0,0.0,0.0,0.0,0.0,0.0,0.0,0.0,0.0,0.0,0.0,0.0,0.0,0.0,0.0,0.0,0.0,0.0,0.0,0.0,0.0,0.0,0.0,0.0,0.0,0.0,0.0,0.0,0.0,0.0,0.0,0.0,0.0,0.0,0.0,0.0,0.0,0.0,0.0,0.0,0.0,0.0,0.0,0.0,0.0,0.0,0.0,0.0,0.0,0.0,0.0,0.0,0.0,0.0,0.0,0.0,0.0,0.0,0.0,0.0,0.0,0.0,0.0,0.0,0.0,0.0,0.0,0.0,0.0,0.0,0.0,0.0,0.0,0.0,0.0,0.0,0.0,0.0,0.0,0.0,0.0,0.0,0.0,0.0,0.0,0.0,0.0,0.0,0.0,0.0,0.0,0.0,0.0,0.0,0.0,0.0,0.0,0.0,0.0,0.0,0.0,0.0,0.0,0.0,0.0,0.0,0.0,0.0,0.0,0.0,0.0,0.0,0.0,0.0,0.0,0.0,0.0,0.0,0.0,0.0,0.0,0.0,0.0,0.0,0.0,0.0,0.0,0.0,0.0,0.0,0.0,0.0,0.0,0.0,0.0,0.0,0.0,0.0,0.0,0.0,0.0,0.0,0.0,0.0,0.0,0.0,0.0,0.0,0.0,0.0,0.0,0.0,0.0,0.0,0.0,0.0,0.0,0.0,0.0,0.0,0.0,0.0,0.0,0.0,0.0,0.0,0.0,0.0,0.0,0.0,0.0,0.0,0.0,0.0,0.0,0.0,0.0,0.0,0.0,0.0,0.0,0.0,0.0,0.0,0.0,0.0,0.0,0.0,0.0,0.0,0.0,0.0,0.0,0.0,0.0,0.0,0.0,0.0,0.0,0.0,0.0,0.0,0.0,0.0,0.0,0.0,0.0,0.0,0.0,0.0,0.0,0.0,0.0,0.0,0.0,0.0,0.0,0.0,0.0,0.0,0.0,0.0,0.0,0.0,0.0,0.0,0.0,0.0,0.0,0.0,0.0,0.0,0.0,0.0,0.0,0.0,0.0,0.0,0.0,0.0,0.0,0.0,0.0,0.0,0.0,0.0,0.0,0.0,0.0,0.0,0.0,0.0,0.0,0.0,0.0,0.0,0.0,0.0,0.0,0.0,0.0,0.0,0.0,0.0,0.0,0.0,0.0,0.0,0.0,0.0,0.0,0.0,0.0,0.0,0.0,0.0,0.0,0.0,0.0,0.0,0.0,0.0,0.0,0.0,0.0,0.0,0.0,0.0,0.0,0.0,0.0,0.0,0.0,0.0,0.0,0.0,0.0,0.0,0.0,0.0,0.0,0.0,0.0,0.0,0.0,0.0,0.0,0.0,0.0,0.0,0.0,0.0,0.0,0.0,0.0,0.0,0.0,0.0,0.0,0.0,0.0,0.0,0.0,0.0,0.0,0.0,0.0,0.0,0.0,0.0,0.0,0.0,0.0,0.0,0.0,0.0,0.0,0.0,0.0,0.0,0.0,0.0,0.0,0.0,0.0,0.0,0.0,0.0,0.0,0.0,0.0,0.0,0.0,0.0,0.0,0.0,0.0,0.0,0.0,0.0,0.0,0.0,0.0,0.0,0.0,0.0,0.0,0.0,0.0,0.0,0.0,0.0,0.0,0.0,0.0,0.0,0.0,0.0,0.0,0.0,0.0,0.0,0.0,0.0,0.0,0.0,0.0,0.0,0.0,0.0,0.0,0.0,0.0,0.0,0.0,0.0,0.0,0.0,0.0,0.0,0.2835,0.0,0.0,0.0,0.0,0.0,0.0,0.0,0.0,0.0,0.0,0.0,0.0,0.0,0.0,0.0,0.0,0.0,0.0,0.0,0.0,0.0,0.0,0.0,0.0,1.2012,1.1826,1.163,1.1783,1.1893,1.1893,0.0,0.0,0.0,0.0,0.0,1.2595,1.2595,1.2765,1.3108,1.3108,1.3475,1.4208,1.506,1.5315,1.513,0.0,0.0,0.0,0.0,0.0,0.0,0.0,0.0,0.0,0.0,0.0,0.0,0.0,0.0,0.0,0.0,0.0,0.0,0.0,0.0,0.0,0.0,0.0,0.0,0.0,0.0,0.0,0.0,0.0,0.0,0.0,0.0,0.0,0.0,0.0,0.0,0.0,0.0,0.0,0.0,0.0,0.0,0.0,0.0,0.0,0.0,0.0,0.0,0.0,0.0,0.0,0.0,0.0,0.0,0.0,0.0,0.0,0.0,0.0,0.0,0.0,0.0,0.0,0.0,0.0,0.0,0.0,0.0,0.0,0.0,0.0,0.2628,0.0,0.0,0.0,0.0,0.0,0.0,0.0,0.0,0.0,0.0,0.0,0.0,0.0,0.0,0.0,0.0,0.0,0.0,0.0,0.0,0.0,1.2762,1.2286,1.2361,1.2299,1.1879,1.2194,1.2425,1.2425,1.251,0.0,0.0,1.2487,1.2529,1.2656,1.2656,1.2889,1.3424,1.368,1.4275,1.516,1.548,1.5365,1.4985,1.5152,0.0,0.0,0.0,0.0,0.0,0.0,0.0,0.0,0.0,0.0,0.0,0.0,0.0,0.0,0.0,0.0,0.0,0.0,0.0,0.0,0.0,0.0,0.0,0.0,0.0,0.0,0.0,0.0,0.0,0.0,0.0,0.0,0.0,0.0,0.0,0.0,0.0,0.0,0.0,0.0,0.0,0.0,0.0,0.0,0.0,0.0,0.0,0.0,0.0,0.0,0.0,0.0,0.0,0.0,0.0,0.0,0.0,0.0,0.0,0.0,0.0,0.0,0.0,0.4515,0.4221,0.42,0.3464,0.3069,0.2973,0.2564,0.2301,0.2255,0.0,0.0,0.0,0.0,0.0,0.0,0.0,0.0,0.0,0.0,0.0,0.0,0.0,0.0,0.0,0.0,0.0,0.0,0.0,0.0,1.3368,1.2784,1.2742,1.2658,1.251,1.2425,1.2425,1.2425,1.234,1.2484,1.2813,1.2834,1.3066,1.3575,1.3642,1.371,1.3935,1.5148,1.6157,1.7032,1.7493,1.7568,1.7226,1.6182,1.5714,1.5697,0.0,0.0,0.0,0.0,0.0,0.0,0.0,0.0,0.0,0.0,0.0,0.0,0.0,0.0,0.0,0.0,0.0,0.0,0.0,0.0,0.0,0.0,0.0,0.0,0.0,0.0,0.0,0.0,0.0,0.0,0.0,0.0,0.0,0.0,0.0,0.0,0.0,0.0,0.0,0.0,0.0,0.7293,0.6757,0.0,0.0,0.0,0.0,0.0,0.0,0.0,0.0,0.0,0.0,0.0,0.0,0.0,0.0,0.4432,0.4547,0.4605,0.4511,0.4696,0.4495,0.3847,0.3959,0.3802,0.3314,0.2865,0.0,0.2293,0.2263,0.0,0.0,0.0,0.0,0.0,0.0,0.0,0.0,0.0,0.0,0.0,0.0,0.0,0.0,0.0,0.0,0.0,0.0,0.0,0.0,0.0,1.3422,1.3495,1.3177,1.407,1.4291,1.3502,1.3938,1.3931,1.3331,1.331,1.3414,1.3668,1.3668,1.4237,1.5332,1.6827,1.7903,1.8762,1.9101,1.9019,1.8595,1.8127,1.7092,1.5815,1.5576,0.0,0.0,0.0,0.0,0.0,0.0,0.0,0.0,0.0,0.0,0.0,0.0,0.0,0.0,0.0,0.0,0.0,0.0,0.0,0.0,0.0,0.0,0.0,0.0,0.0,0.0,0.0,0.0,0.0,0.0,0.0,0.0,0.0,0.0,0.0,0.0,0.0,0.0,0.0,0.773,0.7358,0.66,0.6712,0.6799,0.0,0.0,0.0,0.0,0.0,0.0,0.0,0.0,0.0,0.453,0.453,0.4627,0.4768,0.4938,0.5039,0.4971,0.4768,0.4461,0.4045,0.3892,0.3677,0.3395,0.3161,0.3053,0.2852,0.2336,0.2177,0.2224,0.0,0.0,0.0,0.0,0.0,0.2394,0.0,0.0,0.0,0.0,0.0,0.0,0.0,0.0,0.0,0.0,0.0,0.0,1.3871,1.4482,1.4831,1.4676,1.5711,1.598,1.507,1.5111,1.4759,1.3828,1.3683,1.3621,1.3621,1.4076,1.5173,1.6891,1.8489,1.9698,2.0472,2.0812,2.0694,2.0163,2.0176,1.885,1.6569,1.6125,1.556,1.5023,0.0,0.0,0.0,0.0,0.0,0.0,0.0,0.0,0.0,0.0,0.0,0.0,0.0,0.0,0.0,0.0,0.0,0.0,0.0,0.0,0.0,0.0,0.0,0.0,0.0,0.0,0.0,0.0,0.0,0.0,0.0,0.0,0.0,0.0,0.0,0.0,0.0,0.7709,0.7482,0.6581,0.6838,0.6939,0.0,0.0,0.0,0.0,0.0,0.0,0.4854,0.4532,0.447,0.4692,0.4699,0.4862,0.5034,0.5217,0.5282,0.5282,0.4789,0.455,0.4389,0.4128,0.3942,0.38,0.3656,0.3656,0.3607,0.2524,0.2124,0.2174,0.2118,0.217,0.2306,0.2162,0.2184,0.2216,0.0,0.0,0.0,0.0,0.0,0.0,0.0,0.0,0.0,0.0,0.0,1.4484,1.5233,1.6093,1.6812,1.745,1.6829,1.6519,1.6811,1.4904,1.389,1.4262,1.3848,1.3621,1.3621,1.5339,1.6912,1.8278,2.01,2.1445,2.2356,2.2811,2.2929,2.2604,2.2164,2.0744,1.8658,1.6885,1.646,1.6697,1.492,0.0,0.0,0.0,0.0,0.0,0.0,0.0,0.0,0.0,0.0,0.0,0.0,0.0,0.0,0.0,0.0,0.0,0.0,0.0,0.0,0.0,0.0,0.0,0.0,0.0,0.0,0.0,0.0,0.0,0.0,0.0,0.0,0.0,0.0,0.0,0.0,0.0,0.0,0.6863,0.7243,0.0,0.0,0.0,0.0,0.6009,0.5715,0.5611,0.5712,0.5186,0.4891,0.4897,0.4897,0.4897,0.4904,0.4918,0.4918,0.4918,0.4918,0.4857,0.4844,0.4965,0.5026,0.5012,0.4389,0.429,0.4321,0.2768,0.2124,0.2071,0.17,0.1616,0.1728,0.1734,0.1873,0.2019,0.0,0.0,0.0,1.4466,1.4373,1.4373,1.4373,1.4373,1.4326,1.4373,1.4467,1.4878,1.5765,1.6749,1.7656,1.8506,1.8568,1.8257,1.7472,1.6167,1.5214,1.478,1.4304,1.4469,1.538,1.6891,1.8485,2.0141,2.1983,2.3205,2.3826,2.3971,2.3826,2.3533,2.3286,2.2512,2.1105,1.885,1.7488,1.6701,1.5579,1.487,0.0,0.0,0.0,0.0,0.0,0.0,0.0,0.0,0.0,0.0,0.0,0.0,0.0,0.0,0.0,0.0,0.0,0.0,0.0,0.0,0.0,0.0,0.0,0.0,0.0,0.0,0.0,0.0,0.0,0.0,0.0,0.0,0.0,0.0,0.0,0.0,0.0,0.7556,0.8136,0.0,0.7738,0.7144,0.6702,0.6488,0.5609,0.5165,0.531,0.5067,0.5114,0.5345,0.5352,0.5352,0.5352,0.5352,0.5298,0.5203,0.5203,0.5155,0.506,0.5219,0.5212,0.5109,0.4869,0.4813,0.4771,0.3217,0.2497,0.2267,0.161,0.1422,0.1463,0.1426,0.1476,0.1568,0.0,1.4971,0.0,1.4466,1.4373,1.4373,1.4373,1.4326,1.428,1.4373,1.4698,1.5424,1.6623,1.784,1.9031,2.012,1.9789,1.9147,1.8237,1.6767,1.5566,1.48,1.4925,1.5504,1.6581,1.8526,2.0203,2.1569,2.3267,2.426,2.455,2.455,2.4385,2.4095,2.395,2.3536,2.2832,2.0916,1.9228,1.7669,1.639,1.5839,1.5659,0.0,0.0,0.0,0.0,0.0,0.0,0.0,0.0,0.0,0.0,0.0,0.0,0.0,0.0,0.0,0.0,0.0,0.0,0.0,0.0,0.0,0.0,0.0,0.0,0.0,0.0,0.0,0.0,0.0,0.0,0.0,0.0,0.0,0.0,0.0,0.8563,0.8309,0.8908,0.9134,0.8597,0.7786,0.7054,0.6681,0.5734,0.5153,0.5086,0.5092,0.5205,0.5447,0.5524,0.5594,0.5594,0.5616,0.5542,0.544,0.5452,0.5311,0.5209,0.5318,0.5304,0.5203,0.5101,0.5087,0.4981,0.3729,0.311,0.2813,0.1704,0.1347,0.1513,0.1347,0.1291,0.1347,0.0,1.4743,1.4373,1.4373,1.4373,1.4373,1.4373,1.4208,1.4114,1.4373,1.4978,1.6126,1.7877,1.9336,2.0849,2.2315,2.0389,1.9065,1.9065,1.6498,1.48,1.4386,1.567,1.6643,1.71,2.0224,2.2045,2.2542,2.3888,2.455,2.455,2.455,2.455,2.4529,2.4095,2.3888,2.3846,2.2915,2.1603,1.9912,1.757,1.7151,1.7653,0.0,0.0,0.0,0.0,0.0,0.0,0.0,0.0,0.0,0.0,0.0,0.0,0.0,0.0,0.0,0.0,0.0,0.0,0.0,0.0,0.0,0.0,0.0,0.0,0.0,0.0,0.0,0.0,0.0,0.0,0.0,0.0,0.0,0.9453,0.9304,0.9241,0.915,0.9604,0.9526,0.8425,0.8217,0.7712,0.6615,0.6157,0.5741,0.5243,0.5249,0.5243,0.5243,0.5387,0.5532,0.5525,0.5537,0.5596,0.5589,0.544,0.5365,0.5359,0.5425,0.5425,0.5404,0.5053,0.5006,0.5038,0.4153,0.3815,0.3624,0.1817,0.1459,0.1958,0.1457,0.1291,0.1291,1.5198,1.4743,1.4373,1.4373,1.4373,1.4373,1.4373,1.4326,1.4326,1.4373,1.5279,1.6488,1.792,1.9431,2.0772,2.1901,2.0203,1.9065,1.9065,1.6208,1.4883,1.5773,1.6477,1.7843,1.9955,2.1176,2.2356,2.3494,2.4198,2.455,2.455,2.455,2.455,2.4529,2.4405,2.4364,2.4322,2.3743,2.3205,2.26,2.0031,1.8718,1.8072,0.0,0.0,0.0,0.0,0.0,0.0,0.0,0.0,0.0,0.0,0.0,0.0,0.0,0.0,0.0,0.0,0.0,0.0,0.0,0.0,0.0,0.0,0.0,0.0,0.0,0.0,0.0,0.0,0.0,0.0,0.0,1.0384,1.0404,0.9779,1.0018,1.0131,0.9788,1.041,1.0557,0.9723,0.914,0.8374,0.7355,0.6681,0.6139,0.5571,0.5483,0.5509,0.5665,0.5573,0.5551,0.5451,0.5414,0.5369,0.5174,0.5267,0.5258,0.5153,0.5359,0.5298,0.5196,0.523,0.5142,0.491,0.4218,0.413,0.4274,0.2445,0.1774,0.179,0.1233,0.1065,0.1179,1.5152,1.4586,1.4155,1.4398,1.4373,1.4373,1.4373,1.4373,1.4326,1.4373,1.5558,1.6814,1.7941,1.9201,2.0232,2.0886,1.9272,1.8071,1.7678,1.5918,1.5504,1.6891,1.8112,1.9582,2.1362,2.2604,2.3536,2.4157,2.4612,2.4736,2.455,2.455,2.455,2.455,2.455,2.455,2.4529,2.426,2.4157,2.3991,2.2289,2.1125,2.0203,1.8508,1.7802,1.7533,1.6415,1.6291,1.6456,1.5194,0.0,0.0,0.0,0.0,0.0,0.0,0.0,0.0,0.0,0.0,0.0,0.0,0.0,0.0,0.0,0.0,0.0,0.0,0.0,0.0,0.0,0.0,0.0,0.0,1.0958,1.0916,1.059,1.0704,1.0739,1.0511,1.0931,1.0975,1.0365,0.9787,0.9058,0.8248,0.7369,0.66,0.6031,0.5635,0.5485,0.5508,0.5518,0.5497,0.5366,0.5382,0.5329,0.5115,0.5129,0.5099,0.496,0.516,0.5245,0.0,0.525,0.5135,0.4857,0.4552,0.4492,0.0,0.0,0.0,0.0,0.0,0.0953,0.1009,1.5173,1.4407,1.3892,1.4307,1.4373,1.4373,1.4373,1.4326,1.428,1.4373,1.5751,1.7041,1.7811,1.8659,1.9285,1.9567,1.7905,1.656,1.5753,1.5794,1.6498,1.7905,2.0058,2.1466,2.2025,2.4095,2.4964,2.455,2.4964,2.4943,2.455,2.4506,2.4612,2.4612,2.4674,2.4695,2.4695,2.4633,2.4612,2.4571,2.4136,2.3639,2.2956,2.0803,2.0203,2.0327,1.9003,1.8092,1.7409,1.6808,0.0,0.0,0.0,0.0,0.0,0.0,0.0,0.0,0.0,0.0,0.0,0.0,0.0,0.0,0.0,0.0,0.0,0.0,0.0,0.0,0.0,0.0,0.0,0.0,1.172,1.1527,1.169,1.1426,1.1218,1.1111,1.1098,1.0947,1.0458,1.0141,0.964,0.9046,0.8147,0.7235,0.6492,0.0,0.0,0.0,0.0,0.5377,0.5263,0.5372,0.5309,0.5177,0.5062,0.493,0.4785,0.4979,0.5093,0.5061,0.5074,0.5004,0.4857,0.4938,0.4703,0.4262,0.2631,0.2237,0.246,0.1399,0.0953,0.0,1.568,1.4926,1.4264,1.4351,1.4373,1.4373,1.4373,1.4373,1.4373,1.4373,1.5574,1.6427,1.6543,1.756,1.8197,1.8281,1.6846,1.5877,1.5691,1.6374,1.7657,1.981,2.1031,2.2232,2.3453,2.426,2.4633,2.455,2.4633,2.4633,2.455,2.4923,2.5088,2.5109,2.5461,2.5627,2.5606,2.5254,2.5088,2.5047,2.4592,2.3929,2.306,2.1859,2.1238,2.0845,1.9851,1.9851,2.0079,1.8526,1.8112,1.8009,1.6456,1.5401,0.0,0.0,0.0,0.0,0.0,0.0,0.0,0.0,0.0,0.0,0.0,0.0,0.0,0.0,0.0,0.0,0.0,0.0,0.0,1.2444,1.2669,1.2763,1.282,1.2592,1.188,1.0543,1.0573,1.0504,1.0172,1.0,0.9656,0.8957,0.8698,0.8092,0.6786,0.6509,0.0,0.548,0.529,0.5256,0.5234,0.5118,0.4996,0.4875,0.0,0.0,0.4717,0.4924,0.487,0.4733,0.5009,0.49,0.4674,0.4977,0.4607,0.388,0.3442,0.2738,0.1958,0.1734,0.1345,0.0897,1.6145,1.5189,1.4406,1.4376,1.4373,1.4373,1.4373,1.4373,1.4373,1.4373,1.5243,1.5839,1.5818,1.6371,1.6717,1.6488,1.5579,1.5297,1.598,1.7305,1.8982,2.1031,2.2232,2.3267,2.4198,2.4861,2.5109,2.4881,2.5109,2.5213,2.5213,2.5233,2.5357,2.5564,2.5564,2.5564,2.5523,2.5068,2.4881,2.4861,2.4547,2.426,2.3805,2.335,2.2894,2.2418,2.1714,2.1466,2.1238,1.9872,1.9251,1.8837,1.7491,1.6436,1.5546,0.0,0.0,0.0,0.0,0.0,0.0,0.0,0.0,0.0,0.0,0.0,0.0,0.0,0.0,1.2648,1.3056,0.0,1.3506,1.3379,1.3175,1.2918,1.2529,1.1962,1.1546,1.1113,1.0998,1.0751,1.021,1.0112,0.9976,0.9515,0.9069,0.8623,0.7921,0.7149,0.6474,0.6067,0.56,0.5339,0.5279,0.5159,0.5045,0.4925,0.4936,0.4882,0.4703,0.4781,0.4751,0.4694,0.4894,0.4841,0.4771,0.4884,0.4598,0.4169,0.4101,0.3294,0.2237,0.1902,0.1623,0.1287,1.6522,1.5593,1.4757,1.4584,1.4466,1.4373,1.4373,1.4373,1.4373,1.4373,1.4963,1.5305,1.5169,1.5363,1.5288,1.4759,1.4552,1.507,1.6539,1.8257,2.0058,2.1983,2.3308,2.4178,2.4444,2.5337,2.5585,2.5233,2.5668,2.5875,2.5875,2.5606,2.5689,2.5999,2.5751,2.5627,2.5585,2.5026,2.4861,2.4923,2.4654,2.4506,2.4654,2.4488,2.4198,2.3826,2.335,2.248,2.1445,2.0783,1.9831,1.8816,1.8195,1.7367,1.6436,1.5421,1.48,0.0,0.0,0.0,0.0,0.0,0.0,0.0,0.0,1.2329,1.2647,1.3076,1.3457,1.3881,1.4517,1.4698,1.4697,1.4517,1.3773,1.298,1.2411,1.1528,1.1145,1.1847,1.1518,1.0948,1.0381,1.0272,1.0187,1.0057,0.9419,0.9069,0.8894,0.7834,0.7082,0.688,0.6073,0.5672,0.5655,0.5366,0.5165,0.505,0.4947,0.4828,0.4686,0.4731,0.4728,0.4677,0.4754,0.4832,0.4906,0.4736,0.466,0.4601,0.4539,0.3922,0.2983,0.2408,0.2014,0.1734,1.6565,1.6386,1.599,1.5175,1.4697,1.4373,1.4373,1.4373,1.4373,1.4373,1.4854,1.4931,1.4381,1.4622,1.451,1.3807,1.4469,1.567,1.7471,1.8899,2.0679,2.2936,2.395,2.4488,2.455,2.5047,2.5275,2.5233,2.5668,2.5875,2.5896,2.6248,2.6455,2.6517,2.6868,2.7034,2.6972,2.6103,2.5958,2.6248,2.5026,2.4778,2.5068,2.426,2.3929,2.3826,2.335,2.2066,2.0617,2.0928,1.9893,1.8506,1.8816,1.8299,1.7326,1.6001,1.5277,1.4718,1.3688,1.289,1.2359,1.2457,1.2562,1.2947,0.0,1.4245,1.4538,1.5189,1.5618,1.5888,1.5937,1.5837,1.5789,1.6009,1.4812,1.3812,1.3981,1.2769,1.1839,1.1731,1.1062,1.0591,1.0291,1.0272,1.0187,1.0057,0.9951,0.9593,0.8973,0.8711,0.8352,0.7724,0.69,0.6484,0.6471,0.5745,0.529,0.5165,0.5154,0.5029,0.4811,0.48,0.4675,0.4533,0.4613,0.4815,0.5042,0.4758,0.4696,0.4843,0.4565,0.4488,0.4416,0.3666,0.2738,0.179,1.6947,1.6693,1.6392,1.6001,1.5534,1.513,1.4834,1.4789,1.4697,1.4419,1.4501,1.4497,1.4255,1.4169,1.402,1.3641,1.4221,1.5484,1.7533,1.9003,2.0783,2.308,2.4053,2.455,2.455,2.4985,2.5233,2.5233,2.542,2.5627,2.5875,2.5813,2.5937,2.6165,2.6103,2.6082,2.6041,2.5378,2.5213,2.5337,2.4778,2.4509,2.4385,2.3722,2.2811,2.1838,2.1652,2.0907,0.0,1.9354,1.8816,1.8382,1.8299,1.7843,1.7059,1.6001,1.5546,1.5124,1.3988,1.3859,1.3935,1.3332,1.3775,1.4522,1.511,1.5396,1.5697,1.619,1.6587,1.687,1.7009,1.6957,1.6535,0.0,1.4603,1.3778,1.263,1.1869,1.1326,1.1111,1.0817,1.049,1.0291,1.0272,1.0187,1.0057,1.0038,0.9808,0.9343,0.9009,0.8669,0.8303,0.7635,0.7302,0.7302,0.6471,0.6039,0.5978,0.5496,0.5132,0.5029,0.4822,0.4599,0.4371,0.4517,0.4587,0.464,0.4716,0.4745,0.4722,0.4716,0.4769,0.4743,0.4013,0.343,0.301,1.7199,1.6947,1.6693,1.6693,1.6411,1.5976,1.5355,1.5198,1.4971,1.4651,1.4419,1.4233,1.4212,1.3952,1.3763,1.3668,1.4035,1.5132,1.7036,1.8547,2.0348,2.2522,2.3619,2.4281,2.4444,2.4985,2.5233,2.5233,2.5357,2.5564,2.5875,2.5689,2.5709,2.5875,2.5689,2.5606,2.5564,2.4985,2.4881,2.5047,2.4571,2.4157,2.3764,2.2791,2.1445,2.0058,2.0058,1.9437,1.8506,1.7657,1.7409,1.7429,1.7388,1.714,1.6726,1.6084,1.5634,1.5206,1.4371,1.4533,1.4846,1.4283,1.5078,1.6015,1.6206,1.6524,1.6873,1.7239,1.7525,1.7739,1.7776,1.7763,1.7098,1.5444,1.4634,1.3683,1.2159,1.1316,1.0707,1.0433,1.0348,1.0263,1.0112,1.0206,1.0187,1.0057,1.0038,0.9885,0.9734,0.9347,0.9096,0.8956,0.8384,0.8097,0.8097,0.7288,0.6959,0.6919,0.5995,0.5543,0.5497,0.4925,0.4594,0.4398,0.4529,0.4529,0.4415,0.4699,0.4778,0.4709,0.4827,0.4944,0.4902,0.4424,0.4163,0.3925,1.7199,1.7199,1.7199,1.7199,1.7157,1.6837,1.5932,1.54,1.5108,1.5062,1.4697,1.4326,1.4212,1.3952,1.381,1.3763,1.4084,1.4718,1.5691,1.7429,1.9251,2.1093,2.2501,2.3639,2.4529,2.4985,2.5233,2.5233,2.5647,2.5875,2.5896,2.633,2.6289,2.5896,2.633,2.6537,2.6475,2.5585,2.5709,2.6351,2.4612,2.3888,2.3639,2.1362,1.9934,1.9106,1.9106,1.7698,1.5877,1.6291,1.5835,1.5256,1.6146,1.6415,1.6394,1.6374,1.5526,1.4584,1.4707,1.4442,1.4417,1.5364,1.6158,1.6873,1.7556,1.7985,1.8335,1.8684,1.878,1.8684,1.8351,1.8034,1.7763,1.7492,1.5548,1.4068,1.3894,1.2013,1.0433,1.0105,0.98,0.9583,0.0,1.0036,1.0187,1.0057,1.0038,1.0038,1.0028,0.9951,0.9951,0.9941,0.9244,0.8894,0.8894,0.8089,0.7752,0.7688,0.6756,0.628,0.6131,0.5243,0.4762,0.4715,0.4715,0.4714,0.466,0.4535,0.4692,0.4992,0.4925,0.4958,0.5008,0.5272,0.4772,0.3997,1.7199,1.7199,1.7199,1.7199,1.7199,1.7115,1.6795,1.6064,1.5445,1.5153,1.4697,0.0,0.0,0.0,0.0,0.0,1.3765,1.4366,1.5608,1.6808,1.8175,1.9686,2.1383,2.2563,2.3163,2.3929,2.4488,2.4778,2.4923,2.4985,2.4985,2.515,2.513,2.5006,2.515,2.5233,2.5213,2.4902,2.4778,2.4674,2.3453,2.2584,2.1818,1.9831,1.8319,1.7202,0.0,1.5877,1.5152,1.4697,1.4552,1.4593,1.4904,1.5007,1.5026,1.5215,1.5332,1.5364,1.5482,1.5783,1.6234,1.6685,1.7254,1.789,1.8367,1.8557,1.8557,1.8192,1.7866,1.7361,1.6614,1.6338,1.6055,1.5528,1.4937,1.4214,1.3111,1.2318,1.1253,0.9914,0.9932,0.0,0.0,0.0,0.0,1.0028,1.0083,1.0102,1.0047,1.0216,1.0301,1.0168,0.9981,0.9803,0.9803,0.8953,0.8511,0.8455,0.756,0.6666,0.5937,0.562,0.5205,0.4726,0.4726,0.4776,0.4873,0.4879,0.4972,0.5145,0.5167,0.519,0.5229,0.5303,0.5179,0.4939,0.0,1.7199,1.7199,1.7199,1.7199,0.0,0.0,0.0,0.0,0.0,0.0,0.0,0.0,0.0,0.0,0.0,0.0,1.3993,1.4883,1.5794,1.685,1.805,1.9541,2.0638,2.1259,2.1859,2.2294,2.2584,2.2749,2.2832,2.2832,2.3163,2.3225,2.308,2.3412,2.3557,2.3557,2.3391,2.3143,2.2791,2.1714,2.0721,1.9727,1.805,1.6788,0.0,1.4842,1.4511,1.4407,1.3807,1.3807,1.4097,1.4262,1.4759,1.5239,1.5115,1.567,1.6355,1.6312,1.68,1.7318,1.7547,1.8065,1.8541,1.878,1.8637,1.8287,1.7628,1.7122,1.6421,1.5433,1.5126,1.4855,1.4601,1.425,1.3905,1.3247,1.2517,1.1542,1.0519,1.0299,1.0027,0.0,0.0,0.0,1.0028,1.0216,1.0291,1.0074,1.0319,1.0442,1.0386,1.0168,1.0121,1.0272,0.9542,0.9017,0.8691,0.803,0.7205,0.618,0.618,0.58,0.5085,0.5132,0.5052,0.4933,0.4997,0.5104,0.5285,0.544,0.5454,0.5454,0.5525,0.5547,0.542,0.0,0.0,1.7199,0.0,0.0,0.0,0.0,0.0,0.0,0.0,0.0,0.0,0.0,0.0,0.0,0.0,0.0,0.0,1.3621,1.4469,1.5359,1.6229,1.716,1.8071,1.894,1.9003,1.911,1.9065,1.9588,1.9796,1.9817,2.0617,2.0783,2.0389,2.128,2.1673,2.1631,2.1197,2.099,2.0866,1.9499,1.8444,1.7512,1.6146,1.5339,1.4842,1.3952,1.3621,1.3621,1.3641,1.3683,1.3807,1.4242,1.5628,1.6898,1.6133,1.6684,1.7424,1.7295,1.7351,1.7493,1.816,1.8557,1.8796,1.878,1.8208,1.7588,1.6985,1.6409,1.5701,1.4741,0.0,1.4387,1.4697,1.3719,1.3344,1.4349,1.273,1.1467,0.0,0.0,0.0,0.0,0.0,0.0,1.0086,0.0,1.0508,1.0319,1.0319,1.0405,1.0594,1.0017,0.9904,1.0301,0.9894,0.9228,0.8435,0.8427,0.7909,0.6949,0.6942,0.6547,0.5894,0.5956,0.5555,0.4914,0.5058,0.5202,0.5384,0.5639,0.5738,0.5738,0.5976,0.5861,0.5583,0.0,0.0,0.0,0.0,0.0,0.0,0.0,0.0,0.0,0.0,0.0,0.0,0.0,0.0,0.0,0.0,0.0,0.0,1.3621,1.4159,1.4593,1.4821,1.6042,1.6995,1.7554,1.8216,1.8733,1.9065,1.9189,1.9251,1.9251,1.9479,1.952,1.9417,1.9665,1.9768,1.9768,1.9644,1.9396,1.8982,1.7968,1.7222,1.6581,1.5194,1.4593,1.4407,1.3828,1.3621,1.3662,1.4014,1.4593,1.5173,1.5297,1.6353,1.7492,1.7546,1.7807,1.8141,1.8308,1.8176,1.8144,1.8589,1.8557,1.8367,1.8097,1.7217,1.6267,1.5592,1.4568,1.3569,1.3021,1.293,0.0,1.4111,1.4475,0.0,1.4899,1.4122,0.0,1.1915,0.0,1.0556,1.0301,1.0556,0.0,0.0,1.066,1.0792,1.0735,1.0877,1.0981,1.1038,1.0735,1.0631,1.0735,1.0319,0.9845,0.9312,0.9156,0.8622,0.7754,0.7614,0.7218,0.6652,0.6612,0.6374,0.5873,0.577,0.5664,0.5556,0.5597,0.5733,0.5899,0.6087,0.5954,0.5739,0.0,0.0,0.0,0.0,0.0,0.0,0.0,0.0,0.0,0.0,0.0,0.0,0.0,0.0,0.0,0.0,0.0,0.0,0.0,1.3917,1.4063,1.4014,1.4759,1.5277,1.5471,1.6022,1.6312,1.6374,1.6788,1.687,1.6684,1.7098,1.7284,1.7284,1.7491,1.7595,1.7595,1.7595,1.7326,0.0,0.0,1.5566,1.507,1.4304,1.4014,1.3972,1.3703,1.3869,1.4304,1.4759,1.5525,1.6394,1.6974,1.8112,1.9219,1.9191,1.9165,1.9183,1.9158,1.8803,1.8573,1.878,1.8446,1.7969,1.7636,1.6411,1.5166,1.4258,1.3353,1.2451,1.1866,1.1774,1.2093,0.0,0.0,0.0,1.5063,1.4193,1.3306,0.0,1.1816,0.0,1.0707,1.0886,1.0972,0.0,1.0962,1.099,1.0896,1.1,1.1066,1.1066,1.0773,1.0575,1.048,1.0348,1.0064,0.9555,0.9526,0.9064,0.8462,0.8347,0.794,0.7326,0.0,0.7011,0.6549,0.6842,0.6578,0.5962,0.6496,0.6403,0.6054,0.6276,0.6257,0.601,0.0,0.0,0.0,0.0,0.0,0.0,0.0,0.0,0.0,0.0,1.5848,1.5244,0.0,0.0,0.0,0.0,0.0,0.0,0.0,0.0,1.3716,1.3621,1.3621,1.3621,1.3621,1.3621,1.3414,1.2975,1.3828,1.4014,1.3641,1.4428,1.4821,1.4842,1.5235,1.5421,1.5421,1.5421,1.5173,1.478,1.4366,1.3972,1.3621,0.0,1.3621,1.3621,1.3621,1.4138,1.4925,1.5628,1.6519,1.7533,1.8837,2.0182,2.1254,2.1053,2.0661,2.031,2.0027,1.9405,1.8812,1.8764,1.8192,1.7525,1.7159,1.5666,1.4049,1.3168,1.2505,1.1905,1.1241,1.1093,1.1346,1.2394,0.0,1.2672,1.5145,1.3783,1.3045,1.4147,1.2543,1.1385,1.1198,1.1198,1.1198,1.1198,1.1198,1.1123,1.0943,1.0934,1.0934,1.0934,1.0556,1.0253,1.0124,1.0197,1.0074,0.9686,0.9658,0.946,0.911,0.9072,0.8645,0.8009,0.0,0.0,0.7173,0.7944,0.7613,0.6753,0.764,0.7371,0.639,0.6702,0.6573,0.6335,0.0,0.0,0.0,0.0,0.0,0.0,0.0,0.0,0.0,1.7791,1.691,1.6107,0.0,0.0,0.0,0.0,0.0,0.0,0.0,0.0,0.0,1.3621,1.3621,1.3621,1.3621,1.3621,1.3579,1.3496,1.3662,1.3703,1.3621,1.3786,1.3848,1.3869,1.3952,1.3972,1.3972,1.3972,1.3931,1.3848,1.3765,1.3683,1.3621,1.3621,0.0,0.0,1.3621,1.3724,1.4159,1.609,1.7657,1.8878,1.9872,2.1135,2.2418,2.3104,2.2162,2.0985,2.1298,2.0116,1.8764,1.8462,1.7652,1.6746,1.6111,1.4308,1.2632,1.2445,1.1811,1.1295,1.1271,1.1705,1.2238,1.2804,1.3053,1.3784,1.5584,1.4774,1.4142,0.0,1.321,1.2155,1.1287,1.1198,0.0,0.0,0.0,1.1179,1.1142,1.1142,1.1142,1.1142,1.0915,1.0688,1.0471,1.0338,1.0149,0.9894,0.9724,0.9527,0.9452,0.9356,0.9171,0.9052,0.0,0.0,0.8162,0.8277,0.8286,0.8049,0.7659,0.762,0.7866,0.7267,0.6878,0.6607,0.0,0.0,0.0,0.0,0.0,0.0,1.7983,1.8087,1.8296,1.8898,1.8817,1.818,1.6801,1.5924,1.5534,0.0,0.0,0.0,0.0,0.0,0.0,1.405,1.4025,1.3905,1.3621,1.3621,1.3496,1.3269,0.0,1.3496,1.3222,1.3496,1.3621,1.3621,1.3621,1.3621,1.3621,1.3621,1.3621,1.3621,1.3621,1.3621,1.3621,1.3621,0.0,0.0,1.3621,1.3765,1.4221,1.5794,1.7077,1.8382,2.0493,2.1942,2.2998,2.3681,2.248,2.1094,2.1585,2.0257,1.8748,1.8383,1.7366,1.6222,1.5348,1.3581,1.2051,1.1589,1.1189,1.0892,1.0891,1.1255,1.1673,1.2276,1.2314,1.2921,1.4882,1.4241,1.3913,1.4676,1.3611,1.2533,1.2058,1.1482,0.0,0.0,0.0,1.1198,1.1198,1.1094,1.1038,1.1038,1.0839,1.0631,1.0423,1.0319,1.0168,1.0038,0.9856,0.9752,0.9639,0.9785,0.9596,0.9327,0.9562,0.0,0.8919,0.9275,0.9229,0.8906,0.9024,0.8956,0.8793,0.8123,0.7692,0.7453,0.0,0.0,0.0,0.0,0.0,0.0,1.8584,1.8845,1.9159,1.9891,2.0257,1.9846,1.8104,1.695,1.6264,0.0,0.0,0.0,0.0,0.0,0.0,0.0,0.0,1.4233,1.3763,0.0,0.0,1.3037,1.3434,0.0,0.0,0.0,0.0,0.0,1.3621,1.3621,1.3621,1.3621,1.3621,0.0,0.0,1.3621,0.0,0.0,0.0,0.0,0.0,1.3848,1.4304,1.5235,1.6084,1.7222,1.9934,2.1611,2.2687,2.3143,2.2296,2.1207,2.1456,2.0369,1.8991,1.8377,1.708,1.5729,1.4744,1.3108,1.1589,1.0942,1.0779,1.074,1.0654,1.0816,1.1137,1.1794,1.1567,1.1999,1.4077,1.3752,1.3774,1.5006,1.4063,0.0,1.3017,1.2155,0.0,0.0,0.0,0.0,1.1198,1.1009,1.0896,1.0896,1.0641,1.0433,1.0272,1.0225,1.0121,1.0038,1.0038,0.9866,0.9715,1.0093,1.011,0.9692,1.0075,0.0,0.0,1.0369,1.0238,0.9866,1.0376,1.0221,0.962,0.9009,0.8706,0.8471,0.0,0.0,0.0,0.0,0.0,0.0,1.8061,1.8584,1.9316,2.0489,2.0178,1.9812,1.9608,1.8639,1.7738,0.0,0.0,0.0,0.0,0.0,0.0,0.0,0.0,0.0,0.0,0.0,0.0,1.3558,1.36,0.0,0.0,0.0,0.0,0.0,0.0,0.0,1.3621,1.3621,0.0,0.0,0.0,0.0,0.0,0.0,0.0,0.0,0.0,1.3641,1.3828,1.4738,1.5401,1.6001,1.7119,1.8961,2.0762,2.1238,2.1509,2.1537,2.1207,2.0607,1.9816,1.8249,1.654,1.5078,1.4331,1.2567,1.1074,1.101,1.0995,1.1036,1.1199,1.1337,1.1601,1.2153,1.2034,1.2438,1.3828,1.4452,1.4766,1.4843,0.0,0.0,1.4268,1.321,0.0,0.0,0.0,0.0,0.0,1.1009,1.0896,1.0896,1.0508,1.0291,1.0272,1.0074,1.0057,1.0038,1.0038,1.0028,0.9932,1.0219,1.0474,1.082,0.0,0.0,0.0,1.1486,1.1372,1.1363,1.0662,1.0357,1.0433,0.9923,0.974,0.9607,0.0,0.0,0.0,0.0,0.0,0.0,1.8427,1.8767,1.9316,2.0542,2.0753,2.057,1.9865,1.9435,1.8662,1.7329,1.6837,0.0,0.0,0.0,0.0,0.0,0.0,0.0,0.0,0.0,1.3621,1.3621,1.3621,0.0,0.0,0.0,0.0,0.0,0.0,0.0,1.3621,1.3621,0.0,0.0,0.0,0.0,0.0,0.0,0.0,0.0,0.0,0.0,1.3683,1.4035,1.4283,1.4511,1.4863,1.598,1.7574,1.9686,2.0386,2.0543,2.055,2.0395,1.9838,1.7959,1.6476,1.5125,1.3807,1.2361,1.1185,1.0772,1.0624,1.0619,1.0654,1.0882,1.115,1.1361,1.1448,1.1911,1.3214,1.3623,1.42,1.5289,1.5286,0.0,0.0,0.0,0.0,0.0,0.0,0.0,0.0,1.1009,1.0839,1.0707,1.0423,1.0216,1.0083,1.0086,1.0038,1.0038,1.0038,1.0017,1.0149,1.0592,1.07,1.0817,0.0,0.0,0.0,1.1773,1.1908,1.206,1.1693,1.1718,1.1757,1.1058,1.0712,1.0595,0.0,0.0,0.0,0.0,0.0,1.7539,1.8506,1.8793,1.9264,2.0332,2.0753,2.0753,2.0126,1.9603,1.8872,1.78,1.7382,0.0,0.0,0.0,0.0,0.0,0.0,0.0,0.0,0.0,1.3621,1.3621,1.3621,1.3621,0.0,0.0,0.0,0.0,0.0,0.0,0.0,0.0,0.0,0.0,0.0,0.0,0.0,0.0,0.0,0.0,0.0,0.0,0.0,0.0,0.0,1.3621,1.3621,1.4055,1.5111,1.7781,1.9,1.959,1.9874,2.0196,2.0026,1.7846,1.6455,1.517,1.3348,1.2027,1.1042,1.0617,1.0419,1.0399,1.0457,1.0724,1.0967,1.0942,1.1197,1.177,1.2716,1.3111,1.3843,1.5306,0.0,0.0,0.0,0.0,0.0,0.0,0.0,0.0,0.0,1.1602,1.1007,1.0575,1.0376,1.0168,1.0038,1.0038,1.0038,1.0038,1.0038,1.0027,1.0276,1.0661,1.098,1.1037,0.0,0.0,0.0,1.2253,1.24,1.262,1.2551,1.2533,1.2561,1.1952,1.1671,1.1563,0.0,0.0,0.0,0.0,0.0,1.7408,1.8009,1.8558,1.9133,1.9734,1.9812,2.0022,2.0646,1.9133,1.8323,1.8845,1.7852,0.0,0.0,0.0,0.0,0.0,0.0,0.0,1.5311,1.4165,1.3621,1.3621,1.3621,1.3621,1.3621,1.3621,1.3621,1.3621,0.0,0.0,0.0,0.0,0.0,0.0,0.0,0.0,1.3621,0.0,0.0,0.0,0.0,0.0,0.0,0.0,0.0,0.0,0.0,1.3621,1.391,1.5318,1.7326,1.909,1.9043,2.0005,2.0537,1.8109,1.6448,1.4898,1.3056,1.1543,1.0522,1.0522,1.0522,1.0581,1.077,1.1059,1.1287,1.1316,1.1854,1.2342,1.2482,1.336,1.4106,0.0,0.0,0.0,0.0,0.0,0.0,0.0,0.0,0.0,0.0,1.2834,1.166,1.0667,1.0376,1.0168,1.0038,1.0038,1.0038,1.0038,1.0038,1.0038,1.0057,1.0386,1.1129,0.0,0.0,0.0,0.0,1.3232,1.2991,1.3122,1.2871,1.262,1.2468,1.2635,1.2699,1.2528,0.0,0.0,0.0,0.0,0.0,0.0,1.746,1.7617,1.7957,1.8558,1.8636,1.8845,1.9394,1.8636,1.8166,1.8349,1.7643,0.0,0.0,0.0,0.0,0.0,0.0,1.582,1.5377,1.4606,1.4529,1.5143,1.4854,1.4833,1.5157,1.4812,1.4467,1.4076,1.3745,0.0,0.0,0.0,0.0,0.0,0.0,1.3952,1.3621,0.0,0.0,0.0,0.0,0.0,0.0,0.0,0.0,0.0,0.0,0.0,0.0,1.4138,1.567,1.7246,1.72,1.7946,1.829,1.6401,1.5433,1.455,1.3229,1.2121,1.1333,1.1082,1.0675,1.0399,1.0457,1.0609,1.0898,1.1403,1.1736,1.2243,1.2952,0.0,0.0,1.5013,1.617,0.0,0.0,0.0,0.0,0.0,0.0,0.0,0.0,1.3649,1.2744,1.1671,1.0582,1.0017,1.0038,1.0102,1.0168,1.0168,1.0168,1.0244,1.0376,1.0367,0.0,0.0,0.0,0.0,0.0,1.3823,1.3661,1.3365,1.346,1.3117,1.2585,1.2865,1.2868,1.2613,0.0,0.0,0.0,0.0,0.0,0.0,1.7199,1.7199,1.7329,1.7721,1.7748,1.8061,1.8819,1.8218,1.7931,1.8375,1.7669,0.0,0.0,0.0,0.0,0.0,1.6454,1.6083,1.5688,1.5107,1.5314,1.6192,1.5973,1.6097,1.6542,1.6227,1.567,1.4904,1.4601,1.4385,0.0,0.0,0.0,0.0,1.4512,1.4373,1.3905,0.0,0.0,0.0,0.0,0.0,0.0,0.0,0.0,0.0,0.0,0.0,0.0,0.0,1.4428,1.5457,1.594,1.6727,1.709,1.5619,1.5032,1.444,1.3204,1.236,1.1816,1.1622,1.1065,1.0675,1.0557,1.0745,1.0994,1.1236,1.1737,1.2243,1.2937,0.0,0.0,1.5452,0.0,0.0,0.0,0.0,0.0,0.0,0.0,0.0,0.0,0.0,1.3927,1.3211,1.1473,1.0377,1.0038,1.0168,1.0362,1.0542,1.071,1.0869,1.101,1.0856,0.0,0.0,0.0,0.0,0.0,1.3823,1.3862,1.3676,1.3845,1.3483,1.288,1.3061,1.2952,1.2699,0.0,0.0,0.0,0.0,0.0,0.0,1.7199,1.7199,1.7199,1.7199,1.7199,1.7591,1.8662,1.7826,1.7617,1.8689,1.78,0.0,0.0,0.0,0.0,1.7199,1.6667,1.6299,1.617,1.5688,1.5939,1.6825,1.6971,1.7275,1.7763,1.7763,1.7175,1.6007,1.5984,1.5637,1.5108,1.5153,1.5153,1.5108,1.5108,1.4834,0.0,0.0,0.0,0.0,0.0,0.0,0.0,0.0,0.0,0.0,0.0,0.0,0.0,0.0,0.0,0.0,0.0,1.6167,1.6509,1.5505,1.5034,1.4414,1.2973,1.2356,0.0,1.2049,1.1669,1.1285,1.1116,1.135,1.1374,1.1042,1.1858,1.2583,0.0,1.3448,0.0,0.0,0.0,0.0,0.0,0.0,0.0,0.0,0.0,0.0,0.0,0.0,1.5129,1.5026,1.2951,1.1289,1.0125,1.0248,1.0542,1.099,1.1283,1.1465,1.1647,1.1703,0.0,0.0,0.0,0.0,0.0,1.3511,1.3648,1.3882,1.3918,1.3592,1.3097,1.3133,1.2964,1.2699,0.0,0.0,0.0,0.0,0.0,0.0,0.0,0.0,0.0,0.0,1.7199,1.7303,1.7565,1.7356,1.7303,0.0,0.0,0.0,0.0,0.0,0.0,1.7199,1.7073,1.6947,1.682,1.6324,1.6781,1.8131,1.824,1.8651,1.9438,1.957,1.8672,1.6996,1.6654,1.6007,1.5108,1.549,1.5445,1.5108,1.5108,1.4834,0.0,0.0,0.0,0.0,1.3621,1.3621,0.0,0.0,0.0,0.0,0.0,0.0,0.0,0.0,1.3621,1.3683,1.4014,0.0,1.4336,1.4083,1.3981,1.3789,0.0,1.2988,1.2618,1.2618,1.2197,1.1897,1.195,1.1876,1.1929,1.2632,1.2922,1.3224,1.3469,0.0,0.0,0.0,0.0,0.0,0.0,0.0,0.0,0.0,0.0,0.0,0.0,0.0,1.5993,1.5026,1.4203,1.2952,1.0982,1.1201,1.1059,1.0452,1.086,1.1212,1.1506,1.1626,0.0,0.0,0.0,0.0,1.3814,1.3814,1.3752,1.364,1.4051,1.3628,1.2856,1.3266,1.3121,1.2699,0.0,0.0,0.0,0.0,0.0,0.0,0.0,0.0,0.0,0.0,1.7199,1.7199,1.7199,1.7199,1.7199,0.0,0.0,0.0,0.0,0.0,0.0,1.7199,1.7199,1.7157,1.6989,1.7007,1.7606,1.8869,1.9409,2.003,2.0686,2.0766,1.9809,1.8082,1.7051,1.6329,1.5869,1.602,1.602,1.5824,1.578,0.0,0.0,0.0,0.0,0.0,1.3905,1.381,0.0,1.3621,1.3621,1.3621,0.0,0.0,0.0,0.0,1.3621,1.3621,1.3621,1.3765,1.3931,1.3931,1.3931,1.3931,1.3931,1.3524,1.317,1.317,1.2735,1.2382,1.2432,1.2143,1.219,1.293,1.3107,0.0,0.0,0.0,0.0,0.0,0.0,0.0,0.0,0.0,0.0,0.0,0.0,0.0,0.0,0.0,1.6226,1.5651,1.513,1.3959,1.2003,1.2254,1.2292,1.2026,1.2259,1.2507,1.2597,1.2428,0.0,0.0,0.0,0.0,1.352,1.3812,1.3821,1.3725,1.4002,1.3616,1.2928,1.323,1.3061,1.2699,0.0,0.0,0.0,0.0,0.0,0.0,0.0,0.0,0.0,0.0,0.0,0.0,0.0,0.0,0.0,0.0,0.0,0.0,0.0,0.0,1.7199,1.7199,1.7199,1.7209,1.7187,1.7592,1.8261,1.9302,2.0372,2.1154,2.1675,2.1908,2.0945,1.9083,1.7476,1.6741,1.6675,1.6522,1.6565,1.6675,1.6479,0.0,0.0,0.0,0.0,0.0,0.0,0.0,0.0,1.3621,1.3621,1.3621,1.3621,0.0,0.0,0.0,0.0,0.0,1.3703,1.4055,1.4366,1.4242,1.4304,1.4386,1.4324,1.4055,1.3828,1.3828,1.3468,1.3064,1.289,1.2659,0.0,0.0,0.0,0.0,0.0,0.0,0.0,0.0,0.0,0.0,0.0,0.0,0.0,0.0,0.0,0.0,0.0,0.0,0.0,1.636,1.5804,1.4783,1.3099,1.3336,1.366,1.4047,1.4038,1.405,1.4063,1.3489,1.2985,0.0,0.0,0.0,1.3182,1.3659,1.3845,1.3845,1.3894,1.3556,1.3061,1.3109,1.2952,1.2699,0.0,0.0,0.0,0.0,0.0,0.0,0.0,0.0,0.0,0.0,0.0,0.0,0.0,0.0,0.0,0.0,0.0,0.0,0.0,1.7199,1.7199,1.7199,1.7199,1.7434,1.7913,1.7496,1.8096,1.9716,2.0835,2.1766,2.2515,2.3543,2.2483,1.9635,1.8455,1.7426,1.6522,1.6522,1.6522,1.6479,1.6064,0.0,0.0,0.0,0.0,0.0,0.0,0.0,0.0,1.3621,1.3621,1.3621,1.3621,0.0,0.0,0.0,0.0,0.0,1.4097,1.4531,1.4697,1.391,1.4304,1.48,1.4386,1.4552,1.478,1.478,1.4728,1.4553,1.4105,1.4015,1.3987,0.0,0.0,0.0,0.0,0.0,0.0,0.0,0.0,0.0,0.0,0.0,0.0,0.0,0.0,0.0,0.0,0.0,0.0,1.6374,1.6181,1.5771,1.5006,1.4362,1.3814,1.3598,1.3719,1.386,1.3975,1.4002,1.3623,0.0,0.0,1.3147,1.3477,1.3568,1.3568,1.3592,1.3821,1.3435,1.2795,1.3037,1.2952,1.2699,0.0,0.0,0.0,0.0,0.0,0.0,0.0,0.0,0.0,0.0,0.0,0.0,0.0,0.0,0.0,0.0,0.0,0.0,0.0,1.7199,1.7356,1.7669,1.7695,1.7826,1.8087,1.8695,1.9534,2.0627,2.2176,2.3167,2.3509,2.2789,2.1357,1.9334,1.7928,1.7024,1.6633,1.6522,1.6522,1.6565,0.0,0.0,0.0,0.0,0.0,0.0,0.0,0.0,0.0,0.0,1.4046,1.3999,1.3716,0.0,0.0,0.0,0.0,0.0,1.3869,1.4262,1.4469,1.3786,1.4511,1.5256,1.478,1.4842,1.507,1.5318,1.5359,1.5375,1.531,0.0,1.5514,1.5462,0.0,0.0,0.0,0.0,0.0,0.0,0.0,0.0,0.0,0.0,0.0,0.0,0.0,0.0,0.0,0.0,0.0,0.0,1.5889,1.5738,1.559,1.5144,1.4965,1.4937,1.4866,1.485,1.4902,1.4919,1.4656,1.4235,0.0,1.4052,1.4578,1.4066,1.4091,1.4578,1.4205,1.3774,1.3435,1.299,1.2819,1.2699,0.0,0.0,0.0,0.0,0.0,0.0,0.0,0.0,0.0,0.0,0.0,0.0,0.0,0.0,0.0,0.0,0.0,0.0,0.0,1.7199,1.7408,1.7878,1.8035,1.8296,1.8689,1.9898,2.0862,2.1716,2.3416,2.4315,2.4329,2.2135,2.0388,1.9133,1.7601,1.6816,1.6633,1.6522,1.6565,1.6633,0.0,0.0,0.0,0.0,0.0,0.0,0.0,0.0,0.0,0.0,0.0,0.0,0.0,0.0,0.0,1.3621,1.3621,1.3641,1.3745,1.4035,1.4221,1.3869,1.4656,1.5484,1.5359,1.5401,1.567,1.6332,1.6477,1.6489,1.6454,1.6459,0.0,1.6674,0.0,0.0,0.0,0.0,0.0,0.0,0.0,0.0,0.0,0.0,0.0,0.0,0.0,0.0,0.0,0.0,0.0,0.0,1.5767,1.559,1.5741,1.5741,1.5952,1.6292,1.6025,1.5926,1.586,1.5691,1.5474,1.5162,1.4561,1.4737,1.5436,1.4677,1.4717,1.5334,1.4589,1.4209,1.3857,1.304,1.2699,1.2699,0.0,0.0,0.0,0.0,0.0,0.0,0.0,0.0,0.0,0.0,0.0,0.0,0.0,0.0,0.0,0.0,0.0,0.0,1.7199,1.7199,1.7225,1.7251,1.78,1.8845,2.0489,2.0446,2.1198,2.2881,2.3859,2.4606,2.5027,2.3059,2.1317,1.9685,1.8581,1.7501,1.6522,1.6522,1.6522,1.6522,1.6522,0.0,0.0,0.0,0.0,0.0,0.0,0.0,0.0,0.0,0.0,0.0,0.0,0.0,1.3621,1.3621,1.3621,1.3703,1.4138,1.4283,1.4304,1.4262,1.4656,1.5256,1.6084,1.6601,1.7264,1.8568,1.8837,1.8582,1.7605,1.6835,1.665,1.7564,0.0,0.0,0.0,0.0,0.0,0.0,0.0,0.0,0.0,0.0,0.0,0.0,0.0,0.0,0.0,0.0,0.0,0.0,0.0,1.5922,1.5741,1.5922,1.6323,1.6869,1.649,1.6338,1.6204,1.5851,1.5369,1.4769,1.4685,1.4852,1.513,1.503,1.503,1.513,1.5016,1.4507,1.3672,1.2966,1.2699,1.2699,0.0,0.0,0.0,0.0,0.0,0.0,0.0,0.0,0.0,0.0,0.0,1.7199,1.7199,0.0,0.0,0.0,0.0,0.0,1.7199,1.7199,1.7382,1.7748,1.7983,1.8741,2.01,2.1146,2.2473,2.4249,2.5112,2.4963,2.3789,2.2128,2.0589,1.9258,1.7802,1.7124,1.7024,1.6672,1.6722,1.7024,1.6672,1.6522,0.0,0.0,0.0,0.0,0.0,0.0,0.0,0.0,1.522,1.4789,1.4512,1.4046,1.3621,1.3621,1.3621,1.3662,1.3828,1.4097,1.4304,1.4304,1.4863,1.5587,1.6229,1.716,1.8195,1.9272,1.9955,2.0215,1.9839,0.0,1.8202,0.0,0.0,0.0,0.0,0.0,0.0,0.0,0.0,0.0,0.0,0.0,0.0,0.0,0.0,0.0,0.0,0.0,0.0,0.0,0.0,1.6087,1.6139,1.6237,1.6464,1.6755,1.6547,1.6464,1.6521,1.6614,1.6561,1.6308,1.5885,1.5959,1.639,1.5757,1.5752,1.6088,1.5668,1.5007,1.4237,1.3561,1.3307,1.3222,0.0,0.0,0.0,0.0,0.0,0.0,0.0,0.0,1.7199,0.0,0.0,0.0,0.0,1.7199,0.0,0.0,0.0,0.0,1.7199,1.7199,1.7382,1.78,1.8009,1.8532,1.9499,2.1067,2.2633,2.4294,2.491,2.443,2.2849,2.1167,2.0087,1.9459,1.7802,1.7375,1.7852,1.7099,1.7024,1.7325,1.6748,1.6522,0.0,0.0,0.0,0.0,0.0,0.0,0.0,0.0,1.5623,1.5062,1.4743,1.414,1.3621,1.3621,1.3621,1.3621,1.3621,1.3952,1.4304,1.4304,1.5214,1.6312,1.7057,1.805,1.9168,2.0369,2.0886,2.1155,2.13,0.0,0.0,0.0,0.0,0.0,0.0,0.0,0.0,0.0,0.0,0.0,0.0,0.0,0.0,0.0,0.0,0.0,0.0,0.0,0.0,0.0,0.0,1.6237,1.6386,1.6386,1.6421,1.6409,1.6519,1.6566,1.6746,1.7,1.7111,1.7111,1.6592,1.6676,1.708,1.6329,1.6319,1.6648,1.5989,1.5394,1.4908,1.4237,1.3984,1.3899,0.0,0.0,0.0,0.0,0.0,0.0,0.0,0.0,1.7199,1.7199,1.7199,0.0,0.0,0.0,0.0,0.0,0.0,0.0,1.7199,1.7199,1.7199,1.7199,1.7774,1.8349,1.8872,2.0096,2.1329,2.2674,2.2968,2.2849,2.2246,2.0589,2.0112,2.0643,1.8932,1.8505,1.8908,1.7852,1.7375,1.7325,1.6748,1.6522,1.6522,0.0,0.0,0.0,0.0,0.0,0.0,0.0,1.5869,1.5108,1.5108,1.4398,1.3621,1.3621,1.3621,1.3621,1.3621,1.3952,1.4304,1.4324,1.5691,1.7409,1.8775,1.9505,2.0307,2.2128,2.1776,2.128,2.1735,2.0386,0.0,0.0,0.0,0.0,0.0,0.0,0.0,0.0,0.0,0.0,0.0,0.0,0.0,0.0,0.0,0.0,0.0,0.0,0.0,0.0,0.0,0.0,1.6386,1.6386,1.623,1.5903,1.6409,1.673,1.673,1.673,1.673,1.673,1.673,1.673,1.673,1.673,1.673,1.6648,1.5989,1.5726,1.5643,1.4977,1.4727,1.4643,0.0,0.0,0.0,0.0,0.0,0.0,0.0,0.0,1.7199,1.7199,1.7199,0.0,0.0,0.0,0.0,0.0,0.0,0.0,1.7199,1.7199,1.7199,1.7199,1.7382,1.7496,1.7592,1.857,1.9887,2.1553,2.2382,2.1983,2.0539,2.0037,1.9685,1.9484,1.9007,1.8656,1.8405,1.7677,1.7375,1.7325,1.6748,1.6522,1.6522,0.0,0.0,0.0,0.0,0.0,0.0,0.0,0.0,0.0,1.5579,1.4949,1.414,1.414,1.3905,1.3621,1.3621,1.3952,1.4469,1.5111,1.6415,1.7968,1.9644,2.0389,2.1238,2.308,2.2998,2.2625,2.2749,2.1909,0.0,0.0,0.0,0.0,0.0,0.0,0.0,0.0,0.0,0.0,0.0,0.0,0.0,0.0,0.0,0.0,0.0,0.0,0.0,0.0,1.5905,1.5905,1.5905,1.5905,1.5858,1.5763,1.5936,1.6126,1.6381,1.6619,1.673,1.673,1.673,1.6587,1.6365,1.6365,1.6222,1.6031,1.6296,1.6246,1.5978,1.5569,1.5262,1.4976,0.0,0.0,0.0,0.0,0.0,0.0,1.7447,1.7323,1.7199,1.7199,1.7199,1.7199,0.0,0.0,0.0,1.7199,1.7199,0.0,1.7199,1.7199,1.7199,1.7199,1.7199,1.7261,1.7368,1.8323,1.9073,1.9683,2.0676,2.0595,1.951,1.971,1.9886,2.0012,2.0012,1.971,1.9133,1.8355,1.7903,1.7652,1.6848,1.6647,1.6848,0.0,0.0,0.0,0.0,0.0,0.0,0.0,0.0,0.0,1.58,1.5266,1.4651,1.4466,1.4186,1.3858,1.3668,1.4097,1.48,1.5732,1.7119,1.8796,2.0783,2.1756,2.2584,2.3867,2.3639,2.3184,2.3184,2.2473,0.0,0.0,0.0,0.0,0.0,0.0,0.0,0.0,0.0,0.0,0.0,0.0,0.0,0.0,0.0,0.0,0.0,0.0,0.0,0.0,1.5682,1.5682,1.5682,1.5682,1.5602,1.5491,1.5618,1.5713,1.5809,1.6301,1.6603,1.673,1.6587,1.6317,1.5999,1.5999,1.5872,1.5729,1.6301,1.6397,1.6174,1.6098,1.5934,1.5686,0.0,0.0,1.8988,1.8616,0.0,0.0,1.7868,1.7503,1.724,1.724,1.724,1.7199,0.0,0.0,0.0,1.7199,1.7199,1.7199,1.7199,1.7199,1.7199,1.7199,1.7209,1.7453,1.7963,1.878,1.8686,1.76,1.8478,1.8908,1.8957,1.9535,2.0388,2.1418,2.1418,2.1091,2.0492,1.9334,1.8555,1.7953,1.6923,1.6848,1.725,1.6722,0.0,0.0,0.0,0.0,0.0,0.0,0.0,0.0,1.5864,1.5534,1.5062,1.4651,1.4466,1.428,1.3852,1.4374,1.5235,1.6249,1.7926,1.9872,2.2004,2.3184,2.395,2.4385,0.0,2.3246,2.3246,0.0,0.0,0.0,0.0,0.0,0.0,0.0,0.0,0.0,0.0,0.0,0.0,0.0,0.0,0.0,0.0,0.0,0.0,0.0,0.0,0.0,1.5586,1.5586,1.5586,1.5586,1.5427,0.0,1.5443,1.5443,1.5205,1.5856,1.6333,1.6619,1.6269,1.5936,1.5634,1.5634,1.5618,1.5618,1.6047,1.619,1.6206,1.6555,1.6667,1.6553,0.0,0.0,1.9064,1.8988,0.0,0.0,1.8344,1.7948,1.7666,1.7666,1.7406,1.7199,1.7199,1.7199,0.0,1.7199,1.7199,1.7199,1.7199,1.7115,1.7031,1.7031,1.7273,1.7696,1.8282,1.8012,1.7718,1.742,1.8053,1.838,1.8405,1.9359,2.0162,2.084,2.084,2.0288,1.9309,1.8204,1.74,1.6848,1.6622,1.6597,1.6697,1.6572,1.6522,0.0,0.0,0.0,0.0,0.0,0.0,0.0,1.6349,1.602,1.5623,1.5534,1.4994,1.446,1.4618,1.4856,1.538,1.7036,1.9354,2.1445,2.2294,2.2936,2.3474,2.3929,2.3867,2.3722,0.0,0.0,0.0,0.0,0.0,0.0,0.0,0.0,0.0,0.0,0.0,0.0,0.0,0.0,0.0,0.0,0.0,0.0,0.0,0.0,0.0,1.4871,1.4855,1.4855,1.4855,1.4855,1.4824,0.0,1.4824,1.4982,1.5205,1.5602,1.5825,1.5888,1.5554,1.5364,1.53,1.53,1.5125,1.4951,1.5856,1.6031,1.584,1.619,1.6142,1.5904,0.0,0.0,0.0,0.0,0.0,0.0,0.0,0.0,1.7529,1.7529,1.7323,1.7199,1.7199,1.7199,0.0,0.0,1.7199,1.7199,1.7199,1.7115,1.7073,1.6989,1.7445,1.7664,1.7581,1.751,1.7339,1.6974,1.725,1.7677,1.8229,1.9585,2.0388,2.0718,2.0941,2.0313,1.8982,1.8129,1.7451,1.6898,1.6622,1.6672,1.6898,1.6622,1.6522,1.6522,1.6522,0.0,0.0,0.0,0.0,0.0,0.0,0.0,1.6107,1.5888,1.5445,1.4994,1.4752,1.5021,1.5795,1.7864,2.01,2.1921,2.2397,2.2853,2.3267,2.3494,2.3536,0.0,0.0,0.0,0.0,0.0,0.0,0.0,0.0,0.0,0.0,0.0,0.0,0.0,0.0,0.0,0.0,0.0,0.0,0.0,0.0,1.5501,1.5186,1.4649,1.4561,1.4561,1.4561,1.4561,1.4561,1.4561,1.4561,1.4744,1.4935,1.5443,1.5586,1.5427,1.5268,1.5078,1.4919,1.4919,1.4808,1.4728,1.5602,1.584,1.5745,1.6269,1.6238,1.5952,0.0,0.0,0.0,0.0,0.0,0.0,0.0,0.0,0.0,1.7323,1.724,1.7199,1.7199,1.7199,1.7199,0.0,0.0,0.0,1.7157,1.7115,1.7083,1.7059,1.7565,1.7555,1.6979,1.7378,1.7283,1.6672,1.6672,1.73,1.8505,1.9886,2.0668,2.0869,2.1091,2.0388,1.8933,1.8229,1.7652,1.72,1.6697,1.6798,1.7174,1.6697,1.6522,1.6522,1.6522,1.6522,1.6522,1.6522,0.0,0.0,0.0,0.0,1.6436,1.602,1.5864,1.5623,1.4971,1.5411,1.6525,1.8468,2.0265,2.1694,2.2149,2.2625,2.2956,2.2956,2.3018,0.0,0.0,0.0,0.0,0.0,0.0,0.0,0.0,0.0,0.0,0.0,0.0,0.0,0.0,0.0,0.0,0.0,0.0,0.0,1.5948,1.5738,1.5387,1.4696,1.4601,1.453,1.4482,1.4482,1.4451,1.4458,1.4458,1.4458,1.4474,1.5062,1.5205,1.4998,1.4998,1.4824,1.4482,1.4482,1.4585,1.4697,1.5348,1.5634,1.5745,1.6269,1.6349,1.6238,0.0,0.0,0.0,0.0,0.0,0.0,0.0,0.0,0.0,0.0,1.7447,1.7199,1.7199,1.7199,1.7199,1.7199,1.7199,1.7157,1.7031,0.0,0.0,1.7339,1.7415,1.7622,1.7978,1.7622,1.7395,1.7275,1.7275,1.8053,1.9585,1.9811,2.0439,2.1343,2.0439,1.966,1.8883,1.74,1.6697,1.6622,1.6547,1.6572,1.6622,1.6547,1.6522,1.6522,1.6522,1.6522,1.6522,1.6522,1.6522,0.0,0.0,0.0,1.6479,1.6436,1.6107,1.5852,1.6124,1.6848,1.7664,1.8301,1.9541,2.0741,2.1197,0.0,2.1983,0.0,0.0,0.0,0.0,0.0,0.0,0.0,0.0,0.0,0.0,0.0,0.0,0.0,0.0,0.0,0.0,0.0,0.0,0.0,0.0,0.0,1.6206,1.553,1.5138,1.5069,1.4757,1.449,1.4188,1.4188,1.4029,1.3727,1.3727,1.3727,1.3727,1.3823,1.3997,1.4252,1.4252,1.4236,1.4188,1.4188,1.4363,1.4609,1.5094,1.5427,1.565,1.5459,1.5745,1.6126,0.0,0.0,0.0,0.0,0.0,0.0,0.0,0.0,0.0,0.0,0.0,1.7199,1.7199,1.7199,1.7199,1.7199,1.7199,1.7157,1.6989,1.6888,1.6863,1.6986,1.7011,1.7068,1.725,1.7024,1.6898,1.6898,1.6898,1.7903,1.9811,2.0137,2.0891,2.1895,2.079,1.9811,1.8858,1.7225,1.6522,1.6522,1.6522,1.6522,1.6522,1.6522,1.6522,1.6522,1.6522,1.6522,1.6522,1.6522,1.6522,1.6522,1.6522,0.0,0.0,0.0,1.6324,1.623,1.645,1.6541,1.6872,1.7807,1.8701,1.9541,2.0514,2.1093,2.1487,0.0,0.0,0.0,0.0,0.0,0.0,0.0,0.0,0.0,0.0,0.0,0.0,0.0,0.0,0.0,0.0,0.0,0.0,0.0,0.0,1.7585,1.6845,1.6225,1.5787,1.5327,1.4833,1.4511,1.4413,1.4009,1.3743,1.3584,1.3584,1.3584,1.3584,1.3584,1.3664,1.3823,1.3823,1.3823,1.3823,1.4029,1.4204,1.4395,1.4967,1.5268,1.5411,1.5443,1.5539,1.5618,0.0,0.0,0.0,0.0,0.0,0.0,0.0,0.0,0.0,0.0,0.0,1.7199,1.7157,0.0,0.0,0.0,1.7157,1.7115,1.6947,1.6888,1.6803,1.6675,1.6633,1.6633,1.6522,1.6522,1.6522,1.6522,1.6522,1.7727,2.0037,2.0464,2.1418,2.2698,2.1568,2.0313,1.8883,1.7551,1.6948,1.6923,1.6647,1.6522,1.6522,1.6522,1.6522,1.6522,1.6522,1.6522,1.6522,1.6522,1.6522,1.6522,1.6522,1.6522,0.0,0.0,0.0,1.6467,1.6372,1.6099,1.6107,1.7048,1.7743,1.8553,0.0,0.0,2.0928,0.0,0.0,0.0,0.0,0.0,0.0,0.0,0.0,0.0,0.0,0.0,0.0,0.0,0.0,0.0,0.0,0.0,0.0,0.0,0.0,1.7777,1.7248,1.668,1.6191,1.5623,1.5092,1.4768,1.4681,1.3932,1.3575,1.3575,1.3575,1.364,1.3834,1.364,1.3575,1.3575,1.3475,1.3457,1.3489,1.3839,1.4029,1.4172,1.4808,1.511,1.5205,1.5364,1.5364,1.5316,0.0,0.0,0.0,0.0,0.0,0.0,0.0,0.0,0.0,0.0,0.0,1.7157,1.6989,1.6989,1.6989,1.6989,1.6989,1.6947,1.6931,1.6761,1.6675,1.6522,1.6522,0.0,1.6522,1.6522,1.6522,1.6522,1.6522,1.7928,2.0668,2.0693,2.182,2.3853,2.2723,2.1041,1.8933,1.838,1.8129,1.8028,1.6948,1.6522,1.6522,1.6522,1.6522,1.6522,1.6522,1.6522,1.6522,1.6522,1.6522,1.6522,1.6522,1.6522,1.6522,0.0,0.0,0.0,1.5957,1.6118,1.6338,1.5924,1.6807,1.7927,0.0,0.0,0.0,0.0,0.0,0.0,0.0,0.0,0.0,0.0,0.0,0.0,0.0,0.0,0.0,0.0,0.0,0.0,0.0,0.0,0.0,0.0,0.0,1.7059,1.6999,1.6356,1.5911,1.5911,1.5586,1.5287,1.4987,1.3996,1.3501,1.3501,1.3501,1.3865,1.4405,1.3804,1.3501,1.3475,1.3218,1.3124,1.3139,1.3473,1.3807,1.414,1.4522,1.4887,1.5141,1.4824,1.5094,1.5554,0.0,0.0,0.0,0.0,0.0,0.0,0.0,0.0,0.0,0.0,0.0,0.0,0.0,1.7115,1.7115,1.7115,1.6989,1.6888,1.6761,1.6675,1.6565,1.6522,1.6522,1.6522,1.6522,1.6522,1.6522,1.6522,1.6522,1.74,1.9083,1.9459,2.0037,2.0815,2.1117,2.0815,1.9962,1.7953,1.7325,1.7601,1.6823,1.6522,1.6522,1.6522,1.6522,1.6522,1.6522,1.6522,1.6522,1.6522,1.6522,1.6522,1.6522,1.6522,1.6522,1.6522,1.6522,1.6479,1.6281,1.6166,1.6073,1.6172,1.6305,1.6656,1.7376,1.8029,0.0,0.0,0.0,0.0,0.0,0.0,0.0,0.0,0.0,0.0,0.0,0.0,0.0,0.0,0.0,0.0,0.0,0.0,0.0,0.0,0.0,0.0,1.6977,1.6532,1.6194,1.6194,1.5722,1.5181,1.4689,1.4303,1.4172,1.4172,1.4172,1.4291,1.4469,1.4231,1.4172,1.4112,1.403,1.3778,1.3397,1.3997,1.4313,1.443,1.4552,1.4728,1.4824,1.4624,1.4792,1.5014,0.0,0.0,0.0,1.9139,0.0,1.8147,1.7828,1.7544,1.7365,1.724,0.0,0.0,0.0,0.0,1.7738,1.7316,1.7076,1.6846,1.6718,1.6633,1.6522,1.6522,1.6522,1.6522,1.6522,1.6522,1.6522,1.6522,1.6522,1.7099,1.8204,1.8581,1.8932,1.9309,1.9685,1.9936,1.9987,1.8154,1.7576,1.7852,1.6898,1.6848,1.735,1.735,1.7476,1.7601,1.7426,1.725,1.7024,1.6647,1.6522,1.6522,1.6522,1.6522,1.6522,1.6522,1.6522,1.6522,1.6522,1.6281,1.6049,1.6233,1.6101,1.6104,1.6696,0.0,0.0,0.0,0.0,0.0,0.0,0.0,0.0,0.0,0.0,0.0,0.0,0.0,0.0,0.0,0.0,0.0,0.0,0.0,0.0,0.0,0.0,0.0,1.6829,1.6539,1.6312,1.6146,1.5729,1.5137,1.4354,1.4484,1.4559,1.4559,1.4749,1.4942,1.5118,1.4883,1.4824,1.4824,1.4824,1.441,1.3865,1.4635,1.495,1.4972,1.4977,1.4991,1.5007,1.4848,1.4889,1.5056,1.969,1.969,1.9581,1.9176,1.9101,1.8836,1.7975,1.7842,1.772,1.7293,0.0,0.0,0.0,0.0,0.0,1.7626,1.7178,1.6871,1.6744,1.6744,1.6658,1.6522,1.6522,1.6522,1.6522,1.6522,1.6522,1.6522,1.6522,1.7074,1.8154,1.8154,1.8706,1.9685,1.8631,1.848,1.8933,1.8908,1.8933,1.8833,1.7155,1.7526,1.8983,1.8933,1.9309,1.9685,1.9183,1.8656,0.0,1.6923,0.0,0.0,1.6547,1.6479,1.6522,1.6522,1.6522,1.6522,0.0,0.0,0.0,1.5932,1.614,0.0,1.6394,0.0,0.0,0.0,0.0,0.0,0.0,0.0,0.0,0.0,0.0,0.0,0.0,0.0,0.0,0.0,0.0,0.0,0.0,0.0,0.0,0.0,0.0,1.6353,1.6374,1.6374,1.6167,1.5732,1.5711,1.5192,1.4087,1.4515,1.471,1.4766,1.5195,1.5778,1.6374,1.572,1.541,1.541,1.541,1.5118,1.4602,1.5394,1.5725,1.5688,1.579,1.5807,1.5788,1.5397,1.5445,1.5803,1.969,1.969,1.9654,1.9545,1.9706,1.9613,1.8974,1.9071,1.9,0.0,0.0,0.0,1.8507,1.8728,1.8708,1.8303,1.8287,1.8029,1.7397,1.7371,1.708,1.6547,1.6522,1.6522,1.6522,1.6522,1.6522,1.6522,1.6522,1.6672,1.6974,1.6974,1.7375,1.8028,1.7727,1.7702,1.7802,1.74,1.7856,1.8833,1.7155,1.7526,1.8932,1.8129,1.8179,1.8631,1.848,1.8329,1.8103,0.0,1.74,1.7677,1.7275,1.6848,1.6522,1.6522,1.6522,1.6522,1.6522,0.0,0.0,0.0,0.0,0.0,1.5958,1.6172,0.0,0.0,0.0,0.0,0.0,0.0,0.0,0.0,0.0,0.0,0.0,0.0,0.0,0.0,0.0,0.0,0.0,0.0,0.0,0.0,1.5753,1.567,1.6332,1.6374,1.6332,1.6187,1.6187,1.5904,1.5212,1.5716,1.5777,1.5416,1.592,1.6202,1.6374,1.6202,1.6144,1.6144,1.6144,1.6009,1.5876,1.5834,1.5861,1.5875,1.6054,1.6093,1.6061,1.5788,1.6069,1.6526,1.969,1.969,1.9779,2.0079,2.0342,2.0396,2.0112,2.0245,2.0202,0.0,0.0,0.0,1.9577,1.9623,1.9402,1.8846,1.8639,1.8359,1.7865,1.7865,1.7566,1.6898,1.6873,1.686,1.6778,1.6607,1.6607,1.6778,1.6607,1.6522,1.6522,1.6522,1.6697,1.7024,1.7024,1.7024,1.6999,1.6672,1.7225,1.8254,1.7275,1.8003,1.966,1.9258,1.9585,2.0238,0.0,0.0,1.9736,1.848,1.8129,0.0,0.0,1.7124,1.7124,1.6647,1.6697,1.6823,1.6597,1.6522,1.6522,1.6522,0.0,0.0,1.6107,1.63,1.6432,0.0,0.0,0.0,0.0,0.0,0.0,0.0,0.0,0.0,0.0,0.0,0.0,0.0,0.0,0.0,0.0,0.0,0.0,1.5794,1.5297,1.5235,1.5773,1.5794,1.5794,1.5794,1.5608,1.538,1.5111,1.5566,1.567,1.5401,1.6063,1.6374,1.6374,1.6374,1.6374,1.6374,1.6374,1.6374,1.6394,1.6175,1.6198,1.6396,1.6586,1.6647,1.6655,1.6491,1.6878,1.7292,0.0,1.9869,2.0139,2.0827,2.1178,2.1415,2.1391,2.1557,2.1421,0.0,2.1063,2.1254,2.1139,2.112,2.0648,1.9484,1.8881,1.8503,1.838,1.8329,1.8053,1.7501,1.7476,1.7448,1.7408,1.6948,1.6854,1.7277,1.6803,1.6565,1.6522,1.6522,1.6522,1.6522,1.6522,1.6522,1.6522,1.6522,1.6848,1.7375,1.7375,1.8755,2.0769,2.1142,2.1995,2.2874,2.2322,2.2121,2.182,1.9736,1.8606,0.0,0.0,0.0,0.0,0.0,1.7024,1.7275,1.6823,1.6748,1.6773,1.6647,1.6748,0.0,1.6572,1.7024,1.7289,0.0,0.0,0.0,0.0,0.0,0.0,0.0,0.0,0.0,0.0,0.0,0.0,0.0,0.0,0.0,0.0,1.5587,1.538,1.5028,1.5007,1.4966,1.4925,1.4966,1.5028,1.507,1.4635,1.4386,1.4386,1.4842,1.5049,1.5007,1.5939,1.6374,1.6374,1.6374,1.6374,1.6374,1.6374,1.6374,1.6374,1.6374,1.6622,1.6937,1.7252,1.7311,1.7363,1.746,1.7726,1.8086,2.0498,2.0946,2.1515,2.2173,2.276,2.3185,2.333,2.3305,2.3084,2.2542,2.2485,2.26,2.3,2.2654,2.226,2.1837,2.1034,2.0271,1.9712,1.9256,1.8702,1.8078,1.8028,1.8257,1.8648,1.8026,1.7791,1.7938,1.7366,1.6863,1.6522,1.6522,1.6522,1.6522,1.6522,1.6522,1.6522,1.6522,1.6848,1.7375,1.7375,1.8755,2.0693,2.0263,2.084,2.1744,2.1192,2.0991,2.079,1.9459,1.838,1.7576,0.0,0.0,0.0,1.7677,0.0,1.7451,1.7777,1.8204,0.0,0.0,0.0,0.0,1.6923,1.73,1.7731,0.0,0.0,0.0,0.0,0.0,0.0,0.0,0.0,0.0,0.0,0.0,0.0,0.0,0.0,0.0,0.0,1.5007,1.4697,1.4987,1.5007,1.4842,1.4469,1.48,1.5173,1.5546,1.5111,1.4863,1.4863,1.5318,1.5359,1.5007,1.5939,1.6374,1.6374,1.6374,1.6374,1.6374,1.6374,1.6374,1.6374,1.6374,1.6436,1.6601,1.7308,1.7593,1.7632,1.7841,1.8319,1.8818,2.1216,2.1485,2.1994,2.2981,2.367,2.4239,2.4663,2.4905,2.5003,2.4787,2.51,2.4866,2.3618,2.3742,2.3386,2.2141,2.1559,2.1002,2.0393,2.009,1.951,1.8656,1.8606,1.8694,1.8924,1.8636,1.8479,1.8453,1.821,1.7841,1.735,1.7074,1.6948,1.6948,1.6948,1.6798,1.6547,1.7124,1.7375,1.74,1.7677,1.8932,2.0718,2.0639,2.1343,2.2246,2.1694,2.1142,2.0592,1.9685,1.9233,0.0,1.8053,1.7953,1.8154,0.0,1.8003,1.7852,0.0,0.0,0.0,1.8279,0.0,0.0,0.0,1.735,1.735,0.0,0.0,0.0,0.0,0.0,0.0,0.0,0.0,0.0,0.0,0.0,0.0,0.0,0.0,0.0,0.0,1.4725,1.4304,1.4304,1.4304,1.42,1.3972,1.4179,1.4531,1.4987,1.4552,1.4428,1.4656,1.5111,1.5235,1.5007,1.5939,1.6374,1.6374,1.6374,1.6374,1.6374,1.6374,1.6374,1.6374,1.6374,1.6374,1.6436,1.7119,1.7327,1.743,1.7995,1.8451,1.8754,2.1904,2.1994,2.2473,2.3759,2.4448,2.5076,2.5854,2.6139,2.6272,2.6422,2.7134,2.6695,2.4337,2.4655,2.427,2.243,2.1895,2.1543,2.1317,2.097,2.0263,1.9384,1.9233,1.9154,1.9144,1.9225,1.9238,1.9173,1.9133,1.8852,1.832,1.7798,1.7526,1.7526,1.7526,1.7325,1.7049,1.7852,1.8078,1.7877,0.0,1.9233,2.0618,2.1117,2.1945,2.2749,2.2196,2.1343,2.0413,1.9962,2.0112,2.0265,1.853,1.8781,0.0,0.0,0.0,0.0,0.0,0.0,0.0,0.0,0.0,1.8254,0.0,0.0,0.0,0.0,0.0,0.0,0.0,0.0,0.0,0.0,0.0,0.0,0.0,0.0,0.0,0.0,0.0,0.0,0.0,1.4518,1.4014,1.3641,1.3621,1.3621,1.3621,1.3621,1.3828,1.4304,1.3848,1.3828,1.4304,1.4759,1.5007,1.5007,1.5939,1.6374,1.6374,1.6374,1.6374,1.6374,1.6374,1.6374,1.6374,1.6374,1.6374,1.6415,1.687,1.6977,1.708,1.7947,1.8299,1.8444,2.2682,2.3011,2.3819,2.5136,2.5435,2.5914,2.7171,2.6402,2.585,2.6272,2.6343,2.6454,2.6506,2.5676,2.5065,2.5109,2.3351,2.2623,2.3552,2.1769,2.0668,2.0489,1.9987,1.994,2.0364,2.0273,2.0313,2.0386,1.9845,1.9351,1.8898,1.8363,1.8103,1.8103,1.8103,1.8355,1.8657,1.8355,1.8706,1.9484,1.9108,1.9334,0.0,2.0539,2.1142,2.1594,2.1041,2.0439,1.9886,0.0,1.9836,1.9936,0.0,1.9761,1.9384,2.0715,0.0,0.0,0.0,0.0,0.0,0.0,2.0388,0.0,0.0,0.0,0.0,0.0,0.0,0.0,0.0,0.0,0.0,0.0,0.0,0.0,0.0,0.0,0.0,0.0,0.0,0.0,0.0,0.0,1.3683,1.3621,1.3621,1.3621,1.3621,1.3621,1.3828,1.4304,1.3848,1.3828,1.4304,1.4759,1.5007,1.5007,1.5939,1.6374,1.6374,1.6374,1.6374,1.6374,1.6374,1.6374,1.6374,1.6374,1.6374,1.6415,1.687,1.6977,1.7038,1.7616,1.805,1.8382,2.3251,2.343,2.4029,2.5375,2.5615,2.6063,2.743,2.8023,2.8111,2.7283,2.8284,2.8698,2.7828,2.7065,2.6503,2.6131,2.4682,2.3703,0.0,2.2643,2.1831,2.1197,2.1268,2.1093,2.068,2.1159,2.1161,2.0598,2.0972,2.0696,1.9939,1.9361,1.8945,1.8681,1.8681,1.8631,1.8581,1.8957,1.9208,0.0,0.0,0.0,0.0,2.0618,2.0869,2.1046,2.0794,2.0288,1.9761,0.0,1.9987,0.0,0.0,0.0,0.0,0.0,0.0,0.0,0.0,0.0,0.0,0.0,0.0,0.0,1.7953,0.0,1.7275,0.0,0.0,0.0,0.0,0.0,0.0,0.0,0.0,0.0,0.0,0.0,0.0,0.0,0.0,0.0,0.0,0.0,0.0,0.0,0.0,1.3952,1.3621,1.3621,1.3703,1.389,1.3972,1.4117,1.4304,1.5028,1.5401,1.5401,1.6063,1.6374,1.6374,1.6374,1.6374,1.6374,1.6374,1.6374,1.6374,1.6374,1.6374,1.6394,1.6581,1.6663,1.6705,1.716,1.745,1.7678,2.4118,2.3999,2.4298,2.5644,2.5884,2.6255,2.7416,2.8788,2.9288,2.824,2.9568,3.0035,2.8638,2.8229,2.7773,2.7188,2.6138,2.5149,0.0,0.0,2.3057,2.2223,2.2346,2.2085,2.1429,2.2266,2.2355,2.1573,2.2173,2.2042,2.1282,2.0404,1.9801,1.9433,1.946,1.9258,1.8932,1.9861,2.0037,1.9736,2.0112,2.0514,2.092,2.0769,2.0618,2.0439,2.0439,2.0162,1.9761,1.956,2.0263,0.0,2.0037,0.0,0.0,0.0,0.0,0.0,2.1568,0.0,0.0,0.0,0.0,0.0,0.0,0.0,0.0,0.0,0.0,0.0,0.0,0.0,0.0,1.6572,0.0,0.0,0.0,0.0,0.0,0.0,0.0,0.0,0.0,0.0,0.0,0.0,0.0,0.0,1.3621,1.3621,1.3621,1.3621,1.4076,1.4304,1.4304,1.5214,1.5691,1.5691,1.6167,1.6374,1.6374,1.6374,1.6374,1.6374,1.6374,1.6374,1.6374,1.6374,1.6374,1.6374,1.6374,1.6374,1.6415,1.6746,1.6873,1.708,2.5405,2.5046,2.5016,2.6333,2.6572,2.6842,2.7569,2.7777,2.8082,2.8879,2.9093,2.9111,2.9109,0.0,0.0,0.0,0.0,2.7246,2.7271,0.0,2.397,0.0,0.0,2.2644,0.0,2.3766,2.4019,2.3991,2.335,2.3069,2.2993,2.1358,2.0597,2.0547,2.0627,2.0668,2.0668,2.1192,2.1418,2.1418,2.1418,2.1443,2.1418,0.0,2.0313,1.9836,1.9836,0.0,0.0,2.0439,2.0693,0.0,0.0,0.0,0.0,0.0,0.0,0.0,0.0,0.0,0.0,2.0514,0.0,0.0,0.0,0.0,1.8003,0.0,0.0,0.0,0.0,0.0,1.7802,1.6697,1.6974,0.0,0.0,0.0,0.0,0.0,0.0,0.0,0.0,0.0,0.0,0.0,0.0,0.0,1.3621,1.3621,1.3621,1.3621,1.4076,1.4304,1.4304,1.5214,1.5691,1.5691,1.6167,1.6374,1.6374,1.6374,1.6374,1.6374,1.6374,1.6374,1.6374,1.6374,1.6374,1.6374,1.6374,1.6374,1.6374,1.6394,1.6684,1.6997,2.6123,2.6063,2.6063,2.6512,2.6602,2.7121,2.8753,2.9622,3.0248,0.0,3.1089,0.0,0.0,3.1381,3.1149,0.0,0.0,2.8845,2.8656,2.7152,0.0,0.0,0.0,2.5414,0.0,2.5019,2.4682,2.3485,2.3571,2.3285,2.2563,2.1563,2.0992,2.0627,2.0267,2.0313,0.0,0.0,0.0,0.0,0.0,2.1493,2.1393,0.0,0.0,2.0313,1.9936,1.9811,0.0,2.0037,2.0338,2.0693,2.0439,2.1016,2.1719,2.1543,2.1995,0.0,0.0,0.0,2.3025,2.1343,0.0,0.0,0.0,0.0,0.0,0.0,0.0,0.0,0.0,1.8204,1.7953,1.7225,1.725,1.7124,0.0,0.0,0.0,0.0,0.0,0.0,0.0,0.0,0.0,0.0,0.0,0.0,0.0,1.3621,1.3621,1.3621,1.4366,1.4759,1.4759,1.5691,1.6146,1.6146,1.6312,1.6374,1.6374,1.6374,1.6374,1.6374,1.6374,1.6374,1.6374,1.6374,1.6374,1.6374,1.6374,1.656,1.6788,1.6498,1.6477,1.6684,2.7171,2.729,2.729,2.729,2.7318,2.801,3.0013,3.0778,0.0,0.0,3.2581,0.0,3.3316,0.0,3.2912,0.0,3.1562,3.0443,2.9282,2.8446,0.0,2.7651,2.7436,0.0,0.0,0.0,0.0,2.4797,2.4651,2.4218,2.3605,2.2771,2.2033,2.1381,2.1144,2.0879,2.0769,2.1292,2.1644,0.0,0.0,2.1493,0.0,0.0,2.0288,2.0865,0.0,1.9811,1.9811,1.9811,2.0188,2.0643,2.0213,2.0991,2.1945,2.1594,2.2121,2.2849,2.2849,2.2915,0.0,2.1769,2.1217,0.0,1.8882,0.0,0.0,0.0,0.0,0.0,0.0,0.0,1.8329,1.7752,1.7501,1.7174,0.0,1.6522,0.0,0.0,0.0,0.0,0.0,0.0,0.0,0.0,1.5175,0.0,0.0,0.0,1.3905,1.3905,1.4612,1.5007,1.5007,1.5918,1.6374,1.6374,1.6374,1.6374,1.6374,1.6374,1.6374,1.6374,1.6374,1.6374,1.6374,1.6374,1.6374,1.6394,1.656,1.6788,1.6956,1.6726,1.6726,1.6974,2.8517,2.8667,2.8697,2.8757,2.8773,2.94,0.0,0.0,3.1599,0.0,3.367,3.3892,3.3985,3.4174,3.4034,3.3244,3.3144,3.2066,2.945,2.9269,0.0,0.0,2.7269,2.7534,2.8568,0.0,0.0,0.0,2.638,2.581,2.5908,2.4668,2.3543,2.2643,2.2989,2.2227,2.0894,2.2422,2.2799,2.2272,2.1744,2.1543,2.1443,2.0313,2.0589,2.1418,2.0263,1.9836,1.9836,1.9886,2.0263,2.0769,2.0769,2.1091,2.1518,2.1518,2.192,2.2347,2.2347,2.2723,2.2874,2.182,0.0,0.0,0.0,0.0,2.0464,0.0,0.0,0.0,0.0,0.0,1.8882,1.8304,1.7727,1.7149,1.6597,0.0,0.0,0.0,0.0,0.0,0.0,0.0,1.6281,1.5844,1.58,1.5579,0.0,0.0,1.4441,1.4417,1.4835,1.5007,1.5028,1.5918,1.6374,1.6374,1.6374,1.6374,1.6374,1.6374,1.6374,1.6374,1.6374,1.6374,1.6374,1.6374,1.6374,1.6415,1.685,1.6977,1.7018,1.7018,1.7307,1.7802,2.9295,2.9714,3.0163,0.0,3.038,3.0532,0.0,0.0,0.0,0.0,3.5269,3.545,3.5697,3.5823,3.5596,3.4951,3.4148,0.0,0.0,0.0,0.0,3.1612,3.1004,3.0458,3.0064,2.9375,0.0,2.717,0.0,2.5713,2.4887,2.3987,2.3228,2.257,2.2137,2.1939,2.192,2.2347,2.2447,2.2297,2.2146,2.2347,0.0,0.0,2.1744,2.2523,2.0991,2.0492,2.0514,2.0916,2.1167,2.1267,2.1267,2.1644,2.2096,2.2096,2.2498,2.2865,2.2865,2.3025,2.3015,2.2774,2.2397,2.187,0.0,0.0,0.0,0.0,0.0,0.0,0.0,0.0,0.0,1.8355,1.7375,1.6697,0.0,0.0,0.0,0.0,0.0,0.0,0.0,0.0,1.6281,1.5844,1.58,1.5579,0.0,0.0,0.0,1.4827,1.5286,1.5521,1.5504,1.6084,1.6374,1.6374,1.6374,1.6374,1.6374,1.6374,1.6374,1.6374,1.6374,1.6374,1.6374,1.6374,1.6374,1.6394,1.6498,1.6953,1.7492,1.7492,1.7575,1.7802,3.0372,3.142,3.2287,3.2377,0.0,0.0,3.4405,3.4158,0.0,3.627,3.6178,0.0,3.5831,3.615,3.6132,3.5579,3.5175,0.0,3.3975,0.0,0.0,3.2704,3.2506,3.1903,3.1065,2.9968,0.0,2.7513,0.0,2.6159,2.5384,2.5134,2.4667,2.3878,2.3715,2.344,2.3184,2.3129,2.2908,2.2648,2.2397,0.0,0.0,2.1719,2.187,2.2322,2.1644,2.1242,2.1041,2.1117,2.1443,2.1845,2.1845,2.2221,2.2673,2.2673,2.2899,2.3065,2.3065,2.3065,2.3065,2.3065,2.284,2.2523,2.197,2.2146,2.2071,0.0,0.0,0.0,0.0,0.0,0.0,1.8028,1.73,0.0,0.0,0.0,0.0,0.0,0.0,0.0,0.0,0.0,1.6392,1.6107,1.6107,1.5976,0.0,0.0,0.0,1.5677,1.6407,1.6554,1.6051,1.7034,1.7201,1.6663,1.6663,1.6663,1.6663,1.6663,1.656,1.6374,1.6374,1.6374,1.6374,1.6374,1.6498,1.6705,1.7098,1.7698,1.8319,1.8319,1.8319,1.8361,3.1659,3.3245,0.0,0.0,0.0,0.0,0.0,3.6389,0.0,3.7232,0.0,3.6018,3.5288,3.6058,3.6344,3.5865,0.0,3.5838,3.4009,3.4846,3.447,3.2545,3.2753,3.2612,3.1772,3.0107,2.8937,0.0,2.754,2.6911,2.6496,2.6945,2.6572,2.5609,2.6026,2.546,0.0,2.4068,2.3662,2.304,2.2623,2.2121,2.1694,2.1694,2.1694,2.1769,2.2171,2.1995,2.1543,2.1117,2.1619,2.2422,2.2422,2.2749,2.3065,2.3065,2.3065,2.3065,2.3065,2.3065,2.3065,2.3065,2.3065,2.294,2.2523,2.1995,2.1594,2.1594,2.069,2.0062,0.0,0.0,0.0,1.7652,0.0,0.0,0.0,0.0,0.0,0.0,0.0,0.0,0.0,0.0,1.6522,1.6522,1.6522,0.0,0.0,0.0,0.0,1.6666,1.7608,0.0,1.696,0.0,1.8316,1.7342,1.716,1.708,1.708,1.708,1.6891,1.6456,1.6456,1.6436,1.6374,1.6374,1.6643,1.708,1.803,1.863,1.8982,1.911,1.9065,1.9065,3.3036,3.3873,0.0,0.0,0.0,3.8191,4.0448,3.9609,3.864,3.8558,3.8018,3.7253,3.6251,3.6954,3.7586,3.7612,3.7891,0.0,0.0,0.0,0.0,3.3772,3.3765,3.3406,3.2634,3.1915,3.0749,0.0,2.8503,2.7748,2.6683,2.663,2.6279,2.5628,2.5577,2.5051,2.4262,2.3754,0.0,2.3065,2.3025,2.2924,2.2849,2.2849,2.2849,2.2799,2.2447,2.2246,2.2221,2.2573,2.2824,2.3,2.3,2.299,2.3065,2.3065,2.3065,2.3065,2.3065,2.3065,2.3065,2.3065,2.3065,2.304,2.294,2.2573,2.2171,2.2171,2.1292,2.0592,2.0693,0.0,0.0,0.0,0.0,0.0,0.0,0.0,0.0,0.0,0.0,0.0,0.0,0.0,0.0,0.0,0.0,0.0,0.0,0.0,0.0,0.0,0.0,0.0,0.0,0.0,1.8414,1.9135,1.8091,1.7554,1.7554,1.7554,1.7367,1.6873,1.6873,1.6726,1.6374,1.6374,1.6643,1.708,1.803,1.8423,1.8547,1.894,1.9065,1.9065,3.4981,0.0,0.0,0.0,0.0,0.0,0.0,4.2739,0.0,4.0828,3.9782,3.8702,3.752,3.8123,3.8738,3.9006,3.8628,3.831,3.7979,3.7125,3.6281,3.5373,3.5508,0.0,3.3451,3.264,3.1516,2.9957,2.9322,2.8438,2.7229,2.7442,2.7267,2.6654,2.6443,2.6129,0.0,0.0,0.0,2.4465,2.3824,2.3603,2.3603,2.3245,2.3065,2.304,2.2824,2.2749,2.2723,2.2723,2.2899,2.3065,2.3065,2.3065,2.3065,2.3065,2.3065,2.3065,2.3065,2.3065,2.3065,2.3065,2.3065,2.3065,2.3065,2.2698,2.2397,2.2673,2.187,2.1091,2.1091,2.0413,0.0,0.0,0.0,0.0,0.0,0.0,0.0,0.0,0.0,0.0,0.0,0.0,0.0,0.0,0.0,0.0,0.0,0.0,0.0,0.0,0.0,0.0,0.0,0.0,0.0,1.9614,1.8902,1.8552,1.8552,1.8197,1.7823,1.7348,1.7348,1.7284,1.7098,1.7326,1.7533,1.7802,1.8485,1.8733,1.8754,1.8982,1.9065,1.9065,0.0,3.7614,0.0,0.0,4.1474,0.0,4.4086,4.4993,4.4818,4.2797,4.1426,4.0069,3.8643,3.9305,3.9944,4.0173,3.9508,3.9215,3.9396,3.8523,3.7543,3.6516,3.6711,3.5937,3.4056,3.306,3.202,0.0,3.0007,2.9089,2.8115,2.8575,2.8517,0.0,0.0,0.0,0.0,0.0,2.6131,2.5995,2.5069,2.4596,2.4405,2.3901,2.3526,2.3305,2.3484,2.3424,2.3255,2.2799,2.2892,2.3065,2.3065,2.3065,2.3065,2.3065,2.3065,2.3065,2.3065,2.3065,2.3065,2.3065,2.3065,2.3065,2.3065,2.2698,2.2472,2.2965,2.2246,2.1418,2.1167,2.0865,0.0,0.0,0.0,0.0,0.0,0.0,0.0,0.0,0.0,0.0,0.0,0.0,0.0,0.0,0.0,1.6572,1.6697,1.7124,0.0,0.0,0.0,2.0126,1.9721,0.0,2.0938,0.0,1.9958,1.978,1.9717,1.9084,1.8533,1.8051,1.7926,1.7823,1.7761,1.8195,1.8382,1.8423,1.8899,1.9065,1.9065,1.9065,1.9065,1.9065,0.0,0.0,0.0,0.0,0.0,0.0,4.4072,4.5263,4.5572,4.3719,4.2322,4.099,3.9541,4.0434,4.1113,4.1197,4.1285,4.0938,3.9823,3.8925,3.7672,3.6029,3.6043,3.5427,3.4248,3.363,3.2646,0.0,0.0,3.0048,0.0,2.9475,2.9445,0.0,0.0,0.0,0.0,2.7451,2.7128,2.6946,2.6739,2.6267,2.5693,2.5635,2.4962,2.4073,2.4624,2.4452,2.3989,2.3936,2.3551,2.3065,2.3065,2.3065,2.3065,2.3065,2.3065,2.3065,2.3065,2.3065,2.3065,2.3065,2.3065,2.3065,2.3065,2.2698,2.2472,2.2965,2.2246,2.1167,2.0137,2.0338,2.0464,0.0,0.0,0.0,0.0,0.0,0.0,0.0,0.0,0.0,0.0,0.0,0.0,0.0,0.0,1.6748,1.7275,1.735,1.7877,1.8858,0.0,2.006,2.1931,2.1034,0.0,2.2702,2.1516,2.0928,2.0928,2.0224,1.9704,1.9184,1.8638,1.8092,1.7761,1.8195,1.8382,1.8423,1.8899,1.9065,1.9065,1.9065,1.9065,1.9065,0.0,0.0,0.0,0.0,0.0,0.0,0.0,4.6147,4.5764,4.4246,4.3481,4.2709,4.1702,4.2029,4.2386,4.2496,4.1448,4.0744,4.0742,3.9208,3.7808,3.6699,3.6752,3.6182,3.4842,3.4349,3.3634,0.0,0.0,0.0,0.0,0.0,0.0,0.0,0.0,2.9098,2.8958,2.8566,2.834,2.8254,2.7852,2.7509,2.7171,2.6348,2.5785,2.5368,2.4815,2.4738,2.4851,2.4452,2.4047,2.3662,2.3245,2.3065,2.3065,2.3065,2.3065,2.3065,2.3065,2.3065,2.3065,2.3065,2.3065,2.3065,2.3065,2.289,2.2874,2.31,2.2774,2.2347,2.1895,2.1719,2.1468,0.0,0.0,0.0,0.0,0.0,0.0,0.0,0.0,0.0,0.0,0.0,0.0,0.0,0.0,1.6773,1.735,1.7702,1.8229,1.8958,0.0,2.0439,2.1317,2.146,2.1913,2.2554,2.2015,2.1667,2.169,2.0996,2.0565,2.0385,2.0131,1.9703,1.9169,1.981,1.9812,1.9512,2.0095,2.0031,1.9704,1.9704,1.9462,1.9065,4.3838,0.0,4.4496,0.0,4.6202,4.6082,4.6621,4.6322,4.5544,4.4197,4.3886,4.3626,4.304,4.3061,4.317,4.317,4.1528,4.0713,4.1384,3.9609,3.8164,3.7287,3.7336,0.0,3.5323,3.4767,3.4233,3.3784,3.3125,0.0,0.0,0.0,0.0,0.0,3.0112,3.0022,3.0022,2.9855,2.9743,2.9714,2.9231,2.8915,2.8655,2.7655,2.7144,2.6833,2.5825,2.566,2.5855,2.5244,2.4908,2.4624,2.3989,2.3883,2.3953,2.3713,2.3739,2.3713,2.3679,2.3432,2.3245,2.3365,2.3424,2.3424,2.3271,2.3305,2.3314,2.2984,2.2899,2.2799,2.2531,2.2221,2.1895,2.1343,0.0,0.0,0.0,0.0,0.0,0.0,1.7777,1.7802,1.7626,0.0,0.0,0.0,0.0,0.0,1.8053,1.8329,0.0,0.0,0.0,0.0,0.0,2.1845,2.2397,2.2548,2.2444,2.2372,2.2372,2.169,2.1383,2.133,2.1192,2.096,2.0685,2.1001,2.0805,2.042,2.0933,2.0805,2.042,2.042,2.0096,1.9726,4.5005,4.5274,4.5693,4.707,4.7279,4.683,4.5514,4.5304,4.4825,4.3509,4.3329,4.325,4.2981,4.317,4.325,4.2981,4.2055,4.1384,4.1384,4.0157,3.8811,0.0,0.0,3.6806,3.5519,3.4831,3.4472,3.4472,0.0,0.0,3.3455,0.0,3.2497,3.2467,3.175,3.1452,3.1452,3.1336,3.1248,3.1248,3.1102,3.066,3.007,3.0041,2.9259,2.8196,2.8169,2.7773,2.7167,2.6483,2.6283,2.6176,2.5577,2.5685,2.5949,2.5269,2.515,2.515,2.4909,2.4279,2.3688,2.4015,2.4189,2.4131,2.3509,2.3721,2.38,2.2796,2.2463,2.2052,2.1107,2.1251,2.1317,2.0819,0.0,0.0,0.0,0.0,0.0,0.0,1.8681,1.8758,1.8254,0.0,0.0,0.0,0.0,0.0,0.0,0.0,0.0,1.9786,2.0363,0.0,2.1468,2.202,2.2598,2.3065,2.3065,2.3065,2.3065,2.2372,2.2013,2.1855,2.133,2.1399,2.1855,2.133,2.1123,2.106,2.1123,2.1123,2.106,2.106,2.106,2.106,4.6591,4.701,4.7339,4.7309,4.7309,4.686,4.5484,4.4915,4.4317,4.3449,4.3329,4.325,4.325,4.325,4.325,0.0,4.2132,4.1384,0.0,4.0157,3.8811,3.7464,3.7404,3.6806,3.5519,3.528,3.4951,3.4472,0.0,0.0,0.0,3.3275,3.3185,3.3185,3.2976,3.2617,3.2198,3.2139,3.187,3.1424,3.1424,3.1217,3.0979,3.0419,3.0036,2.9628,2.8703,2.8345,2.8095,2.7461,2.7243,2.7211,2.7524,2.6999,2.6238,2.6065,2.628,2.664,2.6521,2.5909,2.5351,2.5542,2.4919,2.4353,2.451,2.4301,2.3904,2.328,2.3077,2.2892,2.248,2.2311,2.2065,2.1483,2.1024,0.0,0.0,0.0,0.0,0.0,1.8956,1.9056,0.0,1.9083,0.0,0.0,0.0,0.0,0.0,0.0,0.0,0.0,2.0941,0.0,2.2046,2.2598,2.289,2.3065,2.3065,2.3065,2.3065,2.2884,2.2776,2.2763,2.2983,2.2684,2.2115,2.2795,2.2587,2.1791,2.2249,2.2428,2.2424,2.2424,2.2081,2.167,4.7309,4.7429,4.7429,4.701,4.6711,4.6172,4.5095,4.4586,4.4077,4.3419,4.3329,4.3329,4.3329,4.3329,0.0,4.3329,4.2132,4.1384,4.1384,4.0157,3.8811,3.7464,3.7404,3.6806,3.5519,0.0,0.0,3.4861,3.4861,3.4651,3.4233,3.3993,3.3873,3.3844,3.3604,3.3275,3.2856,3.2617,3.2287,3.1869,3.1571,3.1482,3.1422,3.0947,3.0798,3.0735,2.9658,2.9296,2.9212,2.8621,2.8403,2.8397,2.8816,2.8492,2.7911,2.7568,2.7764,2.8046,2.7987,2.7363,2.6768,2.6978,2.6217,2.5549,2.5807,2.5255,2.4675,2.4614,2.397,2.345,2.3424,2.2814,2.2158,2.1572,2.0929,2.0395,2.0144,0.0,0.0,0.0,0.0,0.0,0.0,1.9862,0.0,0.0,0.0,0.0,0.0,0.0,0.0,2.0693,2.1393,0.0,2.2322,2.2849,2.319,2.3452,2.3678,2.3778,2.3778,2.3778,2.3879,2.4079,2.423,2.3952,2.3462,2.4041,2.3828,2.3168,2.3567,2.3729,2.3707,2.3707,2.3361,2.3013,4.7249,4.6741,0.0,0.0,4.5663,0.0,4.4347,4.4257,4.4018,4.3419,4.3329,4.3329,4.3329,4.3329,4.3299,4.3269,0.0,0.0,0.0,4.0157,3.8841,3.7524,3.7434,3.6836,3.5609,3.5519,3.5519,3.5519,3.5519,3.5519,3.5489,3.4861,3.4532,3.4532,3.3903,3.3604,3.3514,3.2916,3.2587,3.2467,3.178,3.1511,3.1482,3.1482,3.1482,3.1392,3.0791,3.0552,3.0402,2.9834,2.9624,2.9594,2.9624,3.0043,3.0324,2.961,2.9493,2.9522,2.9346,2.8624,2.8024,2.8283,2.8023,2.7586,2.7266,2.653,2.5991,2.6559,2.515,2.3909,2.4034,2.2959,2.1892,2.1326,2.0682,2.0169,2.0246,0.0,0.0,0.0,0.0,0.0,0.0,2.0547,2.0648,0.0,0.0,0.0,0.0,0.0,2.1368,2.0794,2.1769,2.2347,2.2422,2.2949,2.3477,2.4054,2.4582,2.4833,2.4833,2.4833,2.5084,2.5511,2.5084,2.5134,2.5511,2.5059,2.4858,2.4833,2.4833,2.4833,2.4883,2.4883,2.4883,2.4883,0.0,0.0,4.5992,4.4975,4.4646,4.4317,4.3658,4.3569,4.3509,4.3359,4.3329,4.3329,4.3329,4.3329,4.312,4.2641,4.1863,4.1384,4.1384,4.0157,3.905,3.8182,3.7674,3.7045,3.6267,3.5759,3.5519,3.5519,3.5519,3.5519,3.5519,3.534,3.525,3.525,3.51,3.4741,3.4233,3.4083,3.3425,3.2497,3.2347,3.1988,3.1482,3.1482,3.1482,3.1452,3.1302,3.0941,3.0492,3.0342,2.9983,2.9654,3.0133,3.0372,3.0436,3.0268,3.0567,3.0982,3.0924,3.0336,2.9781,2.9929,2.9403,2.8681,2.7849,2.7595,2.7596,2.7415,2.6958,2.6452,2.5898,2.4527,2.3312,2.2644,2.1225,2.022,2.0398,2.0398,0.0,0.0,2.0939,2.1118,2.1259,2.1138,2.1291,0.0,0.0,0.0,0.0,2.301,2.2867,2.1343,2.1945,2.2723,2.3602,2.3728,2.4079,2.4632,2.4757,2.4833,2.4833,2.4833,2.4883,2.5034,2.5285,2.5259,2.5034,2.531,2.5184,2.4833,2.4833,2.5059,2.541,2.541,2.541,2.541,4.689,4.6262,4.5633,4.4885,4.4257,4.3748,4.3389,4.3329,4.3329,4.3329,4.3329,4.3329,4.3329,4.3329,4.318,4.2851,4.1923,4.1265,4.0935,3.9978,3.911,3.8422,3.7764,3.7135,3.6507,3.5848,3.5519,3.5519,3.5519,3.5519,3.5519,3.5519,3.5519,3.5519,3.5519,3.531,3.4921,3.4622,3.4053,3.3365,3.2766,3.2467,3.2407,3.2108,3.1988,3.1988,3.1988,3.1749,3.142,3.142,3.139,3.142,3.1779,3.1869,3.1869,3.1869,3.1719,3.1482,3.1482,3.1155,3.0774,3.0571,3.06,3.0455,2.9317,2.9173,2.9232,2.8997,2.8248,2.7678,2.7505,2.58,2.4255,2.3635,2.2156,2.097,2.0649,2.0799,0.0,2.1172,2.1302,2.1639,2.2133,2.2326,2.2454,2.2643,0.0,0.0,2.2808,2.4029,2.4009,2.2412,2.311,2.3753,2.4381,2.4607,2.4883,2.5184,2.5435,2.5561,2.5561,2.5561,2.5561,2.5586,2.5862,2.5837,2.5586,2.5862,2.5812,2.5561,2.5561,2.5737,2.5988,2.5988,2.5988,2.5988,4.7279,4.6232,4.5394,4.5185,4.4227,4.3449,4.3359,4.3329,4.3329,4.3329,4.3329,4.3329,4.3329,4.3329,4.3299,4.318,4.2073,4.1145,4.0576,3.9828,3.917,3.8571,3.7823,3.7165,3.6626,3.5878,3.5519,3.5519,3.5519,3.5519,3.5519,3.5519,3.5519,3.5519,3.5519,3.5519,3.5459,3.4891,3.4562,3.4382,3.3275,3.3095,3.3425,3.2886,3.2647,3.2647,3.2647,3.2647,3.2647,3.2647,3.3036,3.3484,3.3484,3.3484,3.3484,3.3484,3.2706,3.1839,3.1839,3.1839,3.1633,3.113,3.1781,3.2288,3.107,3.0951,3.107,3.0864,2.9549,2.8624,2.8936,2.7031,2.523,2.4692,2.3247,2.2042,2.1286,0.0,2.1649,2.1694,2.1904,2.2348,2.3122,2.3702,2.3891,2.3379,2.4535,2.469,0.0,2.4715,2.4987,2.3882,2.4482,2.4922,2.4998,2.5526,2.5803,2.5803,2.6282,2.6533,2.6533,2.6533,2.6533,2.6533,2.6533,2.6533,2.6533,2.6533,2.6533,2.6533,2.6533,2.6533,2.6533,2.6533,2.6533,2.6533,4.6621,4.6322,4.5813,4.4676,4.4287,4.3958,4.3419,4.3329,4.3329,4.3329,4.3329,4.3329,4.3329,4.3329,4.312,4.2551,4.1803,4.1324,4.1235,4.0098,3.9379,3.926,3.8063,3.7375,3.7255,3.6118,3.5519,3.5519,3.5519,3.5519,3.5519,3.5519,3.5519,3.5519,3.5519,3.5519,3.5489,3.54,3.5011,3.4472,3.4262,3.3903,3.3484,3.3395,3.3335,3.3335,3.3335,3.3335,3.3335,3.3335,3.3395,3.3484,3.3484,3.3484,3.3484,3.3484,3.3335,3.3185,3.3185,3.3185,3.3185,3.3063,3.3184,3.3155,3.2378,3.2646,3.2914,3.2288,3.1961,3.1427,3.0389,2.8638,2.7171,2.6515,2.4479,2.3183,2.3537,0.0,2.3092,2.3501,2.4094,2.4673,2.5143,2.4944,2.5136,2.5806,2.5361,2.5344,2.6048,2.6207,2.6155,2.591,2.5473,2.5486,2.5972,2.6308,2.6519,2.6519,2.6483,2.6533,2.6533,2.6533,2.6533,2.6533,2.6533,2.6533,2.6533,2.6533,2.6533,2.6533,2.6533,2.6533,2.6533,2.6533,2.6533,2.6533,4.7519,4.68,4.6112,4.5514,4.4796,4.4227,4.3898,4.3569,4.3329,4.3329,4.3329,4.3329,4.3329,4.3329,4.321,4.291,4.1953,4.1384,4.1384,4.0157,3.9409,3.9409,3.8123,3.7075,3.6387,3.5818,3.5519,3.5519,3.5519,3.5519,3.5519,3.5519,3.5519,3.5519,3.5519,3.5519,3.5519,3.5519,3.531,3.5011,3.4622,3.4532,3.4532,3.4173,3.4023,3.4023,3.4023,3.4023,3.4023,3.4023,3.4262,3.4592,3.4592,3.4592,3.4592,3.4592,3.4053,3.3484,3.3484,3.3484,3.3484,3.3484,3.3754,3.3844,3.3185,3.3544,3.3844,3.3185,3.3036,3.2736,3.1779,3.0056,2.871,2.8466,2.6197,0.0,0.0,2.5105,2.4892,2.555,2.5574,2.5824,2.664,2.6222,2.6112,2.6544,2.6413,2.6452,2.6661,2.6909,2.6999,2.6999,2.6503,2.637,2.6627,2.6815,2.6875,2.6875,2.6807,2.6739,2.6577,2.6577,2.6602,2.6533,2.6533,2.6533,2.6533,2.6533,2.6533,2.6533,2.6533,2.6533,2.6533,2.6533,2.6533,2.6533,4.8177,4.7249,4.6441,4.6142,4.5364,4.4616,4.4167,4.3778,4.3509,4.3359,4.3329,4.3329,4.3329,4.3329,4.3329,4.3329,4.2282,4.1534,4.1384,4.0277,3.9589,3.9439,3.8123,3.6956,3.5968,3.5669,3.5579,3.5729,3.5579,3.5519,3.5519,3.5519,3.5519,3.5519,3.5519,3.5519,3.5519,3.5519,3.5519,3.5459,3.4921,3.504,3.5459,3.4921,3.4711,3.4711,3.4711,3.4711,3.4711,3.4711,3.507,3.5519,3.5519,3.5519,3.5519,3.5519,3.4771,3.3963,3.3963,3.3963,3.3963,3.3963,3.4352,3.4532,3.3873,3.4233,3.4532,3.3873,3.3724,3.3514,3.2856,3.139,3.0261,3.0218,0.0,0.0,0.0,2.7403,2.7147,2.7541,2.7225,2.7317,2.8071,2.7488,2.7129,2.7129,2.7354,2.734,2.6896,2.7288,2.7523,2.7523,2.7281,2.7146,2.7146,2.7079,2.7156,2.7284,2.7216,2.7199,2.7163,2.7036,2.6917,2.6848,2.6653,2.6602,2.6602,2.6533,2.6533,2.6533,2.6533,2.6533,2.6533,2.6533,2.6533,2.6533,4.7519,4.7309,4.683,4.5574,4.5813,4.5544,4.3688,4.3898,4.4018,4.3419,4.3329,4.3329,4.3329,4.3329,4.3329,4.3329,4.2701,4.2043,4.1414,4.0726,4.0068,3.9439,3.8123,3.7375,3.7255,3.6118,3.5789,3.6417,3.5789,3.5519,3.5519,3.5519,3.5519,3.5519,3.5519,3.5519,3.5519,3.5519,3.5519,3.5519,3.5459,3.5459,3.5489,3.5459,3.5429,3.5429,3.5429,3.5429,3.5429,3.5429,3.5459,3.5519,3.5519,3.5519,3.5519,3.5519,3.5429,3.534,3.534,3.534,3.534,3.534,3.54,3.525,3.4562,3.4921,3.525,3.4532,3.4412,3.4203,3.3544,3.2796,3.2108,3.1482,0.0,0.0,3.0264,3.0308,3.0075,2.9377,2.984,2.9975,2.9448,2.8784,2.8363,2.8363,2.7829,2.7497,2.7471,2.7497,2.7523,2.7523,2.7456,2.7456,2.7456,2.7348,2.754,2.7988,2.7919,2.8062,2.8549,2.8036,2.778,2.7754,2.7011,2.6807,2.6943,2.6602,2.6602,2.6645,2.6533,2.6533,2.6533,2.6645,2.6714,2.6714,4.8027,4.7578,4.701,4.6082,4.5813,4.5304,4.4107,4.3808,4.3629,4.3359,4.3329,4.3329,4.3329,4.3329,4.3329,4.3329,4.2731,4.2252,4.2013,4.0995,3.9918,3.8841,3.8302,3.7823,3.7434,3.6567,3.6237,3.6477,3.5818,3.5519,3.5519,3.5519,3.5519,3.5519,3.5519,3.5519,3.5519,3.5519,3.5519,3.5519,3.5519,3.5519,3.5519,3.5519,3.5519,3.5519,3.5519,3.5519,3.5519,3.5519,3.5519,3.5519,3.5519,3.5519,3.5519,3.5519,3.5519,3.5519,3.5519,3.5519,3.5519,3.5519,3.5519,3.5429,3.519,3.531,3.5429,3.516,3.513,3.4921,3.4233,3.3574,3.3185,3.3335,0.0,3.1634,3.2826,3.2318,3.1841,3.196,3.145,3.1203,3.1329,2.9933,2.9252,2.9671,2.8637,2.8046,2.8046,2.7706,2.7523,2.7523,2.7863,2.7889,2.7523,2.7456,2.7676,2.8317,2.8248,2.849,2.8892,2.8686,2.8511,2.8369,2.8068,2.7895,2.7895,2.7825,2.7646,2.7272,2.7316,2.7043,2.6696,2.7258,2.7156,2.6764,4.8147,4.7608,4.704,4.6142,4.5783,4.5244,4.4167,4.3808,4.3569,4.3359,4.3329,4.3329,4.3329,4.3329,4.3329,4.3329,4.291,4.2581,4.2372,4.1115,3.9888,3.8751,3.8512,3.8272,3.8033,3.7195,3.6776,3.6776,3.6327,3.5908,3.5519,3.5729,3.5699,3.5519,3.5519,3.5519,3.5519,3.5519,3.5519,3.5519,3.5519,3.5519,3.5519,3.5519,3.5519,3.5519,3.5519,3.5519,3.5519,3.5519,3.5519,3.5549,3.5759,3.5818,3.5759,3.5579,3.5519,3.5519,3.5519,3.5519,3.5519,3.5519,3.5519,3.5519,3.5519,3.5519,3.5519,3.5519,3.5519,3.537,3.4891,3.4442,3.4203,3.4442,3.3514,3.3185,3.4322,3.3873,3.3544,3.3784,3.2995,3.257,3.2805,3.1318,3.0582,3.0999,2.9632,2.8554,2.8124,2.7915,2.7785,2.7785,2.8177,2.8281,2.8072,2.8072,2.8281,2.8673,2.8856,2.9177,2.9652,2.947,2.9248,2.9104,2.8898,2.8749,2.8677,2.8677,2.8472,2.8042,2.8113,2.7685,2.7181,2.7773,2.7498,2.6994,4.7549,4.7309,4.689,4.5514,4.5873,4.5633,4.3629,4.3898,4.4077,4.3419,4.3329,4.3329,4.3329,4.3329,4.3329,4.3329,4.3329,4.306,4.2402,4.1115,4.0098,3.9469,3.8781,3.8721,3.9409,3.8093,3.7434,3.7434,3.7404,3.6776,3.5519,3.6178,3.6148,3.5519,3.5519,3.5519,3.5519,3.5519,3.5519,3.5519,3.5519,3.5519,3.5519,3.5519,3.5519,3.5519,3.5519,3.5519,3.5519,3.5519,3.5519,3.5609,3.6267,3.6477,3.6357,3.5699,3.5519,3.5519,3.5519,3.5519,3.5519,3.5519,3.5519,3.5519,3.5519,3.5519,3.5519,3.5519,3.5519,3.5519,3.5519,3.5519,3.528,3.4592,3.507,3.528,3.4592,3.507,3.525,3.4562,3.4472,3.4233,3.3574,3.2897,3.2489,3.2489,3.0695,2.8932,2.7575,2.8072,2.8454,2.8454,2.8454,2.8673,2.9274,2.9274,2.9274,2.9301,2.9876,3.0424,3.0973,3.0398,3.0137,3.0038,2.9295,2.9132,2.9301,2.8846,2.8846,2.8964,2.8774,2.8344,2.7927,2.8066,2.7773,2.7281,4.7489,4.692,4.6322,4.5454,4.5095,4.4556,4.3479,4.3509,4.3569,4.3359,4.3329,4.3329,4.3329,4.3329,4.3329,4.3329,4.3329,4.306,4.2402,4.1115,4.0307,4.0127,3.9469,3.92,3.9409,3.8542,3.8093,3.8093,3.7644,3.7225,3.6836,3.7045,3.7015,3.6836,3.6387,3.6178,3.6178,3.5699,3.5519,3.5519,3.5519,3.5519,3.5519,3.5519,3.5519,3.5579,3.6028,3.5908,3.5579,3.6028,3.5878,3.5609,3.6267,3.6776,3.7015,3.6387,3.6178,3.6088,3.5639,3.5519,3.5519,3.5519,3.5519,3.5519,3.5519,3.5519,3.5519,3.5519,3.5519,3.5519,3.5519,3.5519,3.5429,3.522,3.537,3.5429,3.522,3.537,3.5429,3.522,3.4771,3.4592,3.4891,3.3868,3.3296,3.3703,3.2358,3.1165,3.0356,3.0494,3.0577,3.0577,3.0991,3.0829,3.0062,2.9531,2.9483,2.9876,3.0059,3.0424,3.0973,3.0817,3.0738,3.0712,3.0481,3.0329,3.0255,3.0329,2.9995,2.9559,2.9658,2.899,2.8092,2.8716,2.8248,2.74,4.7429,4.698,4.6501,4.5813,4.5155,4.4496,4.3838,4.3509,4.3329,4.3329,4.3329,4.3329,4.3329,4.3329,4.3329,4.3329,4.3329,4.306,4.2402,4.1384,4.0666,4.0397,3.9768,3.9409,3.9409,3.902,3.8661,3.8392,3.8272,3.7943,3.7404,3.7674,3.7644,3.7404,3.7015,3.6866,3.6836,3.6417,3.6267,3.6237,3.5998,3.5908,3.5908,3.5908,3.5729,3.5579,3.6237,3.6237,3.5968,3.6357,3.6567,3.6656,3.6806,3.7285,3.7674,3.7045,3.6866,3.6716,3.6058,3.5908,3.5818,3.5579,3.5519,3.5519,3.5519,3.5519,3.5519,3.5519,3.5519,3.5519,3.5519,3.5519,3.5519,3.5519,3.5519,3.5519,3.5519,3.5519,3.5519,3.5519,3.513,3.504,3.5459,3.4712,3.4178,3.4031,3.3485,3.2691,3.1575,3.1744,3.1886,3.1886,3.2185,3.2094,3.1502,3.0761,3.027,3.0137,3.0372,3.066,3.0973,3.0973,3.0973,3.0973,3.0973,3.0924,3.0849,3.0924,3.0559,2.9891,3.0064,2.9334,2.83,2.8778,2.8265,2.7442,4.7429,4.7249,4.704,4.6441,4.5753,4.5065,4.4407,4.3808,4.3389,4.3329,4.3329,4.3329,4.3329,4.3329,4.3329,4.3329,4.3269,4.303,4.2491,4.1773,4.1115,4.0516,3.9858,3.9499,3.9499,3.9439,3.911,3.8482,3.917,3.8841,3.7584,3.8272,3.8212,3.7584,3.7524,3.7494,3.7494,3.7434,3.7404,3.7375,3.6806,3.6567,3.6567,3.6567,3.6207,3.5759,3.6417,3.6626,3.6567,3.6567,3.7375,3.8272,3.7674,3.7943,3.8362,3.7704,3.7494,3.7375,3.6746,3.6567,3.6417,3.5818,3.5669,3.5639,3.5519,3.5519,3.5519,3.5519,3.5519,3.5519,3.5519,3.5519,3.5519,3.5519,3.5519,3.5519,3.5519,3.5519,3.5519,3.5519,3.5519,3.5519,3.5519,3.5519,3.4961,3.3755,3.4155,3.3686,3.1943,3.2358,3.267,3.267,3.267,3.2857,3.3283,3.2648,3.1613,3.0288,3.0738,3.0973,3.0973,3.0973,3.0973,3.0973,3.0973,3.0973,3.0973,3.0973,3.0634,3.0137,3.0137,2.9457,2.8438,2.8386,2.8046,2.7602,4.7339,4.689,4.6501,4.6352,4.5753,4.5065,4.4407,4.4197,4.3928,4.3389,4.3329,4.3329,4.3329,4.3329,4.3329,4.3329,4.288,4.2731,4.309,4.2013,4.1324,4.1175,4.0546,4.0187,4.0187,3.9679,3.9349,3.92,3.9858,3.9768,3.899,3.9649,3.9619,3.896,3.8422,3.8182,3.8153,3.7614,3.7404,3.7404,3.7255,3.7195,3.7195,3.7195,3.7105,3.7075,3.7734,3.7644,3.7195,3.7195,3.7734,3.8362,3.8212,3.8631,3.905,3.8392,3.8182,3.8033,3.7375,3.7195,3.7165,3.7015,3.6985,3.6746,3.5729,3.5519,3.5519,3.5519,3.5519,3.5519,3.5519,3.5519,3.5519,3.5519,3.5519,3.5519,3.5519,3.5519,3.5519,3.5519,3.5519,3.5519,3.5519,3.5519,3.5365,3.5085,3.5204,3.508,3.4653,3.4801,3.4794,3.4794,3.4794,3.4559,3.4109,3.3905,3.3129,3.1694,3.1193,3.0973,3.0973,3.0973,3.0973,3.0973,3.0973,3.0973,3.0973,3.0973,3.0634,3.0137,3.0137,2.9693,2.9039,2.8543,2.8307,2.8124,4.7309,4.704,4.68,4.68,4.6232,4.5663,4.5334,4.5005,4.4556,4.3898,4.3808,4.3688,4.3359,4.3329,4.3329,4.3329,4.303,4.297,4.3299,4.2402,4.1863,4.1863,4.1205,4.0876,4.0876,4.0516,4.0217,3.9888,3.9918,3.9738,3.9439,3.9768,3.9738,3.9409,3.905,3.8871,3.8841,3.8512,3.8362,3.8332,3.8003,3.7883,3.7883,3.7883,3.7674,3.7494,3.8153,3.8153,3.7943,3.8242,3.8601,3.8871,3.8871,3.914,3.9349,3.899,3.8871,3.8721,3.8063,3.7883,3.7793,3.7494,3.7404,3.7225,3.6567,3.6417,3.6417,3.6417,3.6417,3.6327,3.6028,3.5968,3.5878,3.5549,3.5519,3.5519,3.5519,3.5519,3.5519,3.5519,3.5519,3.5519,3.5519,3.5519,3.5519,3.5519,3.5519,3.5519,3.5519,3.5519,3.5519,3.5519,3.5519,3.5294,3.4905,3.4447,3.3876,3.3115,3.2028,3.132,3.0973,3.0973,3.0973,3.0973,3.0973,3.0973,3.0973,3.0973,3.0477,2.9719,2.9719,2.9196,2.8412,2.8098,2.7968,2.7941,4.7309,4.7309,4.7309,4.7309,4.686,4.6441,4.6352,4.5843,4.5244,4.4556,4.4377,4.4107,4.3569,4.3389,4.3329,4.3329,4.3329,4.3329,4.3329,4.2821,4.2491,4.2372,4.1833,4.1564,4.1564,4.1444,4.1115,4.0576,4.0008,3.9709,3.9589,3.9589,3.9529,3.9409,3.9409,3.9409,3.9409,3.9409,3.9409,3.9379,3.8781,3.8571,3.8571,3.8571,3.8242,3.7823,3.8362,3.8571,3.8661,3.923,3.9409,3.9409,3.9409,3.9409,3.9439,3.9559,3.9499,3.932,3.8871,3.8661,3.8452,3.7883,3.7764,3.7764,3.7764,3.7584,3.7404,3.7404,3.7404,3.7255,3.6746,3.6656,3.6477,3.5938,3.5759,3.5669,3.5669,3.5579,3.5519,3.5519,3.5519,3.5519,3.5519,3.5519,3.5519,3.5519,3.5519,3.5519,3.5519,3.5519,3.5519,3.5519,3.5519,3.5519,3.5519,3.4839,3.4447,3.4312,3.3045,3.2101,3.1394,3.1272,3.1272,3.1394,3.1272,3.1272,3.1347,3.1272,3.0513,2.9487,2.9345,2.8621,2.768,2.768,2.7602,2.7549,4.7309,4.7309,4.7309,4.7309,4.7249,4.698,4.6411,4.6232,4.5933,4.5244,4.4676,4.4287,4.4197,4.3688,4.3329,4.3329,4.3329,4.3329,4.3329,4.324,4.294,4.2372,4.2282,4.2222,4.2222,4.1683,4.1324,4.1235,4.1145,4.0816,4.0277,4.0277,3.9978,3.9409,3.9409,3.9409,3.9409,3.9409,3.9409,3.9409,3.932,3.929,3.929,3.929,3.923,3.917,3.926,3.929,3.929,3.9379,3.9409,3.9409,3.9409,3.9409,3.9529,4.0098,3.9858,3.9529,4.0008,3.9709,3.926,3.917,3.914,3.914,3.914,3.8242,3.7404,3.7404,3.7404,3.7375,3.7315,3.7285,3.7255,3.7165,3.6716,3.6357,3.6357,3.5878,3.5519,3.5519,3.5519,3.5519,3.5519,3.5519,3.5519,3.5519,3.5519,3.5519,3.5519,3.5519,3.5519,3.5519,3.5519,3.5519,3.5519,3.5359,3.4971,3.4312,3.4109,3.363,3.2861,3.2218,3.229,3.2861,3.2245,3.229,3.2861,3.2218,3.1253,3.02,2.9531,2.8856,2.8255,2.8255,2.7941,2.7602,4.7309,4.7309,4.7309,4.7309,4.7309,4.7219,4.692,4.686,4.6621,4.5963,4.5603,4.5274,4.4915,4.4287,4.3748,4.3359,4.3329,4.3329,4.3329,4.3329,4.321,4.291,4.291,4.291,4.291,4.2611,4.2462,4.2462,4.1354,4.0696,4.0397,4.0038,3.9709,3.9439,3.9798,3.9768,3.9469,4.0217,4.0098,3.9439,3.9828,3.9738,3.9409,3.9409,3.9649,4.0008,4.0397,4.0516,4.0516,4.0516,4.0277,4.0038,4.0397,4.0277,4.0098,4.0756,4.0756,4.0576,4.0876,4.0726,4.0427,4.0068,3.9978,3.9858,3.9499,3.896,3.8542,3.8542,3.8542,3.8422,3.8033,3.7973,3.7853,3.7464,3.7195,3.7015,3.7015,3.6746,3.6447,3.6088,3.6058,3.5908,3.5549,3.5519,3.5519,3.5519,3.5519,3.5519,3.5519,3.5519,3.5519,3.5519,3.5519,3.5519,3.5519,3.5519,3.5359,3.4971,3.4971,3.4341,3.3213,3.2861,3.2861,3.3143,3.2861,3.2932,3.3115,3.243,3.1695,3.0893,3.0159,2.9524,2.8905,2.8523,2.8438,2.849]}]]